[[{"header":{"parameterUnit":"m.s-1","parameterCategory":1,"la1":30.6,"la2":29.2853,"lo1":-89.7004,"lo2":-87.6739,"dy":0.0162,"dx":0.0183,"nx":112,"ny":82,"refTime":"2024-03-08T06:00:00:Z","depth":0,"parameterNumber":2,"parameterNumberName":"U-component_of_WINDS"},"data":[0.0,0.0,0.0,0.0,0.0,0.0,0.0,0.0,0.0,0.0,0.0,0.0,0.0,0.0,0.0,0.0,0.0,0.0,0.0,0.0,0.0,0.0,0.0,0.0,0.0,0.0,0.0,0.0,0.0,0.0,0.0,0.0,0.0,0.0,0.0,0.0,0.0,0.0,0.0,0.0,0.0,0.0,0.0,0.0,0.0,0.0,0.0,0.0,0.0,0.0,0.0,0.0,0.0,0.0,0.0,0.0,0.0,0.0,0.0,0.0,0.0,0.0,0.0,0.0,0.0,0.0,0.0,0.0,0.0,0.0,0.0,0.0,0.0,0.0,0.0,0.0,0.0,0.0,0.0,0.0,0.0,0.0,0.0,0.0,0.0,0.0,0.0,0.0,0.0,0.0,-0.9846,-1.0274,-1.1463,-1.2131,-1.1926,-1.2275,-1.1832,-1.0221,0.0,0.0,0.0,0.0,0.0,0.0,0.0,0.0,0.0,0.0,0.0,0.0,0.0,0.0,0.0,0.0,0.0,0.0,0.0,0.0,0.0,0.0,0.0,0.0,0.0,0.0,0.0,0.0,0.0,0.0,0.0,0.0,0.0,0.0,0.0,0.0,0.0,0.0,0.0,0.0,0.0,0.0,0.0,0.0,0.0,0.0,0.0,0.0,0.0,0.0,0.0,0.0,0.0,0.0,0.0,0.0,0.0,0.0,0.0,0.0,0.0,0.0,0.0,0.0,0.0,0.0,0.0,0.0,0.0,0.0,0.0,0.0,0.0,0.0,0.0,0.0,0.0,0.0,0.0,0.0,0.0,0.0,0.0,0.0,0.0,0.0,0.0,0.0,0.0,0.0,0.0,0.0,0.0,0.0,0.0,0.0,0.0,0.0,0.0,0.0,0.0,0.0,0.0,0.0,-1.0074,-1.1082,-1.165,-1.1953,-1.1913,-1.149,-1.0929,-1.0167,0.0,0.0,0.0,0.0,0.0,0.0,0.0,0.0,0.0,0.0,0.0,0.0,0.0,0.0,0.0,0.0,0.0,0.0,0.0,0.0,0.0,0.0,0.0,0.0,0.0,0.0,0.0,0.0,0.0,0.0,0.0,0.0,0.0,0.0,0.0,0.0,0.0,0.0,0.0,0.0,0.0,0.0,0.0,0.0,0.0,0.0,0.0,0.0,0.0,0.0,0.0,0.0,0.0,0.0,0.0,0.0,0.0,0.0,0.0,0.0,0.0,0.0,0.0,0.0,0.0,0.0,0.0,0.0,0.0,0.0,0.0,0.0,0.0,0.0,0.0,0.0,0.0,0.0,0.0,0.0,0.0,0.0,0.0,0.0,0.0,0.0,0.0,0.0,0.0,0.0,0.0,0.0,0.0,0.0,0.0,0.0,0.0,0.0,0.0,0.0,0.0,0.0,0.0,-0.9927,-1.0488,-1.1295,-1.169,-1.1832,-1.1637,-1.1236,-1.0742,-1.0154,-1.0221,0.0,0.0,0.0,0.0,0.0,0.0,0.0,0.0,0.0,0.0,0.0,0.0,0.0,0.0,0.0,0.0,0.0,0.0,0.0,0.0,0.0,0.0,0.0,0.0,0.0,0.0,0.0,0.0,0.0,0.0,0.0,0.0,0.0,0.0,0.0,0.0,0.0,0.0,0.0,0.0,0.0,0.0,0.0,0.0,0.0,0.0,0.0,0.0,0.0,0.0,0.0,0.0,0.0,0.0,0.0,0.0,0.0,0.0,0.0,0.0,0.0,0.0,0.0,0.0,0.0,0.0,0.0,0.0,0.0,0.0,0.0,0.0,0.0,0.0,0.0,0.0,0.0,0.0,0.0,0.0,0.0,0.0,0.0,0.0,0.0,0.0,0.0,0.0,0.0,0.0,0.0,0.0,0.0,0.0,0.0,0.0,0.0,0.0,0.0,0.0,0.0,0.0,-1.0734,-1.0841,-1.1463,-1.1677,-1.165,-1.1322,-1.0929,-1.0488,-1.0047,-0.9673,0.0,0.0,0.0,0.0,0.0,0.0,0.0,0.0,0.0,0.0,0.0,0.0,0.0,0.0,0.0,0.0,0.0,0.0,0.0,0.0,0.0,0.0,0.0,0.0,0.0,0.0,0.0,0.0,0.0,0.0,0.0,0.0,0.0,0.0,0.0,0.0,0.0,0.0,0.0,0.0,0.0,0.0,0.0,0.0,0.0,0.0,0.0,0.0,0.0,0.0,0.0,0.0,0.0,0.0,0.0,0.0,0.0,0.0,0.0,0.0,0.0,0.0,0.0,0.0,0.0,0.0,0.0,0.0,0.0,0.0,0.0,0.0,0.0,0.0,0.0,0.0,0.0,0.0,0.0,0.0,0.0,0.0,0.0,0.0,0.0,0.0,0.0,0.0,0.0,0.0,0.0,0.0,0.0,0.0,0.0,0.0,0.0,0.0,0.0,0.0,0.0,0.0,-1.06,-1.0921,-1.1779,-1.161,-1.1309,-1.1049,-1.0261,-0.9782,-0.9742,-0.9178,0.0,0.0,0.0,0.0,0.0,0.0,0.0,0.0,0.0,0.0,0.0,0.0,0.0,0.0,0.0,0.0,0.0,0.0,0.0,0.0,0.0,0.0,0.0,0.0,0.0,0.0,0.0,0.0,0.0,0.0,0.0,0.0,0.0,0.0,0.0,0.0,0.0,0.0,0.0,0.0,0.0,0.0,0.0,0.0,0.0,0.0,0.0,0.0,0.0,0.0,0.0,0.0,0.0,0.0,0.0,0.0,0.0,0.0,0.0,0.0,0.0,0.0,0.0,0.0,0.0,0.0,0.0,0.0,0.0,0.0,0.0,0.0,0.0,0.0,0.0,0.0,0.0,0.0,0.0,0.0,0.0,0.0,0.0,0.0,0.0,0.0,0.0,0.0,0.0,0.0,0.0,0.0,0.0,0.0,0.0,0.0,0.0,0.0,0.0,0.0,0.0,0.0,-1.0287,-1.0555,-1.1249,-1.1223,-1.0969,-1.0488,-1.014,-0.9793,-0.9404,0.0,0.0,0.0,0.0,0.0,0.0,0.0,0.0,0.0,0.0,0.0,0.0,0.0,0.0,0.0,0.0,0.0,0.0,0.0,0.0,0.0,0.0,0.0,0.0,0.0,0.0,0.0,0.0,0.0,0.0,0.0,0.0,0.0,0.0,0.0,0.0,0.0,0.0,0.0,0.0,0.0,0.0,0.0,0.0,0.0,0.0,0.0,0.0,0.0,0.0,0.0,0.0,0.0,0.0,0.0,0.0,0.0,0.0,0.0,0.0,0.0,0.0,0.0,0.0,0.0,0.0,0.0,0.0,0.0,0.0,0.0,0.0,0.0,0.0,0.0,0.0,0.0,0.0,0.0,0.0,0.0,0.0,0.0,0.0,0.0,0.0,0.0,0.0,0.0,0.0,0.0,0.0,0.0,0.0,0.0,0.0,0.0,0.0,0.0,0.0,0.0,0.0,-0.9977,-1.0083,-1.0341,0.0,-1.0995,-1.0755,-1.0137,-0.991,-0.9644,-0.9231,0.0,0.0,0.0,0.0,0.0,0.0,0.0,0.0,0.0,0.0,0.0,0.0,0.0,0.0,0.0,0.0,0.0,0.0,0.0,0.0,0.0,0.0,0.0,0.0,0.0,0.0,0.0,0.0,0.0,0.0,0.0,0.0,0.0,0.0,0.0,0.0,0.0,0.0,0.0,0.0,0.0,0.0,0.0,0.0,0.0,0.0,0.0,0.0,0.0,0.0,0.0,0.0,0.0,0.0,0.0,0.0,0.0,0.0,0.0,0.0,0.0,0.0,0.0,0.0,0.0,0.0,0.0,0.0,0.0,0.0,0.0,0.0,0.0,0.0,0.0,0.0,0.0,0.0,0.0,0.0,0.0,0.0,0.0,0.0,0.0,0.0,0.0,0.0,0.0,0.0,0.0,0.0,0.0,0.0,0.0,0.0,0.0,0.0,0.0,0.0,0.0,0.0,-0.9963,-1.0114,-1.0341,-1.0929,-1.0995,-1.0755,-1.0167,-0.955,-0.9217,0.0,0.0,0.0,0.0,0.0,0.0,0.0,0.0,0.0,0.0,0.0,0.0,0.0,0.0,0.0,0.0,0.0,0.0,0.0,0.0,0.0,0.0,0.0,0.0,0.0,0.0,0.0,0.0,0.0,0.0,0.0,0.0,0.0,0.0,0.0,0.0,0.0,0.0,0.0,0.0,0.0,0.0,0.0,0.0,0.0,0.0,0.0,0.0,0.0,0.0,0.0,0.0,0.0,0.0,0.0,0.0,0.0,0.0,0.0,0.0,0.0,0.0,0.0,0.0,0.0,0.0,0.0,0.0,0.0,0.0,0.0,0.0,0.0,0.0,0.0,0.0,0.0,0.0,0.0,0.0,0.0,0.0,0.0,0.0,0.0,0.0,0.0,0.0,0.0,0.0,0.0,0.0,0.0,0.0,0.0,0.0,0.0,0.0,0.0,0.0,0.0,0.0,0.0,-0.9726,-0.9806,-1.0033,-1.0653,-1.072,-1.0479,-0.986,-0.9659,-0.9379,-0.8938,0.0,0.0,0.0,0.0,0.0,0.0,0.0,0.0,0.0,0.0,0.0,0.0,0.0,0.0,0.0,0.0,0.0,0.0,0.0,0.0,0.0,0.0,0.0,0.0,0.0,0.0,0.0,0.0,0.0,0.0,0.0,0.0,0.0,0.0,0.0,0.0,0.0,0.0,0.0,0.0,0.0,0.0,0.0,0.0,0.0,0.0,0.0,0.0,0.0,0.0,0.0,0.0,0.0,0.0,0.0,0.0,0.0,0.0,0.0,0.0,0.0,0.0,0.0,0.0,0.0,0.0,0.0,0.0,0.0,0.0,0.0,0.0,0.0,0.0,0.0,0.0,0.0,0.0,0.0,0.0,0.0,0.0,0.0,0.0,0.0,0.0,0.0,0.0,0.0,0.0,0.0,0.0,0.0,0.0,0.0,0.0,0.0,0.0,0.0,0.0,0.0,0.0,-0.978,-0.9753,-0.9943,-1.0533,-1.0586,-1.0358,-0.9769,-0.9715,-0.9432,-0.8844,0.0,0.0,0.0,0.0,0.0,0.0,0.0,0.0,0.0,0.0,0.0,0.0,0.0,0.0,0.0,0.0,0.0,0.0,0.0,0.0,0.0,0.0,0.0,0.0,0.0,0.0,0.0,0.0,0.0,0.0,0.0,0.0,0.0,0.0,0.0,0.0,0.0,0.0,0.0,0.0,0.0,0.0,0.0,0.0,0.0,0.0,0.0,0.0,0.0,0.0,0.0,0.0,0.0,0.0,0.0,0.0,0.0,0.0,0.0,0.0,0.0,0.0,0.0,0.0,0.0,0.0,0.0,0.0,0.0,0.0,0.0,0.0,0.0,0.0,0.0,0.0,0.0,0.0,0.0,0.0,0.0,0.0,0.0,0.0,0.0,0.0,0.0,0.0,0.0,0.0,0.0,0.0,0.0,0.0,0.0,0.0,0.0,0.0,0.0,0.0,0.0,0.0,-1.0043,-0.99,-0.9983,-1.0573,-1.0626,-1.0399,-0.978,-0.9729,-0.9446,-0.8884,0.0,0.0,0.0,0.0,0.0,0.0,0.0,0.0,0.0,0.0,0.0,0.0,0.0,0.0,0.0,0.0,0.0,0.0,0.0,0.0,0.0,0.0,0.0,0.0,0.0,0.0,0.0,0.0,0.0,0.0,0.0,0.0,0.0,0.0,0.0,0.0,0.0,0.0,0.0,0.0,0.0,0.0,0.0,0.0,0.0,0.0,0.0,0.0,0.0,0.0,0.0,0.0,0.0,0.0,0.0,0.0,0.0,0.0,0.0,0.0,-2.0351,0.0,0.0,0.0,0.0,0.0,0.0,0.0,0.0,0.0,0.0,0.0,0.0,0.0,0.0,0.0,0.0,0.0,0.0,0.0,0.0,0.0,0.0,0.0,0.0,0.0,0.0,0.0,0.0,0.0,0.0,0.0,0.0,0.0,0.0,0.0,0.0,0.0,0.0,0.0,0.0,0.0,-1.0399,-1.0207,-1.0247,-1.0835,-1.0902,-1.0661,-1.0074,-0.982,-0.9526,-0.9138,-0.8911,0.0,0.0,0.0,0.0,0.0,0.0,0.0,0.0,0.0,0.0,0.0,0.0,0.0,0.0,0.0,0.0,0.0,0.0,0.0,0.0,0.0,0.0,0.0,0.0,0.0,0.0,0.0,0.0,0.0,0.0,0.0,0.0,0.0,0.0,0.0,0.0,0.0,0.0,0.0,0.0,0.0,0.0,0.0,0.0,0.0,0.0,0.0,0.0,0.0,0.0,0.0,0.0,0.0,0.0,0.0,0.0,0.0,0.0,0.0,0.0,-2.1016,0.0,0.0,0.0,0.0,0.0,0.0,0.0,0.0,0.0,0.0,0.0,0.0,0.0,0.0,0.0,0.0,0.0,0.0,0.0,0.0,0.0,0.0,0.0,0.0,0.0,0.0,0.0,0.0,0.0,0.0,0.0,0.0,0.0,0.0,0.0,0.0,0.0,0.0,0.0,0.0,-1.1071,-1.0441,-1.014,-1.0747,-1.0814,-1.0608,-1.0154,-0.9846,-0.9552,-0.9231,-0.8938,0.0,0.0,0.0,0.0,0.0,0.0,0.0,0.0,0.0,0.0,0.0,0.0,0.0,0.0,0.0,0.0,0.0,0.0,0.0,0.0,0.0,0.0,0.0,0.0,0.0,0.0,0.0,0.0,0.0,0.0,0.0,0.0,0.0,0.0,0.0,0.0,0.0,0.0,0.0,0.0,0.0,0.0,0.0,0.0,0.0,0.0,0.0,0.0,0.0,0.0,0.0,0.0,0.0,-2.6103,-2.6543,-2.7246,-2.7246,-2.6816,-2.5977,-2.418,-2.2578,-2.1329,0.0,0.0,0.0,0.0,0.0,0.0,0.0,0.0,0.0,0.0,0.0,0.0,0.0,0.0,0.0,0.0,0.0,0.0,0.0,0.0,0.0,0.0,0.0,0.0,0.0,-1.7417,-1.6558,0.0,0.0,0.0,0.0,0.0,0.0,0.0,0.0,0.0,0.0,0.0,0.0,-1.2088,-1.097,-1.0301,-1.0935,-1.0789,-1.0546,-1.0221,-0.9873,-0.9579,-0.9311,-0.8964,-0.8804,0.0,0.0,0.0,0.0,0.0,0.0,0.0,0.0,0.0,0.0,0.0,0.0,0.0,0.0,0.0,0.0,0.0,0.0,0.0,0.0,0.0,0.0,0.0,0.0,0.0,0.0,0.0,0.0,0.0,0.0,0.0,0.0,-2.2422,-2.2789,0.0,0.0,0.0,0.0,0.0,0.0,0.0,0.0,0.0,0.0,0.0,0.0,0.0,-2.5674,-2.6582,-2.6973,-2.7297,-2.7422,-2.7773,-2.8008,-2.8125,-2.8125,-2.7871,-2.7402,-2.7161,0.0,-2.3867,-2.3223,0.0,0.0,0.0,0.0,0.0,0.0,0.0,0.0,0.0,0.0,0.0,0.0,0.0,0.0,0.0,0.0,0.0,0.0,0.0,0.0,0.0,0.0,-1.9308,-1.8979,-1.8271,-1.7523,0.0,-1.6185,-1.5138,-1.3822,-1.3424,0.0,0.0,0.0,0.0,0.0,0.0,0.0,-1.3672,-1.246,-1.1805,-1.2505,-1.1605,-1.0854,-1.0559,-1.0023,-0.9688,-0.9633,-0.9112,-0.8804,-0.8804,-0.8804,0.0,0.0,0.0,0.0,0.0,0.0,0.0,0.0,0.0,0.0,0.0,0.0,0.0,0.0,0.0,0.0,0.0,0.0,0.0,0.0,0.0,0.0,0.0,0.0,0.0,0.0,0.0,0.0,0.0,-2.3105,-2.375,-2.3159,-2.3945,-2.4238,0.0,0.0,0.0,0.0,0.0,0.0,0.0,0.0,0.0,-2.6554,-2.6719,-2.7226,-2.8086,-2.8281,-2.875,-2.9473,-2.9668,-3.0,-3.0469,-3.0215,-3.0,-2.9824,-2.959,-2.8652,-2.7168,-2.5304,-2.4251,-2.3744,0.0,0.0,0.0,0.0,-2.2793,-2.3008,-2.3281,-2.3105,0.0,0.0,0.0,0.0,0.0,0.0,0.0,0.0,0.0,0.0,0.0,0.0,0.0,-2.1104,-2.0903,-2.066,-2.0421,-1.9817,-1.8596,0.0,-1.5409,-1.5008,-1.4396,0.0,0.0,0.0,0.0,-1.4149,-1.4484,-1.3416,-1.2773,-1.3251,-1.2183,-1.1407,-1.1264,-1.0306,-0.9715,-0.9715,-0.9138,-0.8804,-0.8804,-0.8804,-0.8884,0.0,0.0,0.0,0.0,0.0,0.0,0.0,0.0,0.0,0.0,0.0,0.0,0.0,0.0,0.0,0.0,0.0,0.0,0.0,0.0,0.0,0.0,0.0,0.0,0.0,0.0,0.0,0.0,-2.4297,-2.4844,-2.375,-2.498,-2.5478,0.0,0.0,0.0,0.0,0.0,0.0,-2.6454,-2.6973,-2.7598,-2.8457,-2.8594,-2.9004,-2.9746,-2.9746,-3.0293,-3.1387,-3.1387,-3.1777,-3.248,-3.2148,-3.1953,-3.1816,-3.1406,-3.0781,-2.9883,-2.7402,-2.5937,-2.5176,-2.4551,-2.416,-2.3984,-2.4082,-2.418,-2.4355,-2.493,-2.4863,-2.457,-2.4473,0.0,-2.3008,-2.2148,0.0,0.0,0.0,0.0,-2.16,-2.1953,-2.2363,-2.2676,-2.2676,-2.2867,-2.3003,-2.2734,-2.2422,-2.1342,0.0,-1.7436,-1.6922,-1.6186,0.0,0.0,0.0,0.0,-1.5508,-1.5557,-1.4506,-1.3839,-1.4049,-1.2995,-1.2135,-1.1841,-1.075,-1.0014,-0.9822,-0.9312,-0.9031,-0.9031,-0.9031,-0.9138,-0.9324,0.0,0.0,0.0,0.0,0.0,0.0,0.0,0.0,0.0,0.0,0.0,0.0,0.0,0.0,0.0,0.0,0.0,0.0,0.0,0.0,0.0,0.0,0.0,0.0,0.0,0.0,0.0,0.0,0.0,-2.5019,-2.6836,0.0,0.0,0.0,0.0,-2.6816,-2.7246,-2.7871,-2.8711,-2.918,-2.9824,-3.0703,-3.1113,-3.1543,-3.1992,-3.2012,-3.2246,-3.2695,-3.2695,-3.293,-3.3359,-3.334,-3.3105,-3.2715,-3.2285,-3.1836,-3.125,-2.9062,-2.791,-2.7434,-2.6133,-2.5879,-2.6133,-2.5312,-2.5273,-2.5538,-2.5195,-2.5106,-2.5223,-2.5996,-2.5664,-2.4832,-2.3926,-2.3086,0.0,0.0,-2.2441,-2.2461,-2.248,-2.2812,-2.3169,-2.3062,-2.3081,-2.3081,-2.3062,-2.3042,-2.2375,0.0,-1.9391,-1.8856,-1.7916,0.0,-1.7311,-1.7291,-1.6908,-1.6792,-1.7233,-1.6187,-1.5396,-1.5382,-1.4262,-1.3058,-1.1888,-1.1451,-1.09,-1.0131,-0.9806,-0.9675,-0.9675,-0.9675,-0.9646,-0.9659,-0.9659,0.0,0.0,0.0,0.0,0.0,0.0,0.0,0.0,0.0,0.0,0.0,0.0,0.0,0.0,0.0,0.0,0.0,0.0,0.0,0.0,0.0,0.0,0.0,0.0,0.0,0.0,0.0,0.0,-2.832,-2.9805,0.0,-2.8535,-2.8418,-2.8496,-2.8652,-2.9336,-3.0117,-3.0976,-3.1406,-3.2051,-3.291,-3.3086,-3.3242,-3.3398,-3.3398,-3.332,-3.3203,-3.3203,-3.3281,-3.3418,-3.3144,-3.293,-3.2754,-3.2051,-3.166,-3.1445,-3.0391,-2.9375,-2.8379,-2.7363,-2.6894,-2.6758,-2.6445,-2.6602,-2.6953,-2.6797,-2.6789,-2.671,-2.6133,-2.5371,-2.4551,-2.3965,-2.3379,-2.2925,-2.3262,-2.334,-2.3398,-2.3672,-2.3848,-2.3906,-2.3633,-2.3555,-2.3477,-2.3159,-2.3101,-2.2877,-2.2093,-2.1436,-2.0703,-1.9774,-1.9271,-1.8828,-1.8281,-1.8013,-1.7876,-1.7812,-1.7172,-1.6739,-1.6739,-1.5364,-1.4376,-1.4179,-1.2926,-1.212,-1.2102,-1.1063,-1.0465,-1.0465,-0.9962,-0.9766,-0.9953,-0.9967,-0.9967,0.0,0.0,0.0,0.0,0.0,0.0,0.0,0.0,0.0,0.0,0.0,0.0,0.0,0.0,0.0,0.0,0.0,0.0,0.0,0.0,0.0,0.0,0.0,0.0,0.0,-2.8476,-3.0234,-3.0801,-3.2285,-3.2676,-3.1211,-3.1094,-3.1152,-3.1289,-3.1836,-3.2559,-3.3418,-3.3594,-3.3926,-3.4512,-3.4512,-3.4375,-3.4082,-3.4082,-3.3848,-3.3418,-3.3418,-3.3418,-3.3418,-3.3125,-3.293,-3.2754,-3.2051,-3.166,-3.1484,-3.1055,-3.0371,-2.9512,-2.8789,-2.834,-2.8066,-2.793,-2.8066,-2.8335,-2.8144,-2.791,-2.7519,-2.666,-2.5898,-2.5215,-2.4785,-2.4355,-2.4036,-2.4355,-2.4336,-2.4277,-2.457,-2.4629,-2.4492,-2.3926,-2.3789,-2.3672,-2.3198,-2.3101,-2.3101,-2.3101,-2.2578,-2.1816,-2.0937,-2.043,-1.9883,-1.9143,-1.8909,-1.875,-1.8477,-1.8066,-1.7695,-1.7455,-1.6389,-1.5692,-1.5514,-1.4325,-1.3515,-1.3358,-1.237,-1.1756,-1.1618,-1.1107,-1.0766,-1.0676,-1.0509,-1.0408,-1.0408,0.0,0.0,0.0,0.0,0.0,0.0,0.0,0.0,0.0,0.0,0.0,0.0,0.0,0.0,0.0,0.0,0.0,0.0,0.0,0.0,0.0,0.0,0.0,-2.7708,-3.0351,-3.2307,-3.2305,-3.418,-3.4805,-3.3105,-3.3691,-3.4336,-3.4726,-3.4766,-3.5137,-3.5996,-3.5644,-3.541,-3.541,-3.541,-3.5,-3.4121,-3.4121,-3.3887,-3.3437,-3.3457,-3.3437,-3.3418,-3.3437,-3.3203,-3.2773,-3.2344,-3.1914,-3.1484,-3.1055,-3.0898,-3.084,-3.0391,-3.0215,-3.0176,-2.9746,-2.957,-2.9492,-2.9043,-2.8359,-2.7728,-2.7728,-2.7383,-2.6953,-2.6562,-2.6113,-2.5732,-2.5732,-2.5449,-2.5165,-2.5165,-2.5145,-2.493,-2.4023,-2.3828,-2.3691,-2.3198,-2.3101,-2.3101,-2.3101,-2.2812,-2.2266,-2.1385,-2.0898,-2.0488,-2.0019,-1.959,0.0,-1.9297,-1.8926,-1.8305,-1.7539,-1.7455,-1.6933,-1.5702,-1.5583,-1.5017,-1.3809,-1.368,-1.3499,-1.3089,-1.3042,-1.2674,-1.1888,-1.1335,-1.1075,-1.1075,0.0,0.0,0.0,0.0,0.0,0.0,0.0,0.0,0.0,0.0,0.0,0.0,0.0,0.0,0.0,0.0,0.0,0.0,0.0,0.0,0.0,-2.832,-3.0078,-3.0019,-3.2051,-3.4088,-3.5293,-3.6504,-3.6914,-3.6133,-3.6269,-3.6328,-3.6133,-3.6133,-3.623,-3.6484,-3.6074,-3.5859,-3.5859,-3.5859,-3.5586,-3.5039,-3.5039,-3.4648,-3.3887,-3.4199,-3.4023,-3.3437,-3.375,-3.3496,-3.2773,-3.2344,-3.1914,-3.1484,-3.1055,-3.0898,-3.0879,-3.0762,-3.0703,-3.0644,-3.0195,-2.9629,-2.9043,-2.8613,-2.832,-2.8125,-2.8125,-2.7832,-2.7461,-2.7395,-2.7012,-2.666,-2.666,-2.6348,-2.6035,-2.6035,-2.5781,-2.541,-2.4844,-2.4473,-2.4121,-2.3711,-2.3315,-2.3101,-2.3101,-2.3003,-2.275,-2.2204,-2.1816,-2.1367,-2.0898,-2.0234,0.0,-1.9746,-1.9375,-1.9023,-1.8789,-1.8477,-1.8139,-1.7797,-1.7207,-1.6739,-1.6397,-1.5482,-1.4914,-1.4808,-1.4234,-1.3849,-1.3623,-1.2818,-1.238,0.0,0.0,0.0,0.0,0.0,0.0,0.0,0.0,0.0,0.0,0.0,0.0,0.0,0.0,0.0,0.0,0.0,0.0,0.0,0.0,0.0,0.0,-3.0391,-3.2344,-3.3184,-3.4375,-3.5664,-3.7031,-3.7793,-3.8105,-3.7851,-3.7832,-3.7734,-3.748,-3.7305,-3.7187,-3.7187,-3.6621,-3.6289,-3.6289,-3.6113,-3.582,-3.5391,-3.5195,-3.4746,-3.4082,-3.4141,-3.3906,-3.3437,-3.3691,-3.334,0.0,-3.2285,-3.1816,-3.123,-3.0996,-3.0898,0.0,0.0,0.0,0.0,0.0,-2.9648,-2.8887,-2.8633,-2.8437,-2.8301,-2.8301,-2.8125,-2.7891,-2.7767,-2.748,-2.7246,-2.707,-2.6719,-2.6387,-2.6387,-2.6055,-2.5538,-2.4941,-2.4609,-2.4258,-2.3652,-2.3276,-2.3101,-2.3101,0.0,0.0,-2.2769,-2.2285,-2.1797,-2.1543,-2.0762,-2.0195,-2.0195,-1.9824,-1.9414,-1.9062,-1.8754,-1.852,-1.8364,-1.793,0.0,0.0,0.0,-1.6201,-1.6,-1.5224,0.0,0.0,0.0,-1.3719,-1.386,0.0,0.0,0.0,-1.2183,-1.2145,0.0,0.0,0.0,0.0,0.0,0.0,0.0,0.0,0.0,0.0,0.0,0.0,0.0,0.0,0.0,0.0,-3.2266,-3.4023,-3.6523,-3.6934,-3.7226,-3.7969,-3.8359,-3.8594,-3.8633,-3.8613,-3.8574,-3.8574,-3.8164,-3.793,-3.793,0.0,0.0,0.0,0.0,-3.5898,-3.5469,-3.5059,-3.4609,-3.4141,-3.3809,-3.3574,-3.3418,-3.3476,-3.3027,-3.2307,-3.2187,-3.1719,-3.0957,-3.0918,-3.0898,-3.0898,-3.0898,-3.0898,-3.082,-3.0312,-2.9648,0.0,-2.8887,0.0,0.0,-2.8301,-2.8301,-2.8223,-2.7904,-2.7787,-2.7637,-2.7207,-2.6777,-2.6445,-2.6406,-2.6055,-2.5499,-2.4746,-2.4531,-2.4258,-2.3413,-2.3198,-2.3159,-2.3101,-2.3101,-2.3101,-2.3101,-2.248,-2.1934,-2.1894,-2.1212,-2.0664,-2.0605,-2.0234,-1.9687,-1.889,0.0,0.0,-1.8262,-1.8223,-1.8047,-1.7617,-1.7559,-1.7344,-1.6941,-1.6182,-1.5889,-1.6136,-1.5325,-1.5049,-1.5367,-1.5261,-1.5261,-1.5315,-1.3829,-1.3737,0.0,0.0,0.0,0.0,0.0,0.0,0.0,0.0,0.0,0.0,0.0,0.0,0.0,0.0,0.0,-3.2109,-3.4101,-3.6055,-3.793,-3.8496,-3.8769,-3.8926,-3.873,-3.8711,-3.9043,-3.8769,-3.8574,-3.8574,-3.8164,-3.793,-3.793,-3.7441,-3.7012,-3.668,-3.6582,-3.6328,-3.5898,-3.5801,-3.5371,-3.459,0.0,0.0,-3.3437,-3.3789,-3.3476,-3.2656,-3.2324,-3.1875,-3.1367,-3.1035,-3.0898,-3.0898,-3.0898,-3.0898,-3.0801,-2.998,-2.959,-2.9355,-2.8652,-2.8359,-2.8301,-2.8301,-2.8301,-2.8281,-2.8203,-2.8164,0.0,-2.7656,-2.7226,-2.6816,-2.6465,-2.6055,-2.5635,-2.5479,-2.5215,-2.4805,-2.4277,-2.3906,-2.3555,-2.3159,-2.3101,-2.3101,-2.3101,-2.2672,-2.2285,-2.1934,-2.1445,-2.0977,-2.0644,-2.0527,-2.041,-2.0253,-2.0233,-2.0019,-1.959,-1.9551,-1.9375,-1.8945,-1.8594,-1.8325,-1.8247,-1.776,-1.7538,-1.76,-1.6709,-1.6278,-1.6315,-1.5579,-1.5579,-1.6315,-1.5268,-1.4884,0.0,0.0,0.0,0.0,0.0,0.0,0.0,0.0,0.0,0.0,0.0,-2.8496,-2.916,0.0,-3.2461,-3.4414,-3.582,-3.7109,-3.8398,-3.875,-3.9062,-3.9492,-3.916,-3.8965,-3.918,-3.8828,-3.8574,-3.8574,-3.8379,-3.8242,-3.8242,-3.7851,-3.7519,-3.7305,-3.6894,-3.6562,-3.6348,-3.5918,-3.5488,-3.5039,-3.4844,-3.4394,-3.375,-3.375,-3.3398,-3.2773,-3.2344,-3.1914,-3.1484,-3.1055,-3.0898,-3.0898,-3.0898,-3.0742,-3.0488,-3.0039,-2.9746,-2.9473,-2.8828,-2.8613,-2.8574,-2.8359,-2.8301,-2.8301,-2.8301,-2.8301,-2.8242,-2.8047,-2.7519,-2.6973,-2.6758,-2.623,-2.5635,-2.5449,-2.5234,-2.4949,-2.4238,-2.3945,-2.3652,-2.3179,-2.3101,-2.3101,-2.3101,-2.2925,-2.2633,-2.2266,-2.1641,-2.1112,-2.0937,-2.0703,-2.0527,-2.0254,-2.0234,-2.0059,-1.9629,-1.9609,-1.9512,-1.9297,-1.9082,-1.8965,-1.8965,-1.8769,-1.8555,-1.8286,-1.8059,-1.7734,-1.7285,-1.7275,-1.7367,-1.7586,-1.7367,-1.7026,0.0,0.0,0.0,0.0,0.0,0.0,0.0,-2.6816,-2.7305,-2.8374,-2.9548,-3.0781,-3.2266,-3.3301,-3.4551,-3.6484,-3.7148,-3.7715,-3.8574,-3.8691,-3.8984,-3.9805,-3.9414,-3.918,-3.9434,-3.8926,-3.8613,-3.8691,-3.8613,-3.8574,-3.8574,-3.8242,-3.7969,-3.7812,-3.7148,-3.6719,-3.6543,-3.5859,-3.5469,-3.5391,-3.4668,-3.4238,-3.4062,-3.3711,-3.3281,-3.2773,-3.2266,-3.1797,-3.1367,-3.1035,-3.0898,-3.0898,-3.0898,-3.0664,-3.0312,-3.0234,-2.998,-2.9629,-2.9199,-2.8984,-2.8867,-2.8516,-2.8359,-2.8301,-2.8301,-2.8301,-2.8281,-2.8203,-2.7617,-2.6992,-2.6914,-2.6259,-2.5596,-2.5293,-2.5195,-2.498,-2.4199,-2.4043,-2.3887,-2.3315,-2.3218,-2.3198,-2.3101,-2.3101,-2.2945,-2.2578,-2.1892,-2.1385,-2.121,-2.0918,-2.0527,-2.0078,-2.0039,-1.9902,-1.957,-1.9531,-1.9531,-1.9531,-1.9453,-1.9414,-1.9414,-1.9336,-1.9121,-1.8734,-1.9102,-1.8945,-1.8262,-1.8945,-1.9102,-1.8734,-1.9121,-1.8906,-2.7031,-2.584,-2.5117,-2.6523,-2.6035,-2.6045,0.0,-2.9453,-2.9744,-3.1387,-3.2383,-3.3164,-3.375,-3.4883,-3.6055,-3.707,-3.7578,-3.8144,-3.9004,-3.9141,-3.9316,-3.9824,-3.916,-3.9101,-4.0254,-3.9277,-3.873,-3.9101,-3.8789,-3.8574,-3.8574,-3.8535,-3.8164,-3.7383,-3.7266,-3.6855,-3.6094,-3.5996,-3.5762,-3.5391,-3.5293,-3.4844,-3.4082,-3.4023,-3.3555,-3.2754,-3.1934,-3.1348,-3.0957,-3.0918,-3.0898,-3.0898,-3.0898,-3.0859,-3.0762,-3.0351,-3.0176,-3.0059,-2.9648,-2.9238,-2.8906,-2.8867,-2.8594,-2.8301,-2.8301,-2.8301,-2.8223,-2.7904,-2.7383,-2.6934,-2.6562,-2.6094,-2.5674,-2.5635,-2.5615,-2.5527,-2.5019,-2.4969,-2.4734,-2.3867,-2.3711,-2.3594,-2.3159,-2.3101,-2.2945,-2.2578,-2.2441,-2.2048,-2.1288,-2.1151,-2.0996,-2.0586,-2.0527,-2.0507,-2.0468,-2.0449,-2.0449,-2.0449,-2.0059,-1.9844,-1.9844,-1.9492,-1.9258,-1.9219,-1.9258,-1.9238,-1.9141,-1.9238,-1.9258,-1.9219,-1.9258,-1.9238,-2.7266,-2.666,-2.6426,-2.6894,-2.7344,-2.8125,-2.9805,-3.0664,-3.1426,-3.2637,-3.3984,-3.5137,-3.582,-3.6601,-3.7324,-3.7949,-3.8184,-3.8437,-3.8789,-3.8613,-3.8437,-3.8379,-3.7832,-3.8066,-3.9609,-3.9043,-3.8652,-3.8828,-3.8672,-3.8574,-3.8574,-3.834,-3.8144,-3.8047,-3.7559,-3.7129,-3.6777,-3.6523,-3.6191,-3.5762,-3.5508,-3.5059,-3.4434,-3.418,-3.3476,-3.2402,-3.1777,-3.1269,-3.0898,-3.0898,-3.0898,-3.0898,-3.0898,-3.0898,-3.0859,-3.0664,-3.0605,-3.0527,-3.0098,-2.9648,-2.9258,-2.9004,-2.8633,-2.8301,-2.8301,-2.8301,-2.8262,-2.8086,-2.7715,-2.7363,-2.7168,-2.6816,-2.6484,-2.6484,-2.6289,-2.5996,-2.5547,-2.5254,-2.493,-2.4277,-2.3965,-2.373,-2.3555,-2.3257,-2.3042,-2.2867,-2.2676,-2.2383,-2.199,-2.1502,-2.1132,-2.0977,-2.0957,-2.0957,-2.0957,-2.0957,-2.084,-2.0625,-2.0429,-2.0293,-2.0293,-2.0155,-1.9922,-1.9648,-1.9902,-1.9822,-1.9297,-1.9822,-1.9902,-1.9668,-1.9922,-2.0077,-2.7129,-2.7148,-2.7461,-2.7383,-2.8672,-3.0078,-3.0625,-3.1836,-3.3105,-3.3965,-3.5234,-3.6426,-3.7168,-3.7637,-3.8027,-3.834,-3.8496,-3.8535,-3.8418,-3.793,-3.7422,-3.6992,-3.6465,-3.666,-3.8027,-3.8086,-3.8203,-3.8555,-3.8457,-3.8457,-3.8574,-3.8281,-3.8184,-3.8398,-3.7676,-3.7246,-3.7129,-3.6699,-3.6328,-3.6016,-3.5703,-3.5254,-3.4668,-3.4023,-3.3144,-3.2148,-3.1699,-3.1269,-3.0898,-3.0898,-3.0898,-3.0898,-3.0898,-3.0898,-3.0898,-3.0898,-3.0898,-3.082,-3.0351,-2.9922,-2.9492,-2.9062,-2.8633,-2.8301,-2.8301,-2.8301,-2.8301,-2.8301,-2.7988,-2.7728,-2.7728,-2.7344,-2.7012,-2.7012,-2.6777,-2.6484,-2.6103,-2.5742,-2.5312,-2.4863,-2.4434,-2.4062,-2.3828,-2.3535,-2.3237,-2.312,-2.2847,-2.2637,-2.2519,-2.1875,-2.1366,-2.1366,-2.1366,-2.1366,-2.1366,-2.1366,-2.1269,-2.0997,-2.0977,-2.0977,-2.0977,-2.0977,-2.0723,-2.0293,-2.0586,-2.0391,-1.9648,-2.0292,-2.0449,-2.0098,-2.0449,-2.0605,-2.6523,-2.6719,-2.7226,-2.8047,-2.957,-3.1074,-3.1914,-3.3418,-3.4863,-3.5762,-3.6328,-3.6777,-3.7226,-3.7637,-3.793,-3.7949,-3.8301,-3.8418,-3.8008,-3.7226,-3.6543,-3.6113,-3.5293,-3.4961,-3.5469,-3.625,-3.7246,-3.8476,-3.8184,-3.8125,-3.8555,-3.8555,-3.8359,-3.7969,-3.7519,-3.7109,-3.6699,-3.625,-3.6035,-3.6016,-3.6016,-3.5547,-3.4668,-3.3398,-3.2598,-3.2148,-3.1699,-3.1269,-3.0898,-3.0898,-3.0898,-3.0898,-3.0898,-3.0898,-3.0898,-3.0898,-3.0898,-3.082,-3.0351,-2.9922,-2.9492,-2.9062,-2.8633,-2.8301,-2.8301,-2.8301,-2.8301,-2.8301,-2.7988,-2.7728,-2.7728,-2.7344,-2.7012,-2.7012,-2.7012,-2.6992,-2.6973,-2.6641,-2.6211,-2.5732,-2.5332,-2.4812,-2.3945,-2.3769,-2.3633,-2.3159,-2.3081,-2.2925,-2.2559,-2.2129,-2.1875,-2.1875,-2.1875,-2.1875,-2.1875,-2.1875,-2.1855,-2.1855,-2.1855,-2.1855,-2.1855,-2.1855,-2.1641,-2.1171,-2.1171,-2.0996,-2.0566,-2.0586,-2.0605,-2.0586,-2.0605,-2.0605,-2.6836,-2.7949,-2.9336,-3.0215,-3.1504,-3.2949,-3.4394,-3.5156,-3.5742,-3.6328,-3.6113,-3.5762,-3.5605,-3.5469,-3.5644,-3.6523,-3.7031,-3.7461,-3.7871,-3.7676,-3.6816,-3.4941,-3.4707,-3.4316,-3.334,-3.4805,-3.6348,-3.7637,-3.7598,-3.7812,-3.8535,-3.8301,-3.8203,-3.8359,-3.793,-3.7519,-3.709,-3.6934,-3.6582,-3.6016,-3.543,-3.498,-3.4648,-3.3379,-3.2559,-3.2148,-3.1699,-3.1269,-3.0898,-3.0898,-3.0898,-3.0898,-3.0898,-3.0898,-3.0898,-3.0898,-3.0898,-3.0859,-3.0703,-3.0176,-2.959,-2.9726,-2.9101,-2.834,-2.8633,-2.8516,-2.8301,-2.8301,-2.8184,-2.8086,-2.8086,-2.7969,-2.7871,-2.7871,-2.7656,-2.7441,-2.7441,-2.6894,-2.6348,-2.6191,-2.5566,-2.5028,-2.4687,-2.416,-2.3633,-2.3159,-2.3101,-2.2945,-2.2559,-2.2383,-2.2305,-2.2305,-2.2305,-2.2305,-2.2305,-2.2305,-2.2187,-2.1894,-2.1894,-2.1894,-2.1894,-2.1894,-2.1816,-2.166,-2.166,-2.1445,-2.1016,-2.1016,-2.1016,-2.0996,-2.0703,-2.0723,-2.7988,-2.9492,-3.1113,-3.1973,-3.3164,-3.4414,-3.5547,-3.5664,-3.5547,-3.5508,-3.4707,-3.3867,-3.3418,-3.2988,-3.3223,-3.4824,-3.5332,-3.5976,-3.7285,-3.6934,-3.6055,-3.4707,-3.4375,-3.3867,-3.2949,-3.4101,-3.5391,-3.6523,-3.6894,-3.7441,-3.8301,-3.8223,-3.8281,-3.8574,-3.8008,-3.7578,-3.7305,-3.6992,-3.6562,-3.6016,-3.5117,-3.4707,-3.4668,-3.3535,-3.2793,-3.2363,-3.1934,-3.1504,-3.1094,-3.0957,-3.0898,-3.0898,-3.0898,-3.0898,-3.0898,-3.0898,-3.0898,-3.0859,-3.0703,-3.0273,-2.9805,-2.9941,-2.9414,-2.8789,-2.9062,-2.8848,-2.8516,-2.8516,-2.8398,-2.832,-2.8476,-2.8516,-2.8555,-2.8711,-2.8418,-2.8125,-2.8125,-2.7441,-2.6797,-2.6641,-2.6035,-2.5497,-2.5165,-2.4355,-2.3691,-2.3418,-2.3198,-2.3003,-2.2773,-2.2691,-2.2691,-2.2691,-2.2691,-2.2691,-2.2691,-2.2691,-2.2617,-2.2363,-2.2344,-2.2344,-2.2344,-2.2344,-2.2266,-2.2109,-2.2109,-2.1894,-2.1465,-2.1465,-2.1465,-2.1465,-2.1172,-2.1191,-2.9902,-3.1348,-3.2559,-3.3359,-3.4492,-3.543,-3.5391,-3.498,-3.4355,-3.3496,-3.2266,-3.1211,-3.0781,-3.0391,-3.0781,-3.3008,-3.3437,-3.4238,-3.6426,-3.5332,-3.459,-3.5332,-3.4336,-3.373,-3.4062,-3.4101,-3.4473,-3.5351,0.0,-3.7031,-3.791,-3.8359,-3.8574,-3.8574,-3.7773,-3.7324,-3.7305,-3.6445,-3.6016,-3.6016,-3.5117,-3.4707,-3.4668,-3.3809,-3.3184,-3.2773,-3.2383,-3.1934,-3.1484,-3.1094,-3.0918,-3.0898,-3.0898,-3.0898,-3.0898,-3.0898,-3.0898,-3.082,-3.0391,-3.0215,-3.0137,-2.9766,-2.9665,-2.957,-2.959,-2.9297,-2.8945,-2.8945,-2.8672,-2.8437,-2.8848,-2.8945,-2.9062,-2.9473,-2.9238,-2.8926,-2.8926,-2.8262,-2.7591,-2.7129,-2.6699,-2.6113,-2.5262,-2.4375,-2.3809,-2.3789,-2.3418,-2.3101,-2.3101,-2.3101,-2.3101,-2.3101,-2.3101,-2.3101,-2.3101,-2.3101,-2.3101,-2.3101,-2.3101,-2.3101,-2.3101,-2.3101,-2.2906,-2.2559,-2.2539,-2.2344,-2.1914,-2.1914,-2.1914,-2.1914,-2.1894,-2.1894,-3.2129,-3.3789,-3.5098,-3.5312,-3.5605,-3.5781,-3.5469,-3.4297,-3.3027,-3.2187,-3.0469,-2.8887,-2.8144,-2.8437,-2.9609,-3.209,-3.3555,-3.5137,-3.7305,-3.75,-3.7031,-3.5976,-3.584,-3.5508,-3.4629,-3.4531,-3.4902,0.0,-3.6055,-3.6836,-3.832,-3.8516,-3.8574,-3.8574,-3.8047,-3.7617,-3.7305,-3.6445,-3.6016,-3.6016,-3.5117,-3.4707,-3.4668,-3.3809,-3.3184,-3.2793,-3.2676,-3.2207,-3.1504,-3.1406,-3.1172,-3.0898,-3.0898,-3.0898,-3.0898,-3.0898,-3.0898,-3.0879,-3.0762,-3.0488,-3.0234,-3.0469,-3.0117,-2.9685,-2.9941,-2.9746,-2.9394,-2.9394,-2.9316,-2.9277,-2.9375,-2.9394,-2.9434,-2.9551,-2.9238,-2.8926,-2.8926,-2.8262,-2.7689,-2.7519,-2.6894,-2.6113,-2.5262,-2.4609,-2.416,-2.3828,-2.3418,-2.3101,-2.3101,-2.3101,-2.3101,-2.3101,-2.3101,-2.3101,-2.3101,-2.3101,-2.3101,-2.3101,-2.3101,-2.3101,-2.3101,-2.3101,-2.3042,-2.2945,-2.2945,-2.273,-2.2363,-2.2363,-2.2363,-2.2344,-2.2031,-2.2051,-3.4648,-3.584,-3.6582,-3.6582,-3.6152,-3.5488,-3.4473,-3.291,-3.125,-2.9824,-2.8125,-2.668,-2.5996,-2.6426,-2.7715,-3.0312,-3.2187,-3.418,-3.6738,-3.7305,-3.7305,-3.6894,-3.6914,-3.666,-3.5918,-3.584,-3.6133,-3.6797,-3.6523,-3.6894,-3.8223,-3.8476,-3.8496,-3.8301,-3.7871,-3.7363,-3.6738,-3.625,-3.6016,-3.6016,-3.5117,-3.4707,-3.4668,-3.3809,-3.3301,-3.3066,0.0,-3.2519,-3.207,-3.1875,-3.1543,-3.1172,-3.1172,-3.1055,-3.0898,-3.0898,-3.0898,-3.0898,-3.0898,-3.0723,-3.0547,-3.0801,-3.0547,-3.0195,-3.043,-3.0195,-2.9844,-2.9844,-2.9707,-2.9665,-2.9805,-2.9844,-2.9902,-3.0098,-2.9668,-2.9199,-2.9199,-2.8535,-2.7891,-2.7748,-2.6973,-2.623,-2.5742,-2.5117,-2.4551,-2.4121,-2.3711,-2.3315,-2.312,-2.3101,-2.3101,-2.3101,-2.3101,-2.3101,-2.3101,-2.3101,-2.3101,-2.3101,-2.3101,-2.3101,-2.3101,-2.3101,-2.3101,-2.3101,-2.3101,-2.2984,-2.275,-2.275,-2.275,-2.2773,-2.2539,-2.2559,-3.7109,-3.7559,-3.7519,-3.7402,-3.6328,-3.4824,-3.3027,-3.1191,-2.9277,-2.7187,-2.5762,-2.4766,-2.4316,-2.4707,-2.5957,-2.8652,-3.0449,-3.2637,-3.582,-3.623,-3.6641,-3.7871,-3.7695,-3.7461,-3.7461,-3.7422,-3.7559,-3.7969,-3.7285,-3.7187,-3.7969,-3.8359,-3.8359,-3.7851,-3.7441,-3.6836,-3.6035,-3.6016,-3.6016,-3.6016,-3.5117,-3.4707,-3.4668,-3.3809,-3.3418,-3.3398,0.0,0.0,-3.2773,-3.2402,-3.1953,-3.1523,-3.1523,-3.1269,-3.0898,-3.0898,-3.0898,-3.0898,-3.0898,-3.0898,-3.0898,-3.0898,-3.0898,-3.0898,-3.0898,-3.0605,-3.0293,-3.0293,-3.0019,-2.9824,-3.0195,-3.0293,-3.0391,-3.0801,-3.0254,-2.9704,-2.9646,-2.8906,-2.8164,-2.7806,-2.707,-2.6523,-2.6406,-2.5703,-2.5,-2.457,-2.4102,-2.3652,-2.3237,-2.314,-2.3101,-2.3101,-2.3101,-2.3101,-2.3101,-2.3101,-2.3101,-2.3101,-2.3101,-2.3101,-2.3101,-2.3101,-2.3101,-2.3101,-2.3101,-2.3101,-2.3101,-2.3101,-2.3101,-2.3101,-2.3101,-2.3101,-3.8594,-3.8867,-3.8691,-3.7988,-3.6309,-3.4277,-3.2207,-2.9844,-2.765,-2.5781,-2.4668,-2.3887,-2.3393,-2.4297,-2.6202,-2.9434,-3.084,-3.293,-3.7012,-3.7285,-3.7422,-3.8359,-3.8398,-3.8359,-3.8359,-3.8027,-3.8008,-3.8418,-3.7988,-3.793,-3.8437,-3.8535,-3.8223,-3.7422,-3.6992,-3.6543,-3.6035,-3.6016,-3.6016,-3.6016,-3.5117,-3.4707,-3.4668,-3.3809,-3.3418,-3.3418,-3.334,0.0,-3.2793,-3.2715,-3.2226,-3.1523,-3.1523,-3.1269,-3.0898,-3.0898,-3.0898,-3.0898,-3.0898,-3.0898,-3.0898,-3.0898,-3.0898,-3.0898,-3.0898,-3.084,-3.0762,-3.0762,-3.0723,-3.0684,-3.0762,-3.0762,-3.0801,-3.0879,-3.0488,-3.0,-2.9648,-2.8906,-2.8164,-2.7806,-2.7591,-2.7278,-2.6504,-2.5957,-2.5469,-2.5019,-2.4297,-2.3769,-2.3691,-2.3315,-2.3101,-2.3101,-2.3101,-2.3101,-2.3101,-2.3101,-2.3101,-2.3101,-2.3101,-2.3101,-2.3101,-2.3101,-2.3101,-2.3101,-2.3101,-2.3101,-2.3101,-2.3101,-2.3101,-2.3101,-2.3101,-2.3101,-4.0,-3.9902,-3.9297,-3.8203,-3.5957,-3.3359,-3.0762,-2.8359,-2.6172,-2.4414,-2.373,-2.3379,-2.314,-2.4199,-2.5732,-2.7578,-2.8984,-3.1113,-3.4746,-3.5469,-3.6269,-3.8027,-3.8437,-3.8574,-3.8574,-3.8379,-3.8359,-3.8555,-3.8379,-3.8359,-3.8555,-3.8144,-3.7715,-3.7305,-3.666,-3.623,-3.6016,-3.6016,-3.6016,-3.6016,-3.5117,-3.4707,-3.4668,-3.3809,-3.3418,-3.3418,-3.3418,0.0,-3.3125,-3.3125,-3.2754,-3.2168,-3.1934,-3.1601,-3.1191,-3.0976,-3.0898,-3.0898,-3.0898,-3.0898,-3.0898,-3.0898,-3.0898,-3.0898,-3.0898,-3.0898,-3.0898,-3.0898,-3.0898,-3.0898,-3.0898,-3.0898,-3.0898,-3.0898,-3.0371,-2.9746,-2.9316,-2.873,-2.8242,-2.8027,-2.7812,-2.7591,-2.7129,-2.6504,-2.5918,-2.5488,-2.4863,-2.4375,-2.4141,-2.3926,-2.3588,-2.314,-2.3101,-2.3101,-2.3101,-2.3101,-2.3101,-2.3101,-2.3101,-2.3101,-2.3101,-2.3101,-2.3101,-2.3101,-2.3101,-2.3101,-2.3101,-2.3101,-2.3101,-2.3101,-2.3101,-2.3101,-4.082,-4.0469,-3.957,-3.8262,-3.5586,-3.2519,-2.959,-2.7187,-2.5089,-2.3432,-2.3101,-2.3101,-2.3101,-2.3965,-2.4922,-2.5742,-2.7012,-2.9023,-3.2324,-3.3535,-3.5,-3.75,-3.8262,-3.8793,-3.9136,-3.9188,-3.9188,-3.9188,-3.8694,-3.8437,-3.8437,-3.7715,-3.7266,-3.7168,-3.6426,-3.6016,-3.6016,-3.5937,-3.5879,-3.5879,-3.498,-3.4609,-3.4668,-3.3809,-3.3476,-3.3555,-3.3457,0.0,0.0,-3.3418,-3.3125,-3.2637,-3.2402,-3.1934,-3.1348,-3.1113,-3.0976,-3.0898,-3.0898,-3.0898,-3.0898,-3.0898,-3.0898,-3.0898,-3.0898,-3.0898,-3.0898,-3.0898,-3.0898,-3.0898,-3.0898,-3.0898,-3.0898,-3.0898,-3.0273,-2.9609,-2.9277,-2.8789,-2.8437,-2.8437,-2.8086,-2.7826,-2.7728,-2.7031,-2.6367,-2.5937,-2.541,-2.4988,-2.4609,-2.4473,-2.416,-2.3432,-2.3296,-2.3237,-2.3237,-2.314,-2.3101,-2.3101,-2.3101,-2.3101,-2.3101,-2.3101,-2.3101,-2.3101,-2.3101,-2.3101,-2.3101,-2.3101,-2.3101,-2.3101,-2.3101,-2.3101,-4.0449,-4.0254,-3.957,-3.8262,-3.5371,-3.2168,-2.9512,-2.6953,-2.4746,-2.3374,-2.3101,-2.3101,-2.3101,-2.3198,-2.3939,-2.5996,-2.6465,-2.8027,-3.2207,-3.3535,-3.4883,-3.709,-3.8066,-3.9281,-4.0921,-4.1063,-4.1063,-4.1063,-3.9097,0.0,-3.7988,-3.7539,-3.7129,-3.6738,-3.6269,-3.6016,-3.6016,-3.5644,-3.5449,-3.543,-3.4551,-3.4336,-3.4668,-3.3809,-3.3633,-3.3984,-3.3594,0.0,0.0,-3.3418,-3.2949,-3.2266,-3.2598,-3.2012,-3.0996,-3.1328,-3.1211,-3.0898,-3.0898,-3.0898,-3.0898,-3.0898,-3.0898,-3.0898,-3.0898,-3.0898,-3.0898,-3.0898,-3.0898,-3.0898,-3.0898,-3.0898,-3.0898,-3.0898,-3.0508,-3.0137,-3.0078,-2.9434,-2.8867,-2.8867,-2.8516,-2.8125,-2.7787,-2.7266,-2.6816,-2.6387,-2.5605,-2.5106,-2.5067,-2.4668,-2.4394,-2.4316,-2.3965,-2.373,-2.373,-2.3379,-2.3101,-2.3101,-2.3101,-2.3101,-2.3101,-2.3101,-2.3101,-2.3101,-2.3101,-2.3101,-2.3101,-2.3101,-2.3101,-2.3101,-2.3101,-2.3101,-3.9746,-4.0019,-3.9512,-3.7949,-3.4766,-3.1426,-2.9082,-2.6348,-2.4082,-2.3257,-2.3101,-2.3101,-2.3101,-2.3101,-2.3639,-2.5193,-2.5202,-2.6221,-2.9432,-3.0443,-3.238,-3.6541,-3.6841,-3.8364,-4.2579,-4.1961,-4.1622,-4.2457,-4.0689,0.0,-3.871,-3.7599,-3.6836,-3.668,-3.625,-3.6016,-3.6016,-3.5605,-3.5391,-3.5391,-3.4492,-3.416,-3.4297,-3.3691,-3.3516,-3.3672,-3.3496,0.0,0.0,-3.3418,-3.3223,-3.291,-3.2832,-3.248,-3.1992,-3.1641,-3.1406,-3.123,-3.0976,-3.0898,-3.0898,-3.0898,-3.0898,-3.0898,-3.0898,-3.0898,-3.0898,-3.0898,-3.0898,-3.0898,-3.0898,-3.0898,-3.0898,-3.0898,-3.0527,-3.0195,-3.0195,-2.9726,-2.9238,-2.8965,-2.8789,-2.8535,-2.8125,-2.7695,-2.7266,-2.6836,-2.625,-2.5762,-2.5508,-2.5312,-2.5167,-2.5167,-2.459,-2.416,-2.416,-2.4004,-2.3789,-2.3555,-2.3535,-2.3418,-2.3101,-2.3101,-2.3101,-2.3101,-2.3101,-2.3101,-2.3101,-2.3101,-2.3101,-2.3101,-2.3101,-2.3101,-3.8047,-3.8848,-3.8769,-3.7285,-3.4101,-3.0801,-2.875,-2.5957,-2.3672,-2.3179,-2.3101,-2.3101,-2.3101,-2.3101,-2.3474,-2.4617,-2.4682,-2.5352,-2.7654,-2.8929,-3.0979,-3.4608,-3.5473,-3.7512,-4.1923,-4.2228,-4.2653,-4.4028,-4.2362,0.0,-4.0049,-3.8241,-3.7015,-3.6484,-3.6172,-3.5957,-3.584,-3.541,-3.5137,-3.5,-3.4238,-3.3945,-3.4062,-3.3613,-3.3496,-3.3613,0.0,0.0,0.0,-3.3418,-3.3281,-3.3047,-3.3008,-3.2754,-3.2383,-3.2031,-3.1816,-3.1641,-3.123,-3.1074,-3.1055,-3.0937,-3.0898,-3.0898,-3.0898,-3.0898,-3.0898,-3.0898,-3.0898,-3.0898,-3.0898,-3.0898,-3.0898,-3.0898,-3.0644,-3.041,-3.041,-3.0059,-2.9668,-2.9355,-2.9101,-2.8828,-2.8535,-2.8027,-2.7519,-2.709,-2.666,-2.623,-2.5752,-2.5693,-2.5693,-2.5693,-2.5128,-2.4746,-2.4629,-2.4492,-2.4297,-2.4004,-2.3867,-2.3652,-2.3296,-2.3159,-2.3159,-2.3276,-2.3159,-2.3159,-2.332,-2.3159,-2.3101,-2.3101,-2.3101,-2.3101,-3.5078,-3.6367,-3.7109,-3.625,-3.3437,-3.0449,-2.8691,-2.5957,-2.3672,-2.3179,-2.3101,-2.3101,-2.3101,-2.3101,-2.3474,-2.4617,-2.5143,-2.5996,-2.7737,-3.0177,-3.1603,-3.105,-3.4337,-3.7089,-3.8059,-4.1724,-4.4596,-4.5846,-4.386,0.0,-4.179,-3.9754,-3.7775,-3.6084,-3.6016,-3.582,-3.541,-3.4941,-3.4492,-3.4082,-3.3633,-3.3652,-3.4062,-3.3613,-3.3652,0.0,0.0,0.0,0.0,-3.3418,-3.293,-3.2266,-3.3086,-3.2637,-3.1641,-3.2461,-3.2519,-3.215,-3.166,-3.1504,-3.1445,-3.1035,-3.0898,-3.0898,-3.0898,-3.0898,-3.0898,-3.0898,-3.0898,-3.0898,-3.0898,-3.0898,-3.0898,-3.0898,-3.0879,-3.0879,-3.0879,-3.0527,-3.0195,-3.0176,-2.9492,-2.8926,-2.8906,-2.8223,-2.7519,-2.709,-2.666,-2.623,-2.5752,-2.5693,-2.5693,-2.5693,-2.5674,-2.5547,-2.5145,-2.4668,-2.4414,-2.4414,-2.4023,-2.3789,-2.3789,-2.3379,-2.334,-2.3769,-2.3359,-2.3315,-2.3789,-2.3315,-2.3101,-2.3101,-2.3101,-2.3101,-3.2854,-3.3629,-3.3516,-3.2363,-3.0137,-2.7949,-2.6797,-2.4836,-2.3257,-2.312,-2.3101,-2.3101,-2.3101,-2.3101,-2.3771,-2.5754,-2.6205,-2.6876,-2.856,-3.1108,-3.3298,-3.4726,-4.0344,-4.3765,-4.2834,-4.5873,-4.7172,-4.5545,-4.4854,0.0,-4.3175,-4.0214,-3.8353,-3.7755,-3.6606,-3.582,-3.5391,-3.6017,-3.5618,-3.4127,-3.4772,-3.4568,-3.3633,-3.3496,0.0,0.0,0.0,0.0,0.0,-3.3418,-3.3262,-3.3027,-3.3008,-3.293,-3.2754,-3.2148,-3.2031,-3.207,-3.1348,-3.1094,-3.1074,-3.0937,-3.0898,-3.0898,-3.0898,-3.0898,-3.0898,-3.0898,-3.0898,-3.0898,-3.0898,-3.0898,-3.0898,-3.0898,-3.0898,-3.0898,-3.0898,-3.0781,-3.0586,-3.0254,-2.9746,-2.9277,-2.8965,-2.8457,-2.7949,-2.7519,-2.709,-2.666,-2.623,-2.5918,-2.5693,-2.5693,-2.5693,-2.5635,-2.5527,-2.5343,-2.5195,-2.4883,-2.4773,-2.4531,-2.4238,-2.4082,-2.4082,-2.4219,-2.4082,-2.4082,-2.4219,-2.4082,-2.4004,-2.3958,-2.3374,-2.3257,-3.1042,-3.162,-3.1436,-3.0542,-2.8562,-2.6602,-2.5849,-2.4348,-2.3212,-2.3627,-2.3757,-2.3757,-2.3757,-2.4102,-2.4757,-2.5808,-2.6356,-2.7278,-2.9079,-3.1743,-3.4796,-3.8372,-4.2045,-4.461,-4.5342,-4.6526,-4.6947,-4.6269,0.0,0.0,-4.473,-4.2074,-4.0515,-4.0515,-3.8055,-3.6795,-3.7047,-3.7509,-3.7022,-3.5644,-3.5768,-3.5273,-3.4258,-3.365,0.0,0.0,0.0,0.0,0.0,-3.4326,-3.4389,-3.4943,-3.4675,-3.4552,-3.4512,-3.3316,-3.2935,-3.2875,-3.1604,-3.1133,-3.1094,-3.0937,-3.0898,-3.0995,-3.1556,-3.1325,-3.0898,-3.0898,-3.0898,-3.0898,-3.0898,-3.0898,-3.0898,-3.0898,-3.0898,-3.0898,-3.0898,-3.0898,-3.0801,-3.0508,-2.998,-2.9492,-2.9199,-2.8672,-2.8144,-2.7787,-2.7441,-2.7109,-2.668,-2.6387,-2.6103,-2.5996,-2.5977,-2.5869,-2.5693,-2.5693,-2.5577,-2.5332,-2.5156,-2.4988,-2.4668,-2.4512,-2.4492,-2.4668,-2.4492,-2.4492,-2.4668,-2.4492,-2.4414,-2.4414,-2.3822,-2.3769,0.0,-3.0321,-3.0327,-3.0338,-2.8279,-2.6202,-2.5741,-2.4343,0.0,-2.4467,-2.4745,-2.4787,-2.4829,-2.5735,-2.6174,-2.5168,-2.5911,-2.7337,-2.9398,-3.2276,-3.6251,-4.1758,-4.0676,-4.1191,-4.5662,-4.4625,-4.484,-4.7495,0.0,0.0,-4.6351,-4.462,-4.3707,-4.3807,-4.0135,-3.8593,-3.9702,-3.927,-3.8777,-3.8164,-3.682,-3.6112,-3.5928,-3.4405,0.0,0.0,0.0,0.0,0.0,-3.5986,-3.607,-3.7498,-3.7336,-3.7068,-3.656,-3.5553,-3.4854,-3.4101,-3.2236,-3.1524,-3.1406,-3.1133,-3.1054,-3.1325,-3.2815,-3.215,-3.0937,-3.0995,-3.0995,-3.0898,-3.0898,-3.0898,-3.0898,-3.0898,-3.0898,-3.0957,-3.1054,-3.0937,-3.0957,-3.117,-3.0347,-2.9626,-2.9738,-2.8976,-2.8164,-2.7826,-2.7728,-2.7519,-2.7109,-2.7031,-2.6855,-2.6426,-2.6426,-2.625,-2.5732,-2.5693,-2.5693,-2.5693,-2.5352,-2.5117,-2.5117,-2.4727,-2.4707,-2.5145,-2.4707,-2.4707,-2.5165,-2.4668,-2.4473,-2.4512,-2.4453,-2.4434,-2.9535,0.0,-2.7875,-2.7546,-2.6296,-2.5145,0.0,-2.4015,-2.3188,-2.343,-2.4168,-2.4935,-2.5335,-2.5995,-2.6596,-2.688,-2.7361,-2.8318,-3.0331,-3.4285,-3.8898,-4.4154,-4.427,-4.4025,-4.4213,-4.6237,-4.706,0.0,0.0,-4.6903,-4.6351,-4.462,-4.412,-4.5052,-4.2492,-4.0616,-3.9702,-4.0361,-3.9831,-3.8223,-3.9053,-3.8794,-3.7604,-3.6812,0.0,0.0,0.0,0.0,-3.7523,-3.706,-3.6875,-3.6786,-3.6384,-3.6407,-3.6506,-3.5599,-3.4661,-3.3738,-3.3012,-3.1966,-3.1191,-3.2248,-3.2587,-3.2871,-3.4348,-3.2985,-3.1112,-3.2264,-3.1767,-3.0898,-3.0898,-3.0898,-3.0898,-3.0898,-3.0898,-3.1228,-3.2358,-3.171,-3.1556,-3.381,-3.1731,-2.9941,-3.1059,-2.9641,-2.8262,-2.8164,-2.7924,-2.7689,-2.7519,-2.7226,-2.6855,-2.6426,-2.668,-2.6562,-2.5752,-2.5693,-2.5693,-2.5693,-2.5596,-2.5586,-2.5586,-2.544,-2.5421,-2.5586,-2.544,-2.5421,-2.5586,-2.5137,-2.5098,-2.5362,-2.4727,-2.459,-2.9482,-2.8707,-2.7502,-2.7267,-2.6005,-2.4787,-2.4787,-2.393,-2.3256,-2.3757,-2.4382,-2.4914,-2.5188,-2.6349,-2.7095,-2.6719,-2.7909,-3.0094,-3.3638,-3.7901,-4.1855,-4.53,-4.5698,-4.5507,0.0,-4.6316,-4.6822,0.0,0.0,-4.6627,-4.6326,-4.5157,-4.4825,-4.5497,-4.3826,-4.248,-4.1626,-4.189,-4.1456,-4.0419,-4.0534,-3.9988,-3.8884,-3.7853,-3.7798,0.0,0.0,0.0,-3.909,-3.8099,-3.8152,-3.8721,-3.8178,-3.8154,-3.8233,-3.7098,-3.6145,-3.5346,-3.4435,-3.3586,-3.3042,-3.3866,-3.4125,-3.4403,-3.589,-3.4736,-3.2928,-3.3077,-3.2035,-3.1054,-3.171,-3.1383,-3.1228,-3.2607,-3.2379,-3.2322,-3.381,-3.2985,-3.2587,-3.4847,-3.2934,-3.1146,-3.1952,-3.0846,-2.9581,-2.8721,-2.8398,-2.8164,-2.7988,-2.7754,-2.7441,-2.7012,-2.7187,-2.7051,-2.6337,-2.6328,-2.6103,-2.5713,-2.5693,-2.5693,-2.5693,-2.5693,-2.5693,-2.5693,-2.5693,-2.5693,-2.5693,-2.5488,-2.5508,-2.5674,-2.5206,-2.5156,-2.9446,-2.9123,-2.8393,-2.8355,-2.6876,-2.5401,-2.5336,-2.4296,-2.3671,-2.483,-2.4914,-2.4893,-2.5126,-2.7016,-2.7911,-2.6193,-2.854,-3.2531,-3.8171,-4.1815,-4.4337,-4.5728,-4.6072,0.0,-4.6357,-4.5906,0.0,0.0,0.0,-4.6175,-4.6175,-4.5648,-4.5321,-4.5221,-4.4292,-4.3765,-4.3689,-4.3212,-4.2936,-4.2861,-4.1493,-4.0554,-3.9994,-3.8515,-3.8398,0.0,0.0,0.0,-4.1071,-3.9213,-3.9477,-4.1,-4.0576,-4.04,-4.0217,-3.8975,-3.8072,-3.7293,-3.5836,-3.5288,-3.5343,-3.5563,-3.5617,-3.589,-3.7423,-3.6811,-3.5398,-3.4125,-3.253,-3.1498,-3.2815,-3.1977,-3.1614,-3.4314,-3.4013,-3.3564,-3.5288,-3.4459,-3.3957,-3.5617,-3.423,-3.2806,-3.3026,-3.2368,-3.1262,-2.959,-2.9168,-2.8867,-2.8437,-2.8398,-2.8203,-2.7767,-2.7767,-2.7559,-2.7051,-2.707,-2.6777,-2.5927,-2.5888,-2.5888,-2.5888,-2.583,-2.581,-2.5888,-2.5888,-2.5888,-2.5888,-2.5888,-2.5888,-2.5888,-2.5888,-2.5888,-2.9243,-2.9772,-2.9687,-2.9594,-2.8907,-2.8158,-2.7696,-2.6025,-2.4872,-2.6005,-2.5462,-2.5253,-2.6641,-2.8727,-2.9555,-2.7597,-3.1197,-3.6356,-4.2472,-4.3802,-4.4666,-4.6114,0.0,-4.6661,-4.5143,0.0,0.0,0.0,0.0,-4.5623,-4.5623,-4.507,-4.4543,-4.4066,-4.389,-4.3589,-4.3112,-4.3011,-4.2735,-4.2338,-4.2038,-4.1629,-4.1051,-4.0364,-4.0339,0.0,0.0,-4.0202,-4.0573,-4.0262,-4.0065,-3.9948,-3.9848,-3.9823,-3.9823,-3.959,-3.8656,-3.7293,-3.5836,-3.5288,-3.5508,-3.6757,-3.7133,-3.7423,-3.8921,-3.8348,-3.7133,-3.6918,-3.488,-3.2794,-3.3021,-3.1977,-3.1325,-3.3021,-3.3247,-3.3845,-3.6595,-3.5999,-3.5781,-3.8477,-3.6467,-3.4657,-3.5911,-3.3697,-3.1671,-3.1391,-3.0264,-2.9316,-2.8887,-2.8828,-2.8516,-2.7806,-2.7988,-2.7871,-2.709,-2.7344,-2.7363,-2.6855,-2.6816,-2.6816,-2.6816,-2.6484,-2.6445,-2.6816,-2.6816,-2.6816,-2.6816,-2.6816,-2.6816,-2.6816,-2.6816,-2.6816,-2.7732,-2.8701,-2.9277,-2.881,-2.8858,-2.8965,-2.8627,-2.73,-2.6383,-2.7222,-2.6705,-2.6579,-2.7936,-2.9945,-3.2031,-3.3852,-3.7321,-4.0829,-4.4028,-4.4988,-4.5493,0.0,0.0,-4.673,-4.5436,0.0,0.0,0.0,0.0,0.0,-4.5045,-4.4493,-4.4066,-4.3815,-4.3514,-4.3087,-4.259,-4.259,-4.2464,-4.2213,-4.1856,-4.143,-4.0824,-4.0626,-4.0501,-4.0425,0.0,-4.0074,-4.0074,-4.0074,-3.9923,-3.9697,-3.9697,-3.9697,-3.9697,-3.9697,-3.9258,-3.8582,-3.7926,-3.766,-3.782,-3.8477,-3.8687,-3.8792,-3.9465,-3.9233,-3.8687,-3.8687,-3.6541,-3.4459,-3.5266,-3.4403,-3.3866,-3.6108,-3.6054,-3.6085,-3.8243,-3.753,-3.7156,-3.931,-3.7786,-3.6407,-3.7044,-3.5878,-3.4504,-3.3453,-3.207,-3.0852,-3.016,-3.0079,-2.9514,-2.8172,-2.8833,-2.8931,-2.7787,-2.8533,-2.8508,-2.7102,-2.7012,-2.7012,-2.7012,-2.6836,-2.6816,-2.7012,-2.7012,-2.7012,-2.7012,-2.7012,-2.7012,-2.7012,-2.7012,-2.7012,-2.671,-2.7809,-2.871,-2.8282,-2.8498,-2.8813,-2.9187,-2.852,-2.8157,-2.9101,-2.8854,-2.8696,-2.953,-3.1297,-3.439,-3.964,-4.2382,-4.4344,-4.5588,-4.6527,-4.6948,-4.6697,-4.7178,-4.7146,0.0,0.0,0.0,0.0,0.0,0.0,-4.4443,-4.3915,-4.3614,-4.3614,-4.3062,-4.264,-4.2213,-4.1961,-4.1835,-4.181,-4.1354,-4.0852,-4.0325,-4.0325,-4.0099,-3.9697,-3.9697,-3.9697,-3.9697,-3.9697,-3.9697,-3.9697,-3.9697,-3.9697,-3.9697,-3.9697,-3.9697,-3.9697,-3.9697,-3.9697,-3.9697,-3.9697,-3.9697,-3.9697,-3.9697,-3.9697,-3.9697,-3.9697,-3.8084,-3.6487,-3.7293,-3.6433,-3.5945,-3.8582,-3.8295,-3.7902,-3.9362,-3.8792,-3.8348,-3.9465,-3.8792,-3.8031,-3.8031,-3.7743,-3.6991,-3.5527,-3.3999,-3.2788,-3.2009,-3.1582,-3.0698,-2.912,-2.9867,-3.014,-2.9323,-2.9911,-2.9725,-2.833,-2.7467,-2.7109,-2.7305,-2.7226,-2.7207,-2.7305,-2.7324,-2.7324,-2.7324,-2.7324,-2.7324,-2.7324,-2.7324,-2.7324,-2.7409,-2.823,-2.8632,-2.9432,-2.8503,-2.7939,-2.9783,-2.9889,-3.024,-3.2394,-3.2339,-3.1895,-3.1964,-3.3108,-3.5964,-4.1828,-4.3517,-4.5278,-4.8746,0.0,-4.9325,-4.9321,-4.8949,-4.8221,0.0,0.0,0.0,0.0,0.0,0.0,-4.3865,-4.3338,-4.3037,-4.3037,-4.2564,-4.2263,-4.2213,-4.1153,-4.0626,-4.0626,-4.0601,-4.03,-3.9747,-3.9747,-3.9747,-3.9697,-3.9697,-3.9697,-3.9697,-3.9697,-3.9697,-3.9697,-3.9697,-3.9697,-3.9697,-3.9697,-3.9697,-3.9697,-3.9697,-3.9697,-3.9697,-3.9697,-3.9697,-3.9697,-3.9697,-3.9697,-3.9697,-3.9697,-3.9542,-3.9077,-3.7849,-3.6433,-3.5672,-3.7293,-3.7583,-3.7902,-3.9362,-3.9645,-3.9569,-3.9697,-3.9645,-3.9517,-3.9517,-3.84,-3.7453,-3.7299,-3.6039,-3.4933,-3.4397,-3.3138,-3.1944,-3.0988,-3.0905,-3.1263,-3.1971,-3.0979,-3.073,-3.1838,-2.8818,-2.7363,-2.8164,-2.7832,-2.7865,-2.8203,-2.8203,-2.8203,-2.8203,-2.8203,-2.8203,-2.8203,-2.8203,-2.8203,-2.4968,-2.6133,-2.7195,-2.6591,-2.6984,-2.8311,-3.1366,-3.2207,-3.3078,-3.5649,-3.6528,-3.6894,-3.685,-3.8118,-4.0128,-4.305,-4.548,-4.7394,-4.8422,-4.9138,-4.9339,-4.8636,-4.8083,0.0,0.0,0.0,0.0,0.0,0.0,0.0,-4.2785,-4.2258,-4.1957,-4.1957,-4.1756,-4.148,-4.1128,-4.0727,-4.035,-3.9998,-3.9998,-3.9898,-3.9697,-3.9697,-3.9697,-3.9697,-3.9697,-3.9697,-3.9697,-3.9697,-3.9697,-3.9697,-3.9697,-3.9697,-3.9697,-3.9697,-3.9697,-3.9697,-3.9697,-3.9697,-3.9697,-3.9697,-3.9697,-3.9697,-3.9697,-3.9697,-3.9697,-3.9697,-3.9697,-3.9569,-3.9025,-3.8477,-3.8214,-3.8739,-3.8868,-3.9025,-3.9569,-3.9697,-3.9697,-3.9697,-3.9697,-3.9697,-3.9697,-3.9258,-3.8868,-3.8868,-3.7583,-3.6517,-3.6057,-3.5435,-3.4381,-3.2633,-3.203,-3.2301,-3.3476,-3.2331,-3.2129,-3.3502,-3.1545,-3.0461,-3.0751,-3.0653,-3.0242,-2.9565,-2.9831,-2.9427,-2.8301,-2.8555,-2.8555,-2.8301,-2.8301,-2.8301,-2.3844,-2.5106,-2.6483,-2.5743,-2.6806,-2.9151,-3.3647,-3.4823,-3.5766,-3.8742,-3.9835,-4.0224,-4.0224,-4.1003,-4.2108,-4.3564,-4.6301,-4.8234,-4.8184,-4.8862,-4.8912,-4.7782,-4.7355,0.0,0.0,0.0,0.0,0.0,0.0,0.0,0.0,-4.153,-4.1275,-4.1275,-4.1125,-4.0902,-4.0526,-4.035,-4.0074,-3.9697,-3.9697,-3.9697,-3.9697,-3.9697,-3.9697,-3.9697,-3.9697,-3.9697,-3.9697,-3.9697,-3.9697,-3.9697,-3.9697,-3.9697,-3.9697,-3.9697,-3.9697,-3.9697,-3.9697,-3.9697,-3.9697,-3.9697,-3.9697,-3.9697,-3.9697,-3.9697,-3.9697,-3.9697,-3.9697,-3.9697,-3.9697,-3.9697,-3.9697,-3.9697,-3.9697,-3.9697,-3.9697,-3.9697,-3.9697,-3.9697,-3.9697,-3.9697,-3.9697,-3.9697,-3.9697,-3.9697,-3.8868,-3.8097,-3.7733,-3.7268,-3.6213,-3.4205,-3.3175,-3.3334,-3.5113,-3.3983,-3.3904,-3.5453,-3.4639,-3.3646,-3.2628,-3.2577,-3.2236,-3.146,-3.1451,-3.0979,-3.0081,-2.9995,-2.9995,-3.0081,-2.9741,-2.9627,-2.4787,-2.563,-2.6771,-2.7845,-2.854,-3.0514,-3.6589,-3.7569,-3.8214,-4.1625,-4.1793,-4.13,-4.13,-4.0874,-4.1254,-4.3438,-4.5673,-4.7506,-4.8586,-4.8761,-4.836,-4.7255,0.0,0.0,0.0,0.0,0.0,0.0,0.0,0.0,0.0,-4.1275,-4.1275,-4.1275,-4.0802,-4.0501,-4.0501,-3.9973,-3.9697,-3.9697,-3.9697,-3.9697,-3.9697,-3.9697,-3.9697,-3.9697,-3.9697,-3.9697,-3.9697,-3.9697,-3.9697,-3.9697,-3.9697,-3.9697,-3.9697,-3.9697,-3.9697,-3.9697,-3.9697,-3.9697,-3.9697,-3.9697,-3.9697,-3.9697,-3.9697,-3.9697,-3.9697,-3.9697,-3.9697,-3.9697,-3.9697,-3.9697,-3.9697,-3.9697,-3.9697,-3.9697,-3.9697,-3.9697,-3.9697,-3.9697,-3.9697,-3.9697,-3.9697,-3.9697,-3.9697,-3.9697,-3.9697,-3.9697,-3.9697,-3.84,-3.7073,-3.5924,-3.4285,-3.4318,-3.6992,-3.599,-3.601,-3.7866,-3.8015,-3.6574,-3.3372,-3.3247,-3.3472,-3.3975,-3.2897,-3.2875,-3.3997,-3.2875,-3.2897,-3.3975,-3.2852,-3.2622,-2.4658,-2.5675,-2.6992,-2.8321,-3.0019,-3.2224,-3.5482,-3.7015,-3.9164,-4.4131,-4.4053,-4.3062,-4.3062,-4.2936,-4.2911,-4.3187,-4.5095,-4.6677,-4.7004,-4.738,-4.7355,-4.6652,0.0,0.0,0.0,0.0,0.0,0.0,0.0,0.0,0.0,-4.04,-4.0174,-4.0174,-4.0023,-3.9948,-3.9948,-3.9772,-3.9697,-3.9697,-3.9697,-3.9697,-3.9697,-3.9697,-3.9697,-3.9697,-3.9697,-3.9697,-3.9697,-3.9697,-3.9697,-3.9697,-3.9697,-3.9697,-3.9697,-3.9697,-3.9697,-3.9697,-3.9697,-3.9697,-3.9697,-3.9697,-3.9697,-3.9697,-3.9697,-3.9697,-3.9697,-3.9697,-3.9697,-3.9697,-3.9697,-3.9697,-3.9697,-3.9697,-3.9697,-3.9697,-3.9697,-3.9697,-3.9697,-3.9697,-3.9697,-3.9697,-3.9697,-3.9697,-3.9697,-3.9697,-3.9697,-3.9697,-3.9697,-3.8961,-3.8333,-3.8012,-3.7167,-3.6874,-3.7715,-3.7394,-3.7419,-3.794,-3.8391,-3.7867,-3.6088,-3.6379,-3.5833,-3.434,-3.5016,-3.4739,-3.345,-3.375,-3.396,-3.3997,-3.3652,-3.3375,-2.4506,-2.5516,-2.6915,-2.874,-3.1351,-3.4305,-3.7692,-3.9578,-4.1871,-4.6384,-4.5773,-4.4468,-4.4468,-4.3915,-4.3589,-4.3915,-4.5296,-4.6376,-4.6602,-4.6928,-4.6853,0.0,0.0,0.0,0.0,0.0,0.0,0.0,0.0,0.0,0.0,-3.9873,-3.9697,-3.9697,-3.9697,-3.9697,-3.9697,-3.9697,-3.9597,-3.9371,-3.9371,-3.9245,-3.9019,-3.927,-3.9245,-3.9044,-3.927,-3.9496,-3.9697,-3.9697,-3.9697,-3.9697,-3.9697,-3.9697,-3.9697,-3.9697,-3.9697,-3.9697,-3.9697,-3.9697,-3.9697,-3.9697,-3.9697,-3.9697,-3.9697,-3.9697,-3.9697,-3.9697,-3.9697,-3.9697,-3.9697,-3.9697,-3.9697,-3.9697,-3.9697,-3.9697,-3.9697,-3.9697,-3.9697,-3.9697,-3.9697,-3.9697,-3.9697,-3.9697,-3.9697,-3.9697,-3.9697,-3.9697,-3.9697,-3.9396,-3.912,-3.8944,-3.8567,-3.8341,-3.8341,-3.8341,-3.8442,-3.8668,-3.8994,-3.8793,-3.7889,-3.8165,-3.7767,-3.6525,-3.6962,-3.675,-3.5765,-3.5902,-3.6067,-3.6242,-3.5765,-3.553,-2.4411,-2.527,-2.6781,-2.9501,-3.2848,-3.6773,-4.1643,-4.3625,-4.5179,-4.792,-4.6928,-4.5573,-4.5573,-4.4217,-4.3614,-4.5171,-4.5824,-4.6326,-4.6767,-4.6842,-4.6527,0.0,0.0,0.0,0.0,0.0,0.0,0.0,0.0,0.0,0.0,-3.9697,-3.9697,-3.9697,-3.9697,-3.9697,-3.9697,-3.9647,-3.9371,0.0,-3.8818,-3.8492,-3.7939,-3.8517,-3.8517,-3.804,-3.8617,-3.912,-3.9546,-3.9647,-3.9647,-3.9546,-3.9647,-3.9672,-3.9622,-3.9672,-3.9697,-3.9697,-3.9697,-3.9697,-3.9697,-3.9697,-3.9697,-3.9697,-3.9697,-3.9697,-3.9697,-3.9697,-3.9697,-3.9697,-3.9697,-3.9697,-3.9697,-3.9697,-3.9697,-3.9697,-3.9697,-3.9697,-3.9697,-3.9697,-3.9697,-3.9697,-3.9697,-3.9697,-3.9697,-3.9697,-3.9697,-3.9697,-3.9697,-3.9697,-3.9496,-3.8994,-3.8994,-3.8994,-3.8994,-3.8994,-3.917,-3.9672,-3.9697,-3.9471,-3.8969,-3.8994,-3.912,-3.9546,-3.8642,-3.8642,-3.9622,-3.8642,-3.8693,-3.9672,-3.8642,-3.8417,-2.4866,-2.5609,-2.7366,-3.2692,-3.6624,-3.9556,-4.073,-4.1874,-4.33,-4.5725,-4.6175,-4.6125,-4.6125,-4.5121,-4.4392,-4.4744,-4.492,-4.502,-4.5146,-4.5171,-4.507,0.0,0.0,0.0,0.0,0.0,0.0,0.0,0.0,0.0,-3.9697,-3.9697,-3.9697,-3.9697,-3.9697,-3.9697,-3.9697,-3.927,-3.8994,0.0,-3.8417,-3.7889,-3.7387,-3.7939,-3.8115,-3.804,-3.8617,-3.8668,-3.8442,-3.932,-3.917,-3.8442,-3.9346,-3.9421,-3.9094,-3.9546,-3.9697,-3.9697,-3.9697,-3.9697,-3.9697,-3.9697,-3.9697,-3.9697,-3.9697,-3.9697,-3.9697,-3.9697,-3.9697,-3.9697,-3.9697,-3.9697,-3.9697,-3.9697,-3.9697,-3.9697,-3.9697,-3.9697,-3.9697,-3.9697,-3.9697,-3.9697,-3.9697,-3.9697,-3.9697,-3.9697,-3.9697,-3.9697,-3.9697,-3.9697,-3.9647,-3.9521,-3.9521,-3.9521,-3.9521,-3.9521,-3.9572,-3.9697,-3.9697,-3.9647,-3.9521,-3.9521,-3.9145,-3.8391,-3.8994,-3.9245,-3.9044,-3.9245,-3.9446,-3.9697,-3.9446,-3.917,-2.4303,-2.5933,-2.8852,-3.5418,-3.8419,-3.996,-4.0768,-4.156,-4.2425,-4.3364,-4.4566,-4.5497,-4.5497,-4.502,-4.4618,-4.4618,-4.4618,-4.4618,-4.4618,-4.4392,-4.4141,0.0,0.0,0.0,0.0,0.0,0.0,0.0,0.0,-3.9572,-3.932,-3.9295,-3.917,-3.8894,-3.8894,-3.8894,-3.8894,-3.8592,-3.8316,-3.8065,-3.7764,-3.7337,-3.6857,-3.7086,-3.7362,-3.7638,-3.7939,-3.804,-3.804,-3.8642,-3.8542,-3.8065,-3.8642,-3.8894,-3.8944,-3.9195,-3.9471,-3.9697,-3.9697,-3.9697,-3.9697,-3.9697,-3.9697,-3.9697,-3.9697,-3.9697,-3.9697,-3.9697,-3.9697,-3.9697,-3.9697,-3.9697,-3.9697,-3.9697,-3.9697,-3.9697,-3.9697,-3.9697,-3.9697,-3.9697,-3.9697,-3.9697,-3.9697,-3.9697,-3.9697,-3.9697,-3.9697,-3.9697,-3.9697,-3.9697,-3.9697,-3.9697,-3.9697,-3.9697,-3.9697,-3.9697,-3.9697,-3.9697,-3.9697,-3.9697,-3.9697,-3.9697,-3.9421,-3.8818,-3.9396,-3.9546,-3.927,-3.9546,-3.9697,-3.9697,-3.9697,-3.9546,-2.3359,-2.6336,-3.0636,-3.6626,-3.8676,-3.9482,-4.0399,-4.1388,-4.1873,-4.1184,-4.2781,-4.4342,-4.4342,-4.4192,-4.4116,-4.4317,-4.4267,-4.4192,-4.4192,-4.379,0.0,0.0,0.0,0.0,0.0,0.0,0.0,0.0,0.0,-3.9346,-3.8944,-3.8768,-3.8492,-3.8015,-3.8015,-3.8015,-3.8015,-3.7914,-3.7638,-3.7186,-3.7086,-3.6857,-3.6405,-3.6405,-3.6656,-3.7036,-3.7136,-3.7387,-3.7739,-3.7914,-3.7889,-3.7739,-3.7939,-3.8291,-3.8793,-3.8894,-3.922,-3.9697,-3.9697,-3.9697,-3.9697,-3.9697,-3.9697,-3.9697,-3.9697,-3.9697,-3.9697,-3.9697,-3.9697,-3.9697,-3.9697,-3.9697,-3.9697,-3.9697,-3.9697,-3.9697,-3.9697,-3.9697,-3.9697,-3.9697,-3.9697,-3.9697,-3.9697,-3.9697,-3.9697,-3.9697,-3.9697,-3.9697,-3.9697,-3.9697,-3.9697,-3.9697,-3.9697,-3.9697,-3.9697,-3.9697,-3.9697,-3.9697,-3.9697,-3.9697,-3.9697,-3.9697,-3.9697,-3.9697,-3.9697,-3.9697,-3.9697,-3.9697,-3.9697,-3.9697,-3.9697,-3.9697,-2.2559,-2.7052,-3.2059,-3.3772,-3.7287,-3.9764,-3.7805,-3.9459,-4.1052,-3.969,-4.1408,-4.3187,-4.3187,-4.2434,-4.2082,-4.3037,-4.2785,-4.2539,-4.2539,-4.2464,0.0,0.0,0.0,0.0,0.0,0.0,0.0,0.0,-3.9245,-3.8994,-3.8919,-3.8391,-3.809,-3.8015,-3.8015,-3.8015,-3.8015,-3.7538,-3.7262,-3.7186,-3.6757,-3.648,-3.6405,-3.6405,-3.6455,-3.6556,-3.6985,-3.7008,-3.6707,-3.7613,-3.7437,-3.6732,-3.7638,-3.804,-3.8191,-3.8693,-3.922,-3.9697,-3.9697,-3.9697,-3.9697,-3.9697,-3.9697,-3.9697,-3.9697,-3.9697,-3.9697,-3.9697,-3.9697,-3.9697,-3.9697,-3.9697,-3.9697,-3.9697,-3.9697,-3.9697,-3.9697,-3.9697,-3.9697,-3.9697,-3.9697,-3.9697,-3.9697,-3.9697,-3.9697,-3.9697,-3.9697,-3.9697,-3.9697,-3.9697,-3.9697,-3.9697,-3.9697,-3.9697,-3.9697,-3.9697,-3.9697,-3.9697,-3.9697,-3.9697,-3.9697,-3.9697,-3.9697,-3.9697,-3.9697,-3.9697,-3.9697,-3.9697,-3.9697,-3.9697,-3.9697,-3.9697,-2.4655,-2.7302,-3.0135,-3.2699,-3.534,-3.7073,-3.616,-3.7988,-3.9691,-3.8752,-4.0153,-4.1681,-4.2007,-4.1601,-4.1451,-4.1982,-4.1856,-4.1706,-4.1706,-4.143,0.0,0.0,0.0,0.0,0.0,0.0,0.0,0.0,-3.9019,-3.8642,-3.7965,-3.7688,-3.7412,-3.7086,-3.7086,-3.7086,-3.7086,-3.6883,-3.6782,-3.6782,-3.6531,-3.6405,-3.6405,-3.6405,-3.6405,-3.643,-3.6656,-3.6631,-3.6455,-3.6885,-3.6857,-3.6455,-3.6933,-3.7462,-3.804,-3.8291,-3.8944,-3.9697,-3.9697,-3.9697,-3.9697,-3.9697,-3.9697,-3.9697,-3.9697,-3.9697,-3.9697,-3.9697,-3.9697,-3.9697,-3.9697,-3.9697,-3.9697,-3.9697,-3.9697,-3.9772,-4.0099,-3.9923,-3.9798,-4.0099,-4.04,-4.0626,-4.0626,-4.0626,-4.0501,-4.0199,-4.0425,-4.0501,-4.0199,-4.0149,-4.0149,-4.0149,-3.9873,-3.9697,-3.9697,-3.9697,-3.9697,-3.9697,-3.9697,-3.9697,-3.9697,-3.9697,-3.9697,-3.9697,-3.9697,-3.9697,-3.9697,-3.9697,-3.9697,-3.9697,-3.9697,-3.9697,-2.5459,-2.6533,-2.7731,-3.1169,-3.2972,-3.3922,-3.4016,-3.6125,-3.7713,-3.6696,-3.8306,-3.9894,-3.9954,-4.0436,-4.0924,-4.105,-4.1075,-4.1075,-4.1075,-4.0724,0.0,0.0,0.0,0.0,0.0,0.0,0.0,0.0,-3.8517,-3.8065,-3.7236,-3.7061,-3.6784,-3.643,-3.6405,-3.6355,-3.6157,-3.6053,-3.5956,-3.5956,-3.5956,-3.6031,-3.6157,-3.6157,-3.6279,-3.6405,-3.6405,-3.6405,-3.6405,-3.6405,-3.6405,-3.6405,-3.6405,-3.7036,-3.8015,-3.8015,-3.8642,-3.9496,-3.9647,-3.9597,-3.9496,-3.9647,-3.9697,-3.9697,-3.9697,-3.9697,-3.9697,-3.9697,-3.9697,-3.9697,-3.9697,-3.9697,-3.9697,-3.9697,-3.9798,-4.0023,-4.0425,-4.03,-4.0224,-4.0651,-4.1,-4.1275,-4.1275,-4.1275,-4.115,-4.0724,-4.1025,-4.115,-4.0724,-4.0727,-4.0727,-4.0727,-4.035,-4.0124,-4.0124,-4.0124,-4.0124,-4.0124,-4.0124,-4.0124,-4.0124,-4.0124,-4.0124,-4.0124,-3.9973,-3.9848,-3.9697,-3.9697,-3.9697,-3.9697,-3.9697,-3.9697,-2.2783,-2.4213,-2.585,-2.8004,-2.9988,-3.13,-3.0863,-3.3249,-3.4899,-3.2631,-3.5333,-3.7767,-3.6534,-3.8177,-3.9948,-4.0475,-4.0551,-4.0551,-4.0551,-4.0526,0.0,0.0,0.0,0.0,0.0,0.0,0.0,0.0,-3.7563,-3.7236,-3.7186,-3.6732,-3.643,-3.6405,-3.6405,-3.6107,-3.5533,-3.5031,-3.4801,-3.4801,-3.4801,-3.5031,-3.5533,-3.5533,-3.5881,-3.6405,-3.6405,-3.6405,-3.6405,-3.6405,-3.6405,-3.6405,-3.6405,-3.7036,-3.8015,-3.8015,-3.8391,-3.8994,-3.9521,-3.9346,-3.9045,-3.9521,-3.9697,-3.9697,-3.9697,-3.9697,-3.9697,-3.9697,-3.9697,-3.9697,-3.9697,-3.9697,-3.9697,-3.9697,-4.0099,-4.0475,-4.0501,-4.0902,-4.12,-4.1225,-4.1275,-4.1275,-4.1275,-4.1275,-4.1275,-4.125,-4.1275,-4.1275,-4.125,-4.125,-4.125,-4.125,-4.1225,-4.12,-4.12,-4.12,-4.12,-4.12,-4.12,-4.12,-4.12,-4.12,-4.12,-4.12,-4.0752,-4.0224,-3.9697,-3.9697,-3.9697,-3.9697,-3.9697,-3.9697,-2.2449,-2.2654,-2.3061,-2.4939,-2.6851,-2.8367,-2.8748,-3.1127,-3.3043,-3.2151,-3.4333,-3.5933,-3.45,-3.6664,-3.8668,-3.8868,-3.8894,-3.8894,-3.8894,-3.8894,0.0,0.0,0.0,0.0,0.0,0.0,0.0,0.0,0.0,-3.7036,-3.6732,-3.6132,-3.583,-3.583,-3.5504,-3.5228,-3.4981,-3.4781,-3.468,-3.468,-3.5031,-3.5307,-3.5508,-3.5906,-3.6182,-3.6405,-3.6405,-3.6405,-3.6405,-3.6405,-3.6405,-3.6405,-3.6405,-3.6883,-3.7513,-3.7864,-3.8366,-3.8994,-3.9496,-3.9572,-3.9421,-3.9622,-3.9697,-3.9697,-3.9697,-3.9697,-3.9697,-3.9697,-3.9697,-3.9697,-3.9697,-3.9697,-3.9798,-4.0149,-4.0902,-4.158,-4.158,-4.1731,-4.1856,-4.1856,-4.2158,-4.2384,-4.2384,-4.2384,-4.2258,-4.1907,-4.2158,-4.2258,-4.1907,-4.1856,-4.1856,-4.1856,-4.1555,-4.1275,-4.1275,-4.1275,-4.1275,-4.1275,-4.1275,-4.1275,-4.1275,-4.1275,-4.1275,-4.1275,-4.11,-4.0953,-4.0752,-4.04,-4.04,-4.0752,-4.0752,-4.0752,-2.2266,-2.1894,-2.1797,-2.3223,-2.4408,-2.5464,-2.6475,-2.8545,-3.0141,-2.9816,-3.1763,-3.3136,-3.189,-3.4068,-3.6306,-3.7171,-3.7693,-3.8015,-3.8015,-3.8015,0.0,0.0,0.0,0.0,0.0,0.0,0.0,0.0,0.0,0.0,-3.6107,-3.5708,-3.5408,-3.5232,-3.4726,-3.4449,-3.4449,-3.4248,-3.4173,-3.4173,-3.455,-3.4781,-3.4956,-3.5554,-3.5906,-3.6107,-3.6329,-3.6405,-3.6405,-3.6405,-3.6405,-3.6405,-3.6405,-3.6757,-3.7236,-3.7789,-3.8241,-3.8693,-3.9446,-3.9572,-3.9446,-3.9647,-3.9697,-3.9697,-3.9697,-3.9697,-3.9697,-3.9697,-3.9697,-3.9747,-3.9923,-4.0099,-4.0375,-4.0927,-4.1685,-4.2263,-4.2439,-4.2489,-4.2489,-4.2489,-4.2791,-4.2986,-4.2986,-4.2986,-4.2861,-4.2539,-4.2791,-4.2836,-4.2539,-4.2489,-4.2489,-4.2489,-4.2108,-4.1882,-4.1882,-4.1882,-4.1882,-4.1882,-4.1882,-4.1882,-4.1882,-4.1882,-4.1882,-4.1882,-4.1706,-4.1706,-4.1882,-4.1153,-4.0924,-4.1275,-4.1275,-4.1175,0.0,0.0,0.0,-2.2953,-2.2793,-2.2812,-2.4043,-2.5365,-2.6121,-2.5231,-2.7551,-2.9416,-2.8482,-3.044,-3.2956,-3.5411,-3.6996,-3.7914,-3.7914,-3.7914,0.0,0.0,0.0,0.0,0.0,0.0,0.0,0.0,-3.6355,-3.6081,-3.5508,-3.5458,-3.5207,-3.47,-3.4148,-3.3872,-3.3872,-3.3345,-3.3111,-3.3111,-3.3136,-3.3395,-3.3922,-3.4474,-3.4981,-3.5533,-3.6132,-3.6405,-3.6405,-3.6405,-3.6405,-3.6405,-3.6405,-3.6757,-3.7236,-3.7789,-3.8015,-3.8191,-3.9295,-3.9346,-3.8994,-3.9521,-3.9697,-3.9697,-3.9697,-3.9697,-3.9697,-3.9697,-3.9697,-3.9823,-4.0375,-4.0874,-4.1505,-4.2087,-4.2213,-4.2389,-4.2861,-4.2986,-4.2986,-4.2986,-4.2986,-4.2986,-4.2986,-4.2986,-4.2986,-4.2986,-4.2986,-4.2986,-4.2986,-4.2986,-4.2986,-4.2986,-4.2986,-4.2986,-4.2986,-4.2986,-4.2986,-4.2986,-4.2986,-4.2986,-4.2986,-4.2986,-4.2986,-4.2986,-4.2514,-4.2489,-4.2986,-4.1882,-4.1326,-4.1326,-4.1326,-4.105,-2.2363,0.0,0.0,0.0,0.0,0.0,-2.2068,-2.2876,-2.3624,-2.3683,-2.5668,-2.7107,-2.6168,-2.9098,-3.1539,-3.1272,-3.3689,-3.5629,-3.5629,-3.5934,0.0,0.0,0.0,0.0,0.0,0.0,0.0,0.0,-3.5177,-3.5102,-3.4906,-3.4575,-3.4098,-3.3545,-3.3395,-3.3294,-3.3294,-3.3144,-3.3111,-3.3093,-3.347,-3.3746,-3.3922,-3.4831,-3.5357,-3.5533,-3.6132,-3.6405,-3.6405,-3.6405,-3.6405,-3.6405,-3.6405,-3.6757,-3.7236,-3.7789,-3.8266,-3.8743,-3.9446,-3.9597,-3.9496,-3.9647,-3.9697,-3.9697,-3.9697,-3.9697,-3.9697,-3.9697,-3.9697,-3.9823,-4.0375,-4.1229,-4.1957,-4.2162,-4.2514,-4.2841,-4.2936,-4.2986,-4.2986,-4.2986,-4.2986,-4.2986,-4.2986,-4.2986,-4.2986,-4.2986,-4.2986,-4.2986,-4.2986,-4.2986,-4.2986,-4.2986,-4.2986,-4.2986,-4.2986,-4.2986,-4.2986,-4.2986,-4.2986,-4.2986,-4.2986,-4.2986,-4.2986,-4.2986,-4.2836,-4.2866,-4.2986,-4.2258,-4.2133,-4.2534,-4.2534,-4.2233,-2.273,-2.2461,-2.2168,-2.2266,0.0,0.0,-2.1797,-2.2012,-2.2266,0.0,-2.3559,-2.4469,-2.4106,-2.6451,-2.8311,-2.7876,-2.9999,-3.2308,-3.4115,-3.4806,0.0,0.0,0.0,0.0,0.0,-3.5157,-3.5031,-3.4705,-3.468,-3.4625,-3.4399,-3.3847,-3.3395,-3.3136,-3.2842,-3.2842,-3.3111,-3.2842,-3.2842,-3.3111,-3.3395,-3.3545,-3.3596,-3.4449,-3.4806,-3.4856,-3.568,-3.6006,-3.6031,-3.6329,-3.6405,-3.6405,-3.6405,-3.6606,-3.6935,-3.7713,-3.8216,-3.8617,-3.9421,-3.9697,-3.9697,-3.9697,-3.9697,-3.9697,-3.9697,-3.9697,-3.9697,-3.9697,-4.0023,-4.045,-4.0724,-4.1681,-4.2564,-4.2564,-4.2735,-4.2986,-4.2986,-4.2986,-4.2986,-4.2986,-4.2986,-4.3062,-4.3288,-4.3313,-4.3388,-4.3639,-4.3664,-4.3664,-4.3664,-4.3664,-4.3664,-4.3664,-4.3664,-4.3564,-4.3338,-4.3313,-4.3313,-4.3313,-4.3313,-4.3413,-4.3664,-4.3438,-4.3313,-4.3313,-4.3087,-4.2986,-4.2986,-4.2715,-4.266,-4.2986,-4.2986,-4.274,-2.3101,-2.2828,-2.2754,-2.3477,-2.2832,0.0,-2.2383,-2.2148,-2.1777,0.0,-2.1582,-2.1934,-2.2363,-2.339,-2.4449,-2.5231,-2.6513,-2.8831,-3.286,-3.392,0.0,0.0,0.0,0.0,-3.455,-3.455,-3.455,-3.455,-3.4474,-3.4223,-3.3746,-3.3194,-3.296,-3.2993,-3.2416,-3.239,-3.2968,-3.2466,-3.2466,-3.2993,-3.3086,-3.3111,-3.3136,-3.3646,-3.3897,-3.3947,-3.5031,-3.5508,-3.5533,-3.6132,-3.6405,-3.6405,-3.6405,-3.6455,-3.6631,-3.7613,-3.804,-3.8241,-3.932,-3.9697,-3.9697,-3.9697,-3.9697,-3.9697,-3.9697,-3.9697,-3.9697,-3.9772,-4.0526,-4.13,-4.1351,-4.2208,-4.2986,-4.2986,-4.2986,-4.2986,-4.2986,-4.3037,-4.3062,-4.2986,-4.3037,-4.3212,-4.3714,-4.384,-4.4066,-4.4543,-4.4618,-4.4618,-4.4618,-4.4618,-4.4618,-4.4618,-4.4618,-4.4418,-4.394,-4.389,-4.389,-4.389,-4.389,-4.4116,-4.4593,-4.4141,-4.389,-4.389,-4.3338,-4.3062,-4.3062,-4.3011,-4.2986,-4.2986,-4.2986,-4.271,-2.3198,-2.3042,-2.2925,-2.2812,-2.2832,0.0,-2.2148,-2.1953,-2.1855,0.0,-2.1543,-2.1504,-2.1934,-2.29,-2.3733,-2.3861,-2.5508,-2.7649,-3.0217,-3.1081,0.0,0.0,0.0,0.0,-3.3395,-3.3395,-3.3395,-3.3395,-3.2968,-3.2667,-3.2541,-3.2014,-3.1913,-3.2365,-3.1838,-3.1813,-3.2365,-3.2265,-3.2265,-3.239,-3.2842,-3.3111,-3.3136,-3.3646,-3.3897,-3.3947,-3.5031,-3.5508,-3.5533,-3.6132,-3.6405,-3.6405,-3.6405,-3.6681,-3.7111,-3.7764,-3.8291,-3.8793,-3.9471,-3.9697,-3.9697,-3.9697,-3.9697,-3.9697,-3.9697,-3.9697,-3.9798,-4.0224,-4.0827,-4.1376,-4.1882,-4.2484,-4.2986,-4.2986,-4.2986,-4.2986,-4.2986,-4.3313,-4.3514,-4.3062,-4.3338,-4.3689,-4.379,-4.4166,-4.4493,-4.4593,-4.4618,-4.4618,-4.4618,-4.4618,-4.4618,-4.4618,-4.4618,-4.4593,-4.4468,-4.4468,-4.4468,-4.4468,-4.4468,-4.4518,-4.4618,-4.4518,-4.4468,-4.4468,-4.3915,-4.3639,-4.3639,-4.3187,-4.2986,-4.2986,-4.2986,-4.2911,-2.3783,-2.3725,0.0,-2.3516,0.0,0.0,0.0,-2.2344,-2.2129,-2.1934,-2.1543,-2.1268,-2.1523,-2.183,-2.2188,-2.2615,-2.3389,-2.4792,-2.7369,-2.8886,-3.0139,0.0,0.0,0.0,-3.1838,-3.2089,-3.224,-3.224,-3.1964,-3.1813,-3.1813,-3.1537,-3.1512,-3.1788,-3.1286,-3.126,-3.1813,-3.1813,-3.1938,-3.2215,-3.2792,-3.3111,-3.3136,-3.337,-3.3495,-3.3545,-3.4374,-3.4831,-3.5132,-3.573,-3.6107,-3.6405,-3.6405,-3.6581,-3.6883,-3.7387,-3.7965,-3.8517,-3.9094,-3.9471,-3.9697,-3.9697,-3.9697,-3.9697,-3.9697,-3.9898,-4.0174,-4.045,-4.1103,-4.1806,-4.2137,-4.2615,-4.2986,-4.2986,-4.2986,-4.3062,-4.3338,-4.3614,-4.379,-4.379,-4.4267,-4.4543,-4.4267,-4.4669,-4.5146,-4.5422,-4.5472,-4.5472,-4.5472,-4.5472,-4.5472,-4.5472,-4.5472,-4.5347,-4.507,-4.5045,-4.5045,-4.5045,-4.5045,-4.5171,-4.5447,-4.5196,-4.492,-4.4644,-4.4342,-4.4217,-4.4217,-4.3664,-4.3237,-4.2986,-4.2986,-4.3112,0.0,0.0,0.0,0.0,0.0,-2.3906,0.0,0.0,0.0,-2.209,0.0,0.0,0.0,0.0,0.0,0.0,0.0,0.0,0.0,-2.7052,0.0,0.0,0.0,0.0,0.0,-3.1085,-3.1386,-3.1386,-3.1286,-3.1235,-3.1235,-3.1135,-3.1135,-3.1235,-3.0733,-3.0758,-3.1386,-3.1386,-3.1662,-3.2215,-3.2792,-3.3111,-3.3111,-3.3111,-3.3111,-3.3162,-3.3771,-3.4299,-3.4731,-3.5382,-3.5956,-3.6405,-3.6405,-3.6405,-3.648,-3.7111,-3.7638,-3.809,-3.8793,-3.932,-3.9697,-3.9697,-3.9697,-3.9722,-3.9823,-4.0174,-4.0551,-4.0777,-4.148,-4.2238,-4.2338,-4.269,-4.3011,-4.3112,-4.3137,-4.3288,-4.384,-4.4041,-4.4217,-4.4568,-4.5171,-4.5472,-4.4895,-4.5271,-4.5799,-4.625,-4.6301,-4.6301,-4.6301,-4.6301,-4.6301,-4.6301,-4.6301,-4.6125,-4.5673,-4.5648,-4.5648,-4.5648,-4.5648,-4.5849,-4.6301,-4.5874,-4.5422,-4.497,-4.4844,-4.4794,-4.4794,-4.4242,-4.374,-4.3288,-4.3187,-4.3438,0.0,0.0,0.0,0.0,-2.4668,0.0,0.0,0.0,-2.2969,-2.2539,0.0,0.0,0.0,0.0,0.0,0.0,0.0,0.0,-2.4285,-2.5307,-2.6729,-2.885,0.0,0.0,0.0,-3.1085,-3.1386,-3.1386,-3.0959,-3.0708,-3.0708,-3.0231,-3.0206,-3.0683,-3.0181,-3.0382,-3.1386,-3.1386,-3.1662,-3.2215,-3.2792,-3.3111,-3.3111,-3.3111,-3.3111,-3.3187,-3.4173,-3.463,-3.4801,-3.583,-3.6355,-3.6405,-3.6405,-3.6405,-3.6531,-3.7538,-3.7939,-3.8165,-3.922,-3.9647,-3.9697,-3.9697,-3.9697,-3.9798,-4.0275,-4.0475,-4.0727,-4.1706,-4.2112,-4.2313,-4.2816,-4.2936,-4.3112,-4.3589,-4.3714,-4.3865,-4.4418,-4.492,-4.5171,-4.4719,-4.5497,-4.605,-4.5472,-4.5849,-4.6225,-4.6301,-4.6301,-4.6301,-4.6301,-4.6301,-4.6301,-4.6301,-4.6301,-4.6276,-4.6225,-4.6225,-4.6225,-4.6225,-4.6225,-4.625,-4.6301,-4.625,-4.6175,-4.6125,-4.5648,-4.5397,-4.5397,-4.4819,-4.4493,-4.4418,-4.394,-4.4016,0.0,0.0,0.0,0.0,0.0,0.0,-2.4355,0.0,-2.3398,0.0,0.0,0.0,0.0,0.0,0.0,0.0,-2.2269,0.0,0.0,0.0,-2.5937,0.0,0.0,0.0,0.0,0.0,0.0,0.0,-2.9955,-2.9779,-3.0131,-2.9905,-2.9905,-3.0131,-3.0231,-3.0482,-3.0934,-3.1562,-3.1989,-3.2215,-3.2792,-3.3111,-3.3111,-3.3111,-3.3244,-3.3571,-3.4048,-3.46,-3.5182,-3.5705,-3.6081,-3.6405,-3.6405,-3.6405,-3.6505,-3.7236,-3.7739,-3.8115,-3.8944,-3.9421,-3.9697,-3.9697,-3.9697,-3.9747,-3.9973,-4.0475,-4.1025,-4.1555,-4.2133,-4.2816,-4.3313,-4.3463,-4.3589,-4.4141,-4.4267,-4.4443,-4.4995,-4.5321,-4.5522,-4.5598,-4.5999,-4.6225,-4.5999,-4.615,-4.6301,-4.6301,-4.6301,-4.6301,-4.6301,-4.6301,-4.6301,-4.6301,-4.6301,-4.6301,-4.6301,-4.6301,-4.6301,-4.6301,-4.6301,-4.6301,-4.6301,-4.6301,-4.6301,-4.6301,-4.6075,-4.5974,-4.5974,-4.5397,-4.5296,-4.5573,-4.4694,-4.4593,-2.7524,0.0,0.0,0.0,0.0,0.0,0.0,0.0,0.0,0.0,0.0,0.0,0.0,0.0,-2.1992,-2.2285,0.0,-2.3457,0.0,-2.5065,0.0,0.0,0.0,0.0,0.0,0.0,0.0,0.0,0.0,-2.9176,-2.9754,-2.993,-3.0005,-3.0005,-3.0407,-3.0758,-3.106,-3.1687,-3.2139,-3.2466,-3.2867,-3.3111,-3.3111,-3.3111,-3.337,-3.3897,-3.4048,-3.463,-3.5508,-3.5658,-3.6006,-3.6405,-3.6405,-3.6505,-3.6707,-3.7211,-3.7663,-3.8115,-3.8843,-3.9346,-3.9697,-3.9697,-3.9798,-3.9948,-4.0099,-4.0802,-4.1605,-4.1756,-4.2359,-4.3112,-4.3664,-4.379,-4.3991,-4.4694,-4.4869,-4.502,-4.5598,-4.5723,-4.5824,-4.6225,-4.6301,-4.6301,-4.6301,-4.6301,-4.6301,-4.6301,-4.6301,-4.6301,-4.6301,-4.6301,-4.6301,-4.6301,-4.6301,-4.6301,-4.6301,-4.6301,-4.6301,-4.6301,-4.6451,-4.6476,-4.6326,-4.6451,-4.6476,-4.6301,-4.6301,-4.6301,-4.6301,-4.5899,-4.5924,-4.6276,-4.5321,-4.5171,0.0,0.0,0.0,-2.7142,0.0,0.0,0.0,0.0,-2.4668,0.0,0.0,0.0,0.0,-2.2168,-2.1894,-2.1894,-2.3184,0.0,0.0,0.0,0.0,0.0,0.0,0.0,0.0,0.0,0.0,0.0,0.0,0.0,-2.9754,-3.0306,-3.0583,-3.0583,-3.0608,-3.111,-3.2164,-3.1662,-3.1964,-3.3043,-3.3111,-3.3111,-3.3111,-3.3111,-3.337,-3.3922,-3.4474,-3.4981,-3.5533,-3.6107,-3.638,-3.6405,-3.6405,-3.6732,-3.7236,-3.7789,-3.799,-3.8165,-3.927,-3.9672,-3.9697,-3.9697,-4.0049,-4.0601,-4.1075,-4.1681,-4.2288,-4.2785,-4.2961,-4.3112,-4.3664,-4.379,-4.4091,-4.5196,-4.5472,-4.5623,-4.6175,-4.6276,-4.6276,-4.6301,-4.6301,-4.6301,-4.6301,-4.6301,-4.6301,-4.6301,-4.6301,-4.6301,-4.6301,-4.6301,-4.6301,-4.6301,-4.6301,-4.6301,-4.6301,-4.6301,-4.6301,-4.6301,-4.6803,-4.6878,-4.6326,-4.6828,-4.6853,-4.6326,-4.6301,-4.6301,-4.6301,-4.6301,-4.6301,-4.6301,-4.5723,-4.5748,0.0,0.0,-3.2325,-2.8642,0.0,0.0,0.0,0.0,0.0,0.0,0.0,0.0,0.0,-2.2812,-2.2672,-2.2672,-2.407,-2.4999,0.0,0.0,0.0,0.0,0.0,0.0,0.0,0.0,0.0,0.0,0.0,0.0,0.0,-2.998,-3.008,-3.008,-3.0758,-3.1311,-3.1662,-3.2215,-3.2734,-3.3111,-3.3111,-3.3111,-3.3111,-3.3111,-3.3571,-3.4449,-3.465,-3.5253,-3.6107,-3.6329,-3.6631,-3.6958,-3.6958,-3.7236,-3.7739,-3.7939,-3.8241,-3.8693,-3.9446,-3.9697,-3.9697,-3.9697,-4.0074,-4.0551,-4.0752,-4.143,-4.2263,-4.2439,-4.2961,-4.3639,-4.4192,-4.4618,-4.5095,-4.5849,-4.6024,-4.6075,-4.6276,-4.6301,-4.6301,-4.6301,-4.6602,-4.7192,-4.8195,-4.8685,-4.8352,-4.6582,-4.6903,-4.7104,-4.6401,-4.6627,-4.6702,-4.6351,-4.6301,-4.6301,-4.6301,-4.6301,-4.6301,-4.6301,-4.6476,-4.6502,-4.6326,-4.6502,-4.6502,-4.6301,-4.6301,-4.6301,-4.6301,-4.6301,-4.6301,-4.6301,-4.6125,-4.6125,-3.0463,-3.2339,0.0,-2.9282,-2.9189,0.0,-2.604,0.0,0.0,0.0,0.0,0.0,0.0,0.0,-2.3714,-2.3714,-2.5094,-2.6135,0.0,-2.6615,0.0,0.0,0.0,0.0,0.0,0.0,0.0,0.0,0.0,0.0,0.0,0.0,-3.0156,-3.0357,-3.1035,-3.1587,-3.1989,-3.2516,-3.2867,-3.3111,-3.3111,-3.3111,-3.3136,-3.3294,-3.3872,-3.4726,-3.4881,-3.5529,-3.643,-3.6631,-3.6908,-3.7211,-3.7387,-3.7814,-3.8316,-3.8316,-3.8668,-3.922,-3.9572,-3.9697,-3.9722,-3.9923,-4.035,-4.0852,-4.1028,-4.1731,-4.2514,-4.2514,-4.3112,-4.3915,-4.4493,-4.5045,-4.5623,-4.6175,-4.6301,-4.6301,-4.6301,-4.6301,-4.6376,-4.6577,-4.6728,-4.7233,-4.8713,-4.9196,-4.9075,-4.7897,-4.8288,-4.8233,-4.6763,-4.7542,-4.8007,-4.7504,-4.7877,-4.7995,-4.7428,-4.6879,-4.6677,-4.6878,-4.7079,-4.7079,-4.6878,-4.7079,-4.7179,-4.7179,-4.6979,-4.6878,-4.6878,-4.6702,-4.6502,-4.6301,-4.6301,-4.6301]},{"header":{"parameterUnit":"m.s-1","parameterCategory":1,"la1":30.6,"la2":29.2853,"lo1":-89.7004,"lo2":-87.6739,"dy":0.0162,"dx":0.0183,"nx":112,"ny":82,"refTime":"2024-03-08T06:00:00:Z","depth":0,"parameterNumber":3,"parameterNumberName":"V-component_of_WINDS"},"data":[0.0,0.0,0.0,0.0,0.0,0.0,0.0,0.0,0.0,0.0,0.0,0.0,0.0,0.0,0.0,0.0,0.0,0.0,0.0,0.0,0.0,0.0,0.0,0.0,0.0,0.0,0.0,0.0,0.0,0.0,0.0,0.0,0.0,0.0,0.0,0.0,0.0,0.0,0.0,0.0,0.0,0.0,0.0,0.0,0.0,0.0,0.0,0.0,0.0,0.0,0.0,0.0,0.0,0.0,0.0,0.0,0.0,0.0,0.0,0.0,0.0,0.0,0.0,0.0,0.0,0.0,0.0,0.0,0.0,0.0,0.0,0.0,0.0,0.0,0.0,0.0,0.0,0.0,0.0,0.0,0.0,0.0,0.0,0.0,0.0,0.0,0.0,0.0,0.0,0.0,2.7053,2.8227,3.1494,3.333,3.2656,3.361,3.2399,2.8081,0.0,0.0,0.0,0.0,0.0,0.0,0.0,0.0,0.0,0.0,0.0,0.0,0.0,0.0,0.0,0.0,0.0,0.0,0.0,0.0,0.0,0.0,0.0,0.0,0.0,0.0,0.0,0.0,0.0,0.0,0.0,0.0,0.0,0.0,0.0,0.0,0.0,0.0,0.0,0.0,0.0,0.0,0.0,0.0,0.0,0.0,0.0,0.0,0.0,0.0,0.0,0.0,0.0,0.0,0.0,0.0,0.0,0.0,0.0,0.0,0.0,0.0,0.0,0.0,0.0,0.0,0.0,0.0,0.0,0.0,0.0,0.0,0.0,0.0,0.0,0.0,0.0,0.0,0.0,0.0,0.0,0.0,0.0,0.0,0.0,0.0,0.0,0.0,0.0,0.0,0.0,0.0,0.0,0.0,0.0,0.0,0.0,0.0,0.0,0.0,0.0,0.0,0.0,0.0,2.7677,3.0552,3.2008,3.2729,3.2619,3.1568,3.0026,2.7934,0.0,0.0,0.0,0.0,0.0,0.0,0.0,0.0,0.0,0.0,0.0,0.0,0.0,0.0,0.0,0.0,0.0,0.0,0.0,0.0,0.0,0.0,0.0,0.0,0.0,0.0,0.0,0.0,0.0,0.0,0.0,0.0,0.0,0.0,0.0,0.0,0.0,0.0,0.0,0.0,0.0,0.0,0.0,0.0,0.0,0.0,0.0,0.0,0.0,0.0,0.0,0.0,0.0,0.0,0.0,0.0,0.0,0.0,0.0,0.0,0.0,0.0,0.0,0.0,0.0,0.0,0.0,0.0,0.0,0.0,0.0,0.0,0.0,0.0,0.0,0.0,0.0,0.0,0.0,0.0,0.0,0.0,0.0,0.0,0.0,0.0,0.0,0.0,0.0,0.0,0.0,0.0,0.0,0.0,0.0,0.0,0.0,0.0,0.0,0.0,0.0,0.0,0.0,2.7273,2.8815,3.114,3.2118,3.2399,3.1971,3.087,2.9512,2.7897,2.8081,0.0,0.0,0.0,0.0,0.0,0.0,0.0,0.0,0.0,0.0,0.0,0.0,0.0,0.0,0.0,0.0,0.0,0.0,0.0,0.0,0.0,0.0,0.0,0.0,0.0,0.0,0.0,0.0,0.0,0.0,0.0,0.0,0.0,0.0,0.0,0.0,0.0,0.0,0.0,0.0,0.0,0.0,0.0,0.0,0.0,0.0,0.0,0.0,0.0,0.0,0.0,0.0,0.0,0.0,0.0,0.0,0.0,0.0,0.0,0.0,0.0,0.0,0.0,0.0,0.0,0.0,0.0,0.0,0.0,0.0,0.0,0.0,0.0,0.0,0.0,0.0,0.0,0.0,0.0,0.0,0.0,0.0,0.0,0.0,0.0,0.0,0.0,0.0,0.0,0.0,0.0,0.0,0.0,0.0,0.0,0.0,0.0,0.0,0.0,0.0,0.0,0.0,2.939,2.9684,3.1494,3.2082,3.2008,3.1213,3.0026,2.8815,2.7603,2.6576,0.0,0.0,0.0,0.0,0.0,0.0,0.0,0.0,0.0,0.0,0.0,0.0,0.0,0.0,0.0,0.0,0.0,0.0,0.0,0.0,0.0,0.0,0.0,0.0,0.0,0.0,0.0,0.0,0.0,0.0,0.0,0.0,0.0,0.0,0.0,0.0,0.0,0.0,0.0,0.0,0.0,0.0,0.0,0.0,0.0,0.0,0.0,0.0,0.0,0.0,0.0,0.0,0.0,0.0,0.0,0.0,0.0,0.0,0.0,0.0,0.0,0.0,0.0,0.0,0.0,0.0,0.0,0.0,0.0,0.0,0.0,0.0,0.0,0.0,0.0,0.0,0.0,0.0,0.0,0.0,0.0,0.0,0.0,0.0,0.0,0.0,0.0,0.0,0.0,0.0,0.0,0.0,0.0,0.0,0.0,0.0,0.0,0.0,0.0,0.0,0.0,0.0,2.9023,2.9904,3.2252,3.1898,3.1176,3.0356,2.8191,2.6785,2.6675,2.5217,0.0,0.0,0.0,0.0,0.0,0.0,0.0,0.0,0.0,0.0,0.0,0.0,0.0,0.0,0.0,0.0,0.0,0.0,0.0,0.0,0.0,0.0,0.0,0.0,0.0,0.0,0.0,0.0,0.0,0.0,0.0,0.0,0.0,0.0,0.0,0.0,0.0,0.0,0.0,0.0,0.0,0.0,0.0,0.0,0.0,0.0,0.0,0.0,0.0,0.0,0.0,0.0,0.0,0.0,0.0,0.0,0.0,0.0,0.0,0.0,0.0,0.0,0.0,0.0,0.0,0.0,0.0,0.0,0.0,0.0,0.0,0.0,0.0,0.0,0.0,0.0,0.0,0.0,0.0,0.0,0.0,0.0,0.0,0.0,0.0,0.0,0.0,0.0,0.0,0.0,0.0,0.0,0.0,0.0,0.0,0.0,0.0,0.0,0.0,0.0,0.0,0.0,2.8264,2.8998,3.0907,3.0834,3.0136,2.8815,2.786,2.6906,2.5925,0.0,0.0,0.0,0.0,0.0,0.0,0.0,0.0,0.0,0.0,0.0,0.0,0.0,0.0,0.0,0.0,0.0,0.0,0.0,0.0,0.0,0.0,0.0,0.0,0.0,0.0,0.0,0.0,0.0,0.0,0.0,0.0,0.0,0.0,0.0,0.0,0.0,0.0,0.0,0.0,0.0,0.0,0.0,0.0,0.0,0.0,0.0,0.0,0.0,0.0,0.0,0.0,0.0,0.0,0.0,0.0,0.0,0.0,0.0,0.0,0.0,0.0,0.0,0.0,0.0,0.0,0.0,0.0,0.0,0.0,0.0,0.0,0.0,0.0,0.0,0.0,0.0,0.0,0.0,0.0,0.0,0.0,0.0,0.0,0.0,0.0,0.0,0.0,0.0,0.0,0.0,0.0,0.0,0.0,0.0,0.0,0.0,0.0,0.0,0.0,0.0,0.0,2.7504,2.7798,2.8411,0.0,3.021,2.9549,2.7945,2.7321,2.6586,2.5448,0.0,0.0,0.0,0.0,0.0,0.0,0.0,0.0,0.0,0.0,0.0,0.0,0.0,0.0,0.0,0.0,0.0,0.0,0.0,0.0,0.0,0.0,0.0,0.0,0.0,0.0,0.0,0.0,0.0,0.0,0.0,0.0,0.0,0.0,0.0,0.0,0.0,0.0,0.0,0.0,0.0,0.0,0.0,0.0,0.0,0.0,0.0,0.0,0.0,0.0,0.0,0.0,0.0,0.0,0.0,0.0,0.0,0.0,0.0,0.0,0.0,0.0,0.0,0.0,0.0,0.0,0.0,0.0,0.0,0.0,0.0,0.0,0.0,0.0,0.0,0.0,0.0,0.0,0.0,0.0,0.0,0.0,0.0,0.0,0.0,0.0,0.0,0.0,0.0,0.0,0.0,0.0,0.0,0.0,0.0,0.0,0.0,0.0,0.0,0.0,0.0,0.0,2.7467,2.7787,2.8411,3.0026,3.021,2.9549,2.7934,2.6329,2.5411,0.0,0.0,0.0,0.0,0.0,0.0,0.0,0.0,0.0,0.0,0.0,0.0,0.0,0.0,0.0,0.0,0.0,0.0,0.0,0.0,0.0,0.0,0.0,0.0,0.0,0.0,0.0,0.0,0.0,0.0,0.0,0.0,0.0,0.0,0.0,0.0,0.0,0.0,0.0,0.0,0.0,0.0,0.0,0.0,0.0,0.0,0.0,0.0,0.0,0.0,0.0,0.0,0.0,0.0,0.0,0.0,0.0,0.0,0.0,0.0,0.0,0.0,0.0,0.0,0.0,0.0,0.0,0.0,0.0,0.0,0.0,0.0,0.0,0.0,0.0,0.0,0.0,0.0,0.0,0.0,0.0,0.0,0.0,0.0,0.0,0.0,0.0,0.0,0.0,0.0,0.0,0.0,0.0,0.0,0.0,0.0,0.0,0.0,0.0,0.0,0.0,0.0,0.0,2.6722,2.6943,2.7567,2.917,2.9354,2.8693,2.709,2.6539,2.5768,2.464,0.0,0.0,0.0,0.0,0.0,0.0,0.0,0.0,0.0,0.0,0.0,0.0,0.0,0.0,0.0,0.0,0.0,0.0,0.0,0.0,0.0,0.0,0.0,0.0,0.0,0.0,0.0,0.0,0.0,0.0,0.0,0.0,0.0,0.0,0.0,0.0,0.0,0.0,0.0,0.0,0.0,0.0,0.0,0.0,0.0,0.0,0.0,0.0,0.0,0.0,0.0,0.0,0.0,0.0,0.0,0.0,0.0,0.0,0.0,0.0,0.0,0.0,0.0,0.0,0.0,0.0,0.0,0.0,0.0,0.0,0.0,0.0,0.0,0.0,0.0,0.0,0.0,0.0,0.0,0.0,0.0,0.0,0.0,0.0,0.0,0.0,0.0,0.0,0.0,0.0,0.0,0.0,0.0,0.0,0.0,0.0,0.0,0.0,0.0,0.0,0.0,0.0,2.6869,2.6796,2.7226,2.884,2.8987,2.8363,2.6749,2.6602,2.5915,2.43,0.0,0.0,0.0,0.0,0.0,0.0,0.0,0.0,0.0,0.0,0.0,0.0,0.0,0.0,0.0,0.0,0.0,0.0,0.0,0.0,0.0,0.0,0.0,0.0,0.0,0.0,0.0,0.0,0.0,0.0,0.0,0.0,0.0,0.0,0.0,0.0,0.0,0.0,0.0,0.0,0.0,0.0,0.0,0.0,0.0,0.0,0.0,0.0,0.0,0.0,0.0,0.0,0.0,0.0,0.0,0.0,0.0,0.0,0.0,0.0,0.0,0.0,0.0,0.0,0.0,0.0,0.0,0.0,0.0,0.0,0.0,0.0,0.0,0.0,0.0,0.0,0.0,0.0,0.0,0.0,0.0,0.0,0.0,0.0,0.0,0.0,0.0,0.0,0.0,0.0,0.0,0.0,0.0,0.0,0.0,0.0,0.0,0.0,0.0,0.0,0.0,0.0,2.7688,2.72,2.7336,2.895,2.9097,2.8473,2.6869,2.6638,2.5952,2.441,0.0,0.0,0.0,0.0,0.0,0.0,0.0,0.0,0.0,0.0,0.0,0.0,0.0,0.0,0.0,0.0,0.0,0.0,0.0,0.0,0.0,0.0,0.0,0.0,0.0,0.0,0.0,0.0,0.0,0.0,0.0,0.0,0.0,0.0,0.0,0.0,0.0,0.0,0.0,0.0,0.0,0.0,0.0,0.0,0.0,0.0,0.0,0.0,0.0,0.0,0.0,0.0,0.0,0.0,0.0,0.0,0.0,0.0,0.0,0.0,3.516,0.0,0.0,0.0,0.0,0.0,0.0,0.0,0.0,0.0,0.0,0.0,0.0,0.0,0.0,0.0,0.0,0.0,0.0,0.0,0.0,0.0,0.0,0.0,0.0,0.0,0.0,0.0,0.0,0.0,0.0,0.0,0.0,0.0,0.0,0.0,0.0,0.0,0.0,0.0,0.0,0.0,2.8473,2.8044,2.8154,2.9769,2.9953,2.9292,2.7677,2.6979,2.6172,2.5191,2.4566,0.0,0.0,0.0,0.0,0.0,0.0,0.0,0.0,0.0,0.0,0.0,0.0,0.0,0.0,0.0,0.0,0.0,0.0,0.0,0.0,0.0,0.0,0.0,0.0,0.0,0.0,0.0,0.0,0.0,0.0,0.0,0.0,0.0,0.0,0.0,0.0,0.0,0.0,0.0,0.0,0.0,0.0,0.0,0.0,0.0,0.0,0.0,0.0,0.0,0.0,0.0,0.0,0.0,0.0,0.0,0.0,0.0,0.0,0.0,0.0,3.64,0.0,0.0,0.0,0.0,0.0,0.0,0.0,0.0,0.0,0.0,0.0,0.0,0.0,0.0,0.0,0.0,0.0,0.0,0.0,0.0,0.0,0.0,0.0,0.0,0.0,0.0,0.0,0.0,0.0,0.0,0.0,0.0,0.0,0.0,0.0,0.0,0.0,0.0,0.0,0.0,2.847,2.7833,2.786,2.9427,2.961,2.9145,2.7897,2.7053,2.6245,2.5448,2.464,0.0,0.0,0.0,0.0,0.0,0.0,0.0,0.0,0.0,0.0,0.0,0.0,0.0,0.0,0.0,0.0,0.0,0.0,0.0,0.0,0.0,0.0,0.0,0.0,0.0,0.0,0.0,0.0,0.0,0.0,0.0,0.0,0.0,0.0,0.0,0.0,0.0,0.0,0.0,0.0,0.0,0.0,0.0,0.0,0.0,0.0,0.0,0.0,0.0,0.0,0.0,0.0,0.0,4.5326,4.5974,4.7192,4.7192,4.6447,4.4993,4.188,3.9106,3.685,0.0,0.0,0.0,0.0,0.0,0.0,0.0,0.0,0.0,0.0,0.0,0.0,0.0,0.0,0.0,0.0,0.0,0.0,0.0,0.0,0.0,0.0,0.0,0.0,0.0,3.6009,3.5509,0.0,0.0,0.0,0.0,0.0,0.0,0.0,0.0,0.0,0.0,0.0,0.0,2.8478,2.7671,2.7551,2.9149,2.9245,2.8877,2.8081,2.7126,2.6319,2.5668,2.4713,2.419,0.0,0.0,0.0,0.0,0.0,0.0,0.0,0.0,0.0,0.0,0.0,0.0,0.0,0.0,0.0,0.0,0.0,0.0,0.0,0.0,0.0,0.0,0.0,0.0,0.0,0.0,0.0,0.0,0.0,0.0,0.0,0.0,3.8836,3.9571,0.0,0.0,0.0,0.0,0.0,0.0,0.0,0.0,0.0,0.0,0.0,0.0,0.0,4.4581,4.6041,4.6718,4.7162,4.7496,4.8105,4.8511,4.8714,4.8714,4.8274,4.7462,4.6925,0.0,4.1339,4.0223,0.0,0.0,0.0,0.0,0.0,0.0,0.0,0.0,0.0,0.0,0.0,0.0,0.0,0.0,0.0,0.0,0.0,0.0,0.0,0.0,0.0,0.0,3.6894,3.6361,3.6546,3.6738,0.0,3.4907,3.341,3.2961,3.0965,0.0,0.0,0.0,0.0,0.0,0.0,0.0,2.9656,2.8914,2.8766,3.0378,3.0232,2.9721,2.8913,2.7446,2.6528,2.6465,2.5034,2.419,2.419,2.419,0.0,0.0,0.0,0.0,0.0,0.0,0.0,0.0,0.0,0.0,0.0,0.0,0.0,0.0,0.0,0.0,0.0,0.0,0.0,0.0,0.0,0.0,0.0,0.0,0.0,0.0,0.0,0.0,0.0,4.002,4.1136,4.0214,4.1474,4.1982,0.0,0.0,0.0,0.0,0.0,0.0,0.0,0.0,0.0,4.5877,4.6278,4.7158,4.8646,4.8984,4.9796,5.1048,5.1386,5.1961,5.2773,5.2334,5.1961,5.1657,5.1251,4.9627,4.7056,4.3938,4.211,4.123,0.0,0.0,0.0,0.0,3.9478,3.9851,4.0324,4.002,0.0,0.0,0.0,0.0,0.0,0.0,0.0,0.0,0.0,0.0,0.0,0.0,0.0,3.7877,3.83,3.8653,3.8205,3.6978,3.5723,0.0,3.3329,3.2094,3.1773,0.0,0.0,0.0,0.0,2.7995,2.905,2.8526,2.852,2.9676,2.9413,2.9052,2.8688,2.7382,2.6602,2.6602,2.5107,2.419,2.419,2.419,2.441,0.0,0.0,0.0,0.0,0.0,0.0,0.0,0.0,0.0,0.0,0.0,0.0,0.0,0.0,0.0,0.0,0.0,0.0,0.0,0.0,0.0,0.0,0.0,0.0,0.0,0.0,0.0,0.0,4.2083,4.3031,4.1136,4.3267,4.4018,0.0,0.0,0.0,0.0,0.0,0.0,4.5935,4.6718,4.78,4.9289,4.9526,5.0236,5.1522,5.1522,5.2469,5.4363,5.4363,5.504,5.6258,5.5683,5.5344,5.5108,5.4397,5.3315,5.1758,4.7462,4.4925,4.3606,4.2523,4.1847,4.1542,4.1711,4.188,4.2185,4.3071,4.3064,4.2557,4.2388,0.0,3.9851,3.8362,0.0,0.0,0.0,0.0,3.7506,3.8024,3.8734,3.9276,3.9276,3.9706,3.9943,3.9377,3.8836,3.8012,0.0,3.526,3.4033,3.3002,0.0,0.0,0.0,0.0,2.8561,2.8801,2.847,2.8453,2.9046,2.8763,2.8501,2.8412,2.7379,2.6783,2.6895,2.5585,2.4814,2.4814,2.4814,2.5107,2.5705,0.0,0.0,0.0,0.0,0.0,0.0,0.0,0.0,0.0,0.0,0.0,0.0,0.0,0.0,0.0,0.0,0.0,0.0,0.0,0.0,0.0,0.0,0.0,0.0,0.0,0.0,0.0,0.0,0.0,4.3335,4.6481,0.0,0.0,0.0,0.0,4.6447,4.7192,4.8274,4.9729,5.0541,5.1657,5.3179,5.389,5.4634,5.5412,5.5446,5.5852,5.663,5.663,5.7036,5.778,5.7746,5.734,5.6664,5.5919,5.5141,5.4126,5.0338,4.8342,4.7398,4.5263,4.4823,4.5263,4.3842,4.3775,4.4344,4.3639,4.3375,4.3578,4.5026,4.4451,4.2902,4.1441,3.9986,0.0,0.0,3.887,3.8903,3.8937,3.9512,4.0028,4.0045,4.0079,4.0079,4.0045,4.0011,3.9448,0.0,3.5253,3.3584,3.3963,0.0,3.0059,3.0025,2.9434,2.9231,2.9924,2.9659,2.9418,2.9469,2.916,2.882,2.8435,2.7644,2.732,2.7739,2.6943,2.6492,2.6492,2.6492,2.6502,2.6539,2.6539,0.0,0.0,0.0,0.0,0.0,0.0,0.0,0.0,0.0,0.0,0.0,0.0,0.0,0.0,0.0,0.0,0.0,0.0,0.0,0.0,0.0,0.0,0.0,0.0,0.0,0.0,0.0,0.0,4.9052,5.1623,0.0,4.9424,4.9221,4.9357,4.9627,5.0811,5.2164,5.3653,5.4397,5.5513,5.7002,5.7306,5.7577,5.7848,5.7848,5.7712,5.7509,5.7509,5.7645,5.7881,5.7408,5.7036,5.6731,5.5513,5.4837,5.4465,5.2638,5.0879,4.9154,4.7394,4.6583,4.6346,4.5805,4.6075,4.6684,4.6413,4.6283,4.6148,4.5263,4.3944,4.2523,4.1508,4.0493,3.9808,4.029,4.0426,4.0527,4.1001,4.1305,4.1407,4.0933,4.0798,4.0663,4.0214,4.0113,3.9926,3.9248,3.76,3.6039,3.5219,3.3888,3.2611,3.1664,3.1278,3.1041,3.0852,3.0274,2.989,2.989,2.9126,2.8755,2.907,2.772,2.7143,2.7749,2.679,2.6232,2.6232,2.6469,2.6833,2.7346,2.7383,2.7383,0.0,0.0,0.0,0.0,0.0,0.0,0.0,0.0,0.0,0.0,0.0,0.0,0.0,0.0,0.0,0.0,0.0,0.0,0.0,0.0,0.0,0.0,0.0,0.0,0.0,4.9323,5.2367,5.3348,5.5919,5.6596,5.4059,5.3856,5.3957,5.4194,5.5141,5.6393,5.7881,5.8186,5.8761,5.9776,5.9776,5.9539,5.9032,5.9032,5.8626,5.7881,5.7881,5.7881,5.7881,5.7374,5.7036,5.6731,5.5513,5.4837,5.4532,5.3788,5.2604,5.1116,4.9864,4.9086,4.8612,4.8376,4.8612,4.8954,4.8748,4.8342,4.7665,4.6177,4.4857,4.3673,4.2929,4.2185,4.1737,4.2185,4.2151,4.2049,4.2557,4.2658,4.2422,4.1441,4.1204,4.1001,4.0282,4.0113,4.0113,4.0113,3.9106,3.7787,3.6265,3.5385,3.4438,3.3241,3.2835,3.2476,3.2002,3.1292,3.0649,3.0156,2.9414,2.9128,2.9488,2.8343,2.7786,2.8164,2.746,2.6877,2.6639,2.6898,2.7331,2.7994,2.8391,2.8594,2.8594,0.0,0.0,0.0,0.0,0.0,0.0,0.0,0.0,0.0,0.0,0.0,0.0,0.0,0.0,0.0,0.0,0.0,0.0,0.0,0.0,0.0,0.0,0.0,4.7872,5.257,5.5817,5.5953,5.9201,6.0283,5.734,5.8355,5.9471,6.0148,6.0216,6.0858,6.2347,6.1738,6.1332,6.1332,6.1332,6.0622,5.9099,5.9099,5.8693,5.7915,5.7949,5.7915,5.7881,5.7915,5.7509,5.6765,5.6021,5.5277,5.4532,5.3788,5.3518,5.3416,5.2638,5.2334,5.2266,5.1522,5.1217,5.1082,5.0304,4.912,4.7906,4.7906,4.7428,4.6684,4.6007,4.5229,4.4682,4.4682,4.4079,4.3477,4.3477,4.3443,4.3071,4.161,4.1271,4.1035,4.0282,4.0113,4.0113,4.0113,3.9512,3.8565,3.7134,3.6197,3.5397,3.4675,3.3931,0.0,3.3423,3.278,3.1785,3.0378,3.0156,3.0005,2.961,2.954,2.9394,2.9032,2.9006,2.8703,2.7989,2.7968,2.8136,2.8435,2.9624,3.0222,3.0222,0.0,0.0,0.0,0.0,0.0,0.0,0.0,0.0,0.0,0.0,0.0,0.0,0.0,0.0,0.0,0.0,0.0,0.0,0.0,0.0,0.0,4.9052,5.2097,5.1995,5.5513,5.8893,6.1129,6.3226,6.3937,6.2584,6.2821,6.2922,6.2584,6.2584,6.2753,6.3193,6.2482,6.211,6.211,6.211,6.1637,6.0689,6.0689,6.0013,5.8693,5.9235,5.893,5.7915,5.8457,5.8017,5.6765,5.6021,5.5277,5.4532,5.3788,5.3518,5.3484,5.3281,5.3179,5.3078,5.23,5.1319,5.0304,4.956,4.9052,4.8714,4.8714,4.8206,4.7564,4.7331,4.6786,4.6177,4.6177,4.5635,4.5094,4.5094,4.4654,4.4012,4.3031,4.2388,4.1779,4.1068,4.0485,4.0113,4.0113,3.9943,3.9503,3.8556,3.7787,3.7009,3.6288,3.5047,0.0,3.4201,3.3558,3.2949,3.2544,3.2002,3.1656,3.1536,3.0568,2.989,2.9811,2.9505,2.9271,2.9062,2.9347,2.9531,2.9636,3.029,3.064,0.0,0.0,0.0,0.0,0.0,0.0,0.0,0.0,0.0,0.0,0.0,0.0,0.0,0.0,0.0,0.0,0.0,0.0,0.0,0.0,0.0,0.0,5.2638,5.6021,5.7476,5.9539,6.1772,6.414,6.5459,6.6,6.5561,6.5527,6.5358,6.4918,6.4613,6.441,6.441,6.3429,6.2854,6.2854,6.255,6.2042,6.1298,6.096,6.0182,5.9032,5.9133,5.8727,5.7915,5.8355,5.7746,0.0,5.5919,5.5108,5.4093,5.3687,5.3518,0.0,0.0,0.0,0.0,0.0,5.1352,5.0033,4.9593,4.9255,4.9018,4.9018,4.8714,4.8308,4.7973,4.7597,4.7192,4.6887,4.6278,4.5703,4.5703,4.5128,4.4344,4.32,4.2625,4.2016,4.0967,4.0417,4.0113,4.0113,0.0,0.0,3.9537,3.8599,3.7753,3.7313,3.596,3.4979,3.4979,3.4336,3.3626,3.3017,3.2564,3.2158,3.1887,3.1055,0.0,0.0,0.0,2.9607,2.9316,2.9639,0.0,0.0,0.0,3.1178,3.15,0.0,0.0,0.0,3.0929,3.0734,0.0,0.0,0.0,0.0,0.0,0.0,0.0,0.0,0.0,0.0,0.0,0.0,0.0,0.0,0.0,0.0,5.5886,5.893,6.326,6.3971,6.4478,6.5764,6.644,6.6846,6.6914,6.688,6.6812,6.6812,6.6102,6.5696,6.5696,0.0,0.0,0.0,0.0,6.2178,6.1434,6.0723,5.9945,5.9133,5.8558,5.8152,5.7881,5.7983,5.7205,5.5817,5.575,5.4938,5.3619,5.3551,5.3518,5.3518,5.3518,5.3518,5.3382,5.2503,5.1352,0.0,5.0033,0.0,0.0,4.9018,4.9018,4.8883,4.821,4.8007,4.7868,4.7124,4.638,4.5805,4.5737,4.5128,4.4276,4.2861,4.2489,4.2016,4.0654,4.0282,4.0214,4.0113,4.0113,4.0113,4.0113,3.8937,3.799,3.7922,3.6648,3.5701,3.56,3.5047,3.41,3.2801,0.0,0.0,3.163,3.1562,3.1258,3.0514,3.0412,3.004,2.9416,2.9573,3.0041,3.075,3.1162,3.1729,3.24,3.245,3.245,3.2381,3.1428,3.1127,0.0,0.0,0.0,0.0,0.0,0.0,0.0,0.0,0.0,0.0,0.0,0.0,0.0,0.0,0.0,5.5615,5.9066,6.2448,6.5696,6.6677,6.7151,6.7421,6.7083,6.7049,6.7624,6.7151,6.6812,6.6812,6.6102,6.5696,6.5696,6.485,6.4106,6.3531,6.3362,6.2922,6.2178,6.2009,6.1264,5.9911,0.0,0.0,5.7915,5.8524,5.7983,5.6562,5.5987,5.5209,5.4329,5.3754,5.3518,5.3518,5.3518,5.3518,5.3348,5.1928,5.1251,5.0845,4.9627,4.912,4.9018,4.9018,4.9018,4.8984,4.8849,4.8781,0.0,4.7902,4.7158,4.6447,4.5838,4.5128,4.4513,4.4242,4.3673,4.2963,4.2049,4.1407,4.0798,4.0214,4.0113,4.0113,4.0113,3.9368,3.8599,3.799,3.7144,3.6332,3.5667,3.5464,3.5261,3.4991,3.4957,3.4675,3.3931,3.3863,3.3558,3.2814,3.2205,3.1819,3.1684,3.1152,3.0919,3.1108,3.1508,3.1776,3.1933,3.2298,3.2298,3.1933,3.2101,3.2194,0.0,0.0,0.0,0.0,0.0,0.0,0.0,0.0,0.0,0.0,0.0,4.9357,5.0507,0.0,5.6224,5.9607,6.2042,6.4275,6.6508,6.7117,6.7658,6.8402,6.7827,6.7489,6.7861,6.7252,6.6812,6.6812,6.6474,6.6237,6.6237,6.5561,6.4986,6.4613,6.3903,6.3328,6.2956,6.2212,6.1467,6.0689,6.0351,5.9573,5.8457,5.8457,5.7848,5.6765,5.6021,5.5277,5.4532,5.3788,5.3518,5.3518,5.3518,5.3247,5.2807,5.2029,5.1522,5.1048,4.9932,4.956,4.9492,4.912,4.9018,4.9018,4.9018,4.9018,4.8917,4.8578,4.7665,4.6718,4.6346,4.5432,4.4513,4.4079,4.3707,4.3105,4.1982,4.1474,4.0967,4.0248,4.0113,4.0113,4.0113,3.9808,3.93,3.8565,3.7483,3.666,3.6265,3.5859,3.5464,3.5081,3.5047,3.4742,3.3998,3.3964,3.3795,3.3423,3.3051,3.2848,3.2848,3.251,3.2138,3.1752,3.2329,3.2241,3.1507,3.249,3.2662,3.2055,3.2662,3.2533,0.0,0.0,0.0,0.0,0.0,0.0,0.0,4.6447,4.7293,4.9021,5.105,5.3315,5.5886,5.7679,5.9844,6.3193,6.4343,6.5324,6.6812,6.7015,6.7523,6.8944,6.8267,6.7861,6.8301,6.7421,6.688,6.7015,6.688,6.6812,6.6812,6.6237,6.5764,6.5493,6.4343,6.3599,6.3294,6.211,6.1434,6.1298,6.0047,5.9302,5.8998,5.8389,5.7645,5.6765,5.5886,5.5074,5.4329,5.3754,5.3518,5.3518,5.3518,5.3112,5.2503,5.2367,5.1928,5.1319,5.0574,5.0202,4.9999,4.939,4.912,4.9018,4.9018,4.9018,4.8984,4.8849,4.7834,4.6752,4.6616,4.5596,4.4445,4.3809,4.3639,4.3267,4.1914,4.1644,4.1373,4.0485,4.0316,4.0282,4.0113,4.0113,3.9842,3.9106,3.8014,3.7134,3.6829,3.6231,3.5554,3.4776,3.4709,3.4472,3.3897,3.3829,3.3829,3.3829,3.3694,3.3626,3.3626,3.3491,3.3119,3.253,3.3085,3.2814,3.163,3.2814,3.3085,3.253,3.3119,3.2747,4.6819,4.4756,4.3504,4.594,4.5094,4.4998,0.0,5.1014,5.1388,5.4228,5.6089,5.7442,5.8457,6.0419,6.2448,6.4208,6.5087,6.6068,6.7557,6.7793,6.8098,6.8977,6.7827,6.7726,6.9722,6.803,6.7083,6.7726,6.7184,6.6812,6.6812,6.6745,6.6102,6.4749,6.4546,6.3835,6.2516,6.2347,6.1941,6.1298,6.1129,6.0351,5.9032,5.893,5.8118,5.6731,5.531,5.4296,5.3619,5.3551,5.3518,5.3518,5.3518,5.345,5.3281,5.257,5.2266,5.2063,5.1352,5.0642,5.0067,4.9999,4.9526,4.9018,4.9018,4.9018,4.8883,4.821,4.7428,4.665,4.6007,4.5196,4.4581,4.4513,4.4479,4.4215,4.3335,4.3139,4.2733,4.1339,4.1068,4.0865,4.0214,4.0113,3.9842,3.9106,3.887,3.8285,3.6965,3.6728,3.6366,3.5566,3.5464,3.543,3.5363,3.5329,3.5329,3.5329,3.4742,3.437,3.437,3.3761,3.3355,3.3288,3.3355,3.3322,3.3152,3.3322,3.3355,3.3288,3.3355,3.3322,4.7225,4.6177,4.5771,4.6583,4.7361,4.8714,5.1623,5.3112,5.4431,5.6528,5.8863,6.0858,6.2042,6.3396,6.4647,6.573,6.6136,6.6576,6.7184,6.688,6.6576,6.6474,6.5527,6.5933,6.8605,6.7624,6.6948,6.7252,6.6981,6.6812,6.6812,6.6406,6.6068,6.5899,6.5053,6.4309,6.37,6.326,6.2685,6.1941,6.1501,6.0723,5.9641,5.9201,5.7983,5.6122,5.504,5.416,5.3518,5.3518,5.3518,5.3518,5.3518,5.3518,5.345,5.3112,5.301,5.2875,5.2131,5.1352,5.0676,5.0236,4.9593,4.9018,4.9018,4.9018,4.8951,4.8646,4.8003,4.7394,4.7056,4.6447,4.5872,4.5872,4.5534,4.5026,4.4248,4.3741,4.3071,4.2049,4.1508,4.1102,4.0798,4.0383,4.0011,3.9706,3.9276,3.8768,3.8183,3.7337,3.6694,3.6332,3.6299,3.6299,3.6299,3.6299,3.6096,3.5633,3.5295,3.5148,3.5148,3.4822,3.4506,3.4032,3.4472,3.4247,3.3423,3.4247,3.4472,3.4066,3.4506,3.4687,4.6989,4.7022,4.7564,4.7428,4.9661,5.2097,5.3044,5.5141,5.734,5.8829,6.1028,6.3091,6.4377,6.5189,6.5865,6.6406,6.6677,6.6745,6.6542,6.5696,6.4816,6.4072,6.3159,6.3497,6.5865,6.5967,6.617,6.6779,6.6609,6.6609,6.6812,6.6305,6.6136,6.6508,6.5256,6.4512,6.4309,6.3565,6.2922,6.2381,6.1839,6.1061,6.0047,5.893,5.7408,5.5683,5.4905,5.416,5.3518,5.3518,5.3518,5.3518,5.3518,5.3518,5.3518,5.3518,5.3518,5.3382,5.257,5.1826,5.1082,5.0338,4.9593,4.9018,4.9018,4.9018,4.9018,4.9018,4.8477,4.7906,4.7906,4.7361,4.6786,4.6786,4.638,4.5872,4.5326,4.4587,4.3842,4.3064,4.232,4.1677,4.1271,4.0764,4.035,4.0146,3.9673,3.9208,3.9005,3.7889,3.71,3.71,3.71,3.71,3.71,3.71,3.684,3.6276,3.6242,3.6242,3.6242,3.6242,3.5893,3.5148,3.5656,3.5318,3.4032,3.5059,3.5329,3.481,3.5329,3.56,4.594,4.6278,4.7158,4.8578,5.1217,5.3822,5.5277,5.7881,6.0385,6.1941,6.2922,6.37,6.4478,6.5189,6.5696,6.573,6.6339,6.6542,6.5831,6.4478,6.3294,6.255,6.1129,6.0554,6.1434,6.2787,6.4512,6.6643,6.6136,6.6034,6.6779,6.6779,6.644,6.5764,6.4986,6.4275,6.3565,6.2787,6.2415,6.2381,6.2381,6.1569,6.0047,5.7848,5.6461,5.5683,5.4905,5.416,5.3518,5.3518,5.3518,5.3518,5.3518,5.3518,5.3518,5.3518,5.3518,5.3382,5.257,5.1826,5.1082,5.0338,4.9593,4.9018,4.9018,4.9018,4.9018,4.9018,4.8477,4.7906,4.7906,4.7361,4.6786,4.6786,4.6786,4.6752,4.6718,4.6143,4.5399,4.4682,4.3876,4.2868,4.1474,4.117,4.0933,4.0214,4.0079,3.9808,3.9073,3.8328,3.7889,3.7889,3.7889,3.7889,3.7889,3.7889,3.7855,3.7855,3.7855,3.7855,3.7855,3.7855,3.7483,3.6761,3.6761,3.6366,3.5532,3.5566,3.56,3.5566,3.56,3.56,4.6481,4.8409,5.0811,5.2334,5.4566,5.707,5.9573,6.0892,6.1907,6.2922,6.255,6.1941,6.167,6.1434,6.1738,6.326,6.414,6.4884,6.5595,6.5256,6.3768,6.052,6.0114,5.9438,5.7746,6.0283,6.2956,6.5189,6.5121,6.5493,6.6745,6.6339,6.617,6.644,6.5696,6.4986,6.4241,6.3971,6.3362,6.2381,6.1366,6.0588,6.0013,5.7814,5.6393,5.5683,5.4905,5.416,5.3518,5.3518,5.3518,5.3518,5.3518,5.3518,5.3518,5.3518,5.3518,5.345,5.3179,5.2266,5.1251,5.1488,5.0405,4.9086,4.9593,4.939,4.9018,4.9018,4.8815,4.8646,4.8646,4.8443,4.8274,4.8274,4.7902,4.753,4.753,4.6583,4.5635,4.5365,4.4282,4.324,4.276,4.1847,4.0933,4.0214,4.0113,3.9842,3.9073,3.8768,3.8633,3.8633,3.8633,3.8633,3.8633,3.8633,3.843,3.7922,3.7922,3.7922,3.7922,3.7922,3.7787,3.7516,3.7516,3.7144,3.64,3.64,3.64,3.6366,3.5859,3.5893,4.8477,5.1082,5.389,5.5378,5.7442,5.9607,6.1569,6.1772,6.1569,6.1501,6.0114,5.866,5.7881,5.7137,5.7543,6.0317,6.1197,6.2313,6.458,6.3971,6.2448,6.0114,5.9539,5.866,5.707,5.9066,6.1298,6.326,6.3903,6.485,6.6339,6.6203,6.6305,6.6812,6.5831,6.5087,6.4613,6.4072,6.3328,6.2381,6.0825,6.0114,6.0047,5.8084,5.6799,5.6055,5.531,5.4566,5.3856,5.3619,5.3518,5.3518,5.3518,5.3518,5.3518,5.3518,5.3518,5.345,5.3179,5.2435,5.1623,5.186,5.0947,4.9864,5.0338,4.9965,4.939,4.939,4.9187,4.9052,4.9323,4.939,4.9458,4.9729,4.9221,4.8714,4.8714,4.753,4.6413,4.6143,4.5094,4.4051,4.3477,4.2185,4.1035,4.0561,4.0282,3.9943,3.9445,3.9402,3.9402,3.9402,3.9402,3.9402,3.9402,3.9402,3.9174,3.8734,3.87,3.87,3.87,3.87,3.8565,3.8294,3.8294,3.7922,3.7178,3.7178,3.7178,3.7178,3.6671,3.6705,5.1792,5.4296,5.6393,5.778,5.9742,6.1366,6.1298,6.0588,5.9505,5.8017,5.5886,5.4059,5.3315,5.2638,5.345,5.7171,5.7915,5.9302,6.3091,6.1197,5.9911,6.1197,5.9471,5.8423,5.8998,5.9066,5.9708,6.1231,0.0,6.414,6.5662,6.644,6.6812,6.6812,6.5425,6.4647,6.4613,6.3125,6.2381,6.2381,6.0825,6.0114,6.0047,5.8558,5.7476,5.6765,5.6089,5.531,5.4532,5.3856,5.3551,5.3518,5.3518,5.3518,5.3518,5.3518,5.3518,5.3382,5.2638,5.2334,5.2198,5.1555,5.1252,5.1217,5.1251,5.0744,5.0135,5.0135,4.9661,4.9255,4.9965,5.0135,5.0338,5.1048,5.0642,5.0101,5.0101,4.8951,4.7669,4.6989,4.6244,4.5229,4.3646,4.2219,4.1238,4.1204,4.0561,4.0113,4.0113,4.0113,4.0113,4.0113,4.0113,4.0113,4.0113,4.0113,4.0113,4.0113,4.0113,4.0113,4.0113,4.0113,3.9774,3.9073,3.9039,3.87,3.7956,3.7956,3.7956,3.7956,3.7922,3.7922,5.5649,5.8524,6.0791,6.1163,6.167,6.1975,6.1434,5.9404,5.7205,5.575,5.2773,5.0033,4.8748,4.9255,5.1285,5.5581,5.8118,6.0858,6.4613,6.4952,6.414,6.2313,6.2076,6.1501,5.9979,5.981,6.0452,0.0,6.2448,6.3802,6.6373,6.6711,6.6812,6.6812,6.5899,6.5155,6.4613,6.3125,6.2381,6.2381,6.0825,6.0114,6.0047,5.8558,5.7476,5.6799,5.6596,5.5784,5.4566,5.4397,5.3991,5.3518,5.3518,5.3518,5.3518,5.3518,5.3518,5.3484,5.3281,5.2807,5.2367,5.2773,5.2164,5.1286,5.186,5.1522,5.0913,5.0913,5.0777,5.071,5.0879,5.0913,5.098,5.1183,5.0642,5.0101,5.0101,4.8951,4.7838,4.7665,4.6583,4.5229,4.3646,4.2625,4.1847,4.1271,4.0561,4.0113,4.0113,4.0113,4.0113,4.0113,4.0113,4.0113,4.0113,4.0113,4.0113,4.0113,4.0113,4.0113,4.0113,4.0113,4.0011,3.9842,3.9842,3.9469,3.8734,3.8734,3.8734,3.87,3.8159,3.8193,6.0013,6.2076,6.3362,6.3362,6.2618,6.1467,5.9708,5.7002,5.4126,5.1657,4.8714,4.621,4.5026,4.5771,4.8003,5.2503,5.575,5.9201,6.3632,6.4613,6.4613,6.3903,6.3937,6.3497,6.2212,6.2076,6.2584,6.3734,6.326,6.3903,6.6203,6.6643,6.6677,6.6339,6.5595,6.4715,6.3632,6.2787,6.2381,6.2381,6.0825,6.0114,6.0047,5.8558,5.7679,5.7273,0.0,5.6325,5.5547,5.5209,5.4634,5.3991,5.3991,5.3788,5.3518,5.3518,5.3518,5.3518,5.3518,5.3213,5.2909,5.3348,5.2909,5.23,5.2706,5.23,5.1691,5.1691,5.1454,5.1252,5.1623,5.1691,5.1792,5.2131,5.1386,5.0574,5.0574,4.9424,4.8308,4.7939,4.6718,4.5432,4.4587,4.3504,4.2523,4.1779,4.1068,4.0485,4.0146,4.0113,4.0113,4.0113,4.0113,4.0113,4.0113,4.0113,4.0113,4.0113,4.0113,4.0113,4.0113,4.0113,4.0113,4.0113,4.0113,3.991,3.9503,3.9503,3.9503,3.9445,3.9039,3.9073,6.4275,6.5053,6.4986,6.4783,6.2922,6.0317,5.7205,5.4025,5.071,4.709,4.4621,4.2895,4.2117,4.2794,4.4959,4.9627,5.2739,5.6528,6.2042,6.2753,6.3463,6.5595,6.529,6.4884,6.4884,6.4816,6.5053,6.5764,6.458,6.441,6.5764,6.644,6.644,6.5561,6.485,6.3802,6.2415,6.2381,6.2381,6.2381,6.0825,6.0114,6.0047,5.8558,5.7881,5.7848,0.0,0.0,5.6765,5.6122,5.5344,5.46,5.46,5.416,5.3518,5.3518,5.3518,5.3518,5.3518,5.3518,5.3518,5.3518,5.3518,5.3518,5.3518,5.301,5.2469,5.2469,5.1995,5.1657,5.23,5.2469,5.2638,5.3348,5.2401,5.132,5.1219,5.0067,4.8781,4.8041,4.6887,4.594,4.5737,4.4519,4.3301,4.2557,4.1745,4.0967,4.035,4.018,4.0113,4.0113,4.0113,4.0113,4.0113,4.0113,4.0113,4.0113,4.0113,4.0113,4.0113,4.0113,4.0113,4.0113,4.0113,4.0113,4.0113,4.0113,4.0113,4.0113,4.0113,4.0113,6.6846,6.732,6.7015,6.5797,6.2888,5.937,5.5784,5.1691,4.777,4.4654,4.2726,4.1373,4.062,4.2083,4.5269,5.098,5.3416,5.7036,6.4106,6.458,6.4816,6.644,6.6508,6.644,6.644,6.5865,6.5831,6.6542,6.5797,6.5696,6.6576,6.6745,6.6203,6.4816,6.4072,6.3294,6.2415,6.2381,6.2381,6.2381,6.0825,6.0114,6.0047,5.8558,5.7881,5.7881,5.7746,0.0,5.6799,5.6664,5.5818,5.46,5.46,5.416,5.3518,5.3518,5.3518,5.3518,5.3518,5.3518,5.3518,5.3518,5.3518,5.3518,5.3518,5.3416,5.3281,5.3281,5.3213,5.3145,5.3281,5.3281,5.3348,5.3484,5.2807,5.1961,5.1352,5.0067,4.8781,4.8041,4.7669,4.7128,4.5906,4.4959,4.4113,4.3335,4.2083,4.117,4.1035,4.0485,4.0113,4.0113,4.0113,4.0113,4.0113,4.0113,4.0113,4.0113,4.0113,4.0113,4.0113,4.0113,4.0113,4.0113,4.0113,4.0113,4.0113,4.0113,4.0113,4.0113,4.0113,4.0113,6.9282,6.9113,6.8064,6.617,6.2279,5.778,5.3281,4.912,4.5331,4.2286,4.1102,4.0493,4.018,4.1914,4.4457,4.7767,5.0202,5.389,6.0182,6.1434,6.2821,6.5865,6.6576,6.6812,6.6812,6.6474,6.644,6.6779,6.6474,6.644,6.6779,6.6068,6.5324,6.4613,6.3497,6.2753,6.2381,6.2381,6.2381,6.2381,6.0825,6.0114,6.0047,5.8558,5.7881,5.7881,5.7881,0.0,5.7374,5.7374,5.6731,5.5716,5.531,5.4735,5.4025,5.3653,5.3518,5.3518,5.3518,5.3518,5.3518,5.3518,5.3518,5.3518,5.3518,5.3518,5.3518,5.3518,5.3518,5.3518,5.3518,5.3518,5.3518,5.3518,5.2604,5.1522,5.0777,4.9763,4.8917,4.8545,4.8173,4.7669,4.6989,4.5906,4.4891,4.4147,4.3064,4.2219,4.1813,4.1441,4.0959,4.018,4.0113,4.0113,4.0113,4.0113,4.0113,4.0113,4.0113,4.0113,4.0113,4.0113,4.0113,4.0113,4.0113,4.0113,4.0113,4.0113,4.0113,4.0113,4.0113,4.0113,7.0703,7.0094,6.8538,6.6271,6.1637,5.6325,5.1251,4.709,4.3565,4.0688,4.0113,4.0113,4.0113,4.1508,4.3166,4.4587,4.6786,5.027,5.5987,5.8084,6.0622,6.4952,6.6271,6.6686,6.644,6.6363,6.6363,6.6363,6.6517,6.6576,6.6576,6.5324,6.4546,6.4377,6.3091,6.2381,6.2381,6.2245,6.2144,6.2144,6.0588,5.9945,6.0047,5.8558,5.7983,5.8118,5.7949,0.0,0.0,5.7881,5.7374,5.6528,5.6122,5.531,5.4296,5.389,5.3653,5.3518,5.3518,5.3518,5.3518,5.3518,5.3518,5.3518,5.3518,5.3518,5.3518,5.3518,5.3518,5.3518,5.3518,5.3518,5.3518,5.3518,5.2435,5.1285,5.071,4.9864,4.9255,4.9255,4.8646,4.8075,4.7906,4.6819,4.5669,4.4925,4.4012,4.3172,4.2625,4.2388,4.1847,4.0688,4.0451,4.035,4.035,4.018,4.0113,4.0113,4.0113,4.0113,4.0113,4.0113,4.0113,4.0113,4.0113,4.0113,4.0113,4.0113,4.0113,4.0113,4.0113,4.0113,7.006,6.9722,6.8538,6.6271,6.1264,5.5716,5.1116,4.6684,4.2861,4.0587,4.0113,4.0113,4.0113,4.0282,4.1568,4.5026,4.5838,4.8545,5.5784,5.8084,6.0419,6.4241,6.5933,6.6354,6.5171,6.5081,6.5081,6.5081,6.5554,0.0,6.5797,6.5019,6.4309,6.3632,6.2821,6.2381,6.2381,6.1738,6.14,6.1366,5.9844,5.9471,6.0047,5.8558,5.8254,5.8863,5.8186,0.0,0.0,5.7881,5.707,5.5886,5.6461,5.5446,5.3687,5.4262,5.4059,5.3518,5.3518,5.3518,5.3518,5.3518,5.3518,5.3518,5.3518,5.3518,5.3518,5.3518,5.3518,5.3518,5.3518,5.3518,5.3518,5.3518,5.2841,5.2198,5.2097,5.098,4.9999,4.9999,4.939,4.8714,4.8007,4.7225,4.6447,4.5703,4.435,4.3375,4.3308,4.2726,4.2252,4.2117,4.1508,4.1102,4.1102,4.0493,4.0113,4.0113,4.0113,4.0113,4.0113,4.0113,4.0113,4.0113,4.0113,4.0113,4.0113,4.0113,4.0113,4.0113,4.0113,4.0113,6.8842,6.9316,6.8436,6.573,6.0216,5.4431,5.0371,4.5635,4.1711,4.0383,4.0113,4.0113,4.0113,4.0113,4.0433,4.1416,4.1227,4.2894,4.8622,5.0293,5.323,5.9339,6.2078,6.3534,6.3724,6.446,6.44,6.3242,6.4023,0.0,6.3324,6.3672,6.3802,6.3531,6.2787,6.2381,6.2381,6.167,6.1298,6.1298,5.9742,5.9167,5.9404,5.8355,5.8051,5.8321,5.8017,0.0,0.0,5.7881,5.7543,5.7002,5.6867,5.6258,5.5412,5.4803,5.4397,5.4093,5.3653,5.3518,5.3518,5.3518,5.3518,5.3518,5.3518,5.3518,5.3518,5.3518,5.3518,5.3518,5.3518,5.3518,5.3518,5.3518,5.2875,5.23,5.23,5.1488,5.0642,5.0168,4.9864,4.9424,4.8714,4.797,4.7225,4.6481,4.5466,4.4621,4.4181,4.3842,4.3701,4.3701,4.2591,4.1847,4.1847,4.1576,4.1204,4.0798,4.0764,4.0561,4.0113,4.0113,4.0113,4.0113,4.0113,4.0113,4.0113,4.0113,4.0113,4.0113,4.0113,4.0113,6.5899,6.7286,6.7151,6.458,5.9066,5.3348,4.9796,4.4959,4.1001,4.0248,4.0113,4.0113,4.0113,4.0113,3.985,3.9016,3.865,3.9891,4.3935,4.5301,4.8394,5.5251,5.7886,5.9886,6.1717,6.3348,6.3534,6.1583,6.2363,0.0,6.123,6.2099,6.2838,6.3193,6.2651,6.2279,6.2076,6.1332,6.0858,6.0622,5.9302,5.8795,5.8998,5.822,5.8017,5.822,0.0,0.0,0.0,5.7881,5.7645,5.7239,5.7171,5.6731,5.6089,5.548,5.5108,5.4803,5.4093,5.3822,5.3788,5.3585,5.3518,5.3518,5.3518,5.3518,5.3518,5.3518,5.3518,5.3518,5.3518,5.3518,5.3518,5.3518,5.3078,5.2672,5.2672,5.2063,5.1386,5.0845,5.0405,4.9932,4.9424,4.8545,4.7665,4.6921,4.6177,4.5432,4.4716,4.4615,4.4615,4.4615,4.3633,4.2861,4.2658,4.2422,4.2083,4.1576,4.1339,4.0967,4.0451,4.0214,4.0214,4.0417,4.0214,4.0214,4.0392,4.0214,4.0113,4.0113,4.0113,4.0113,6.0757,6.299,6.4275,6.2787,5.7915,5.2739,4.9695,4.4959,4.1001,4.0248,4.0113,4.0113,4.0113,4.0113,3.985,3.9016,3.9561,4.1102,4.4067,4.5701,4.8317,5.2977,5.3898,5.5507,5.9028,6.1569,6.2233,6.0291,6.0646,0.0,5.996,6.0348,6.1193,6.2341,6.2381,6.2042,6.1332,6.052,5.9742,5.9032,5.8254,5.8287,5.8998,5.822,5.8287,0.0,0.0,0.0,0.0,5.7881,5.7036,5.5886,5.7306,5.6528,5.4803,5.6224,5.6325,5.5546,5.4837,5.4566,5.4465,5.3754,5.3518,5.3518,5.3518,5.3518,5.3518,5.3518,5.3518,5.3518,5.3518,5.3518,5.3518,5.3518,5.3484,5.3484,5.3484,5.2875,5.23,5.2266,5.1082,5.0101,5.0067,4.8883,4.7665,4.6921,4.6177,4.5432,4.4716,4.4615,4.4615,4.4615,4.4581,4.4248,4.3443,4.2726,4.2286,4.2286,4.161,4.1204,4.1204,4.0493,4.0426,4.117,4.046,4.0485,4.1204,4.0485,4.0113,4.0113,4.0113,4.0113,5.4678,5.6808,5.8051,5.6055,5.2198,4.8409,4.6413,4.3125,4.0383,4.0146,4.0113,4.0113,4.0113,4.0113,4.0355,4.1115,4.1432,4.1884,4.2743,4.5262,4.8449,5.234,5.6822,6.0376,6.2324,6.1152,6.0106,5.9489,5.9523,0.0,5.795,5.9619,6.0787,6.116,6.1991,6.2042,6.1298,5.9795,5.8986,5.8961,5.7444,5.7248,5.8254,5.8017,0.0,0.0,0.0,0.0,0.0,5.7881,5.7611,5.7205,5.7171,5.7036,5.6731,5.5683,5.548,5.5547,5.4296,5.3856,5.3822,5.3585,5.3518,5.3518,5.3518,5.3518,5.3518,5.3518,5.3518,5.3518,5.3518,5.3518,5.3518,5.3518,5.3518,5.3518,5.3518,5.3315,5.2976,5.2401,5.1522,5.071,5.0168,4.9289,4.8409,4.7665,4.6921,4.6177,4.5432,4.4891,4.4615,4.4615,4.4615,4.4513,4.4215,4.4005,4.3639,4.3098,4.2801,4.2489,4.1982,4.1711,4.1711,4.1948,4.1711,4.1711,4.1948,4.1711,4.1576,4.1602,4.0587,4.0383,4.8726,5.1222,5.284,5.1463,4.8731,4.6075,4.4886,4.2279,4.0003,3.9714,3.9636,3.9636,3.9636,3.9428,3.962,4.0805,4.0779,4.0921,4.1917,4.4196,4.724,5.1153,5.7473,6.126,6.072,6.0361,5.9686,5.843,0.0,0.0,5.636,5.8177,5.9226,5.9226,6.0605,6.0786,5.9577,5.8175,5.742,5.7321,5.6552,5.6586,5.7297,5.7701,0.0,0.0,0.0,0.0,0.0,5.6846,5.6671,5.6193,5.5762,5.57,5.5771,5.5038,5.4948,5.4984,5.4192,5.3923,5.3856,5.3585,5.3518,5.3416,5.3041,5.3179,5.3518,5.3518,5.3518,5.3518,5.3518,5.3518,5.3518,5.3518,5.3518,5.3518,5.3518,5.3518,5.3348,5.2841,5.1928,5.1082,5.0574,4.9661,4.8748,4.8007,4.753,4.6955,4.621,4.5703,4.5326,4.5026,4.4993,4.4919,4.4615,4.4615,4.4412,4.3876,4.3572,4.3172,4.2726,4.2455,4.2422,4.2726,4.2422,4.2422,4.2726,4.2422,4.2286,4.2286,4.1365,4.117,0.0,4.6028,4.8299,4.82,4.6717,4.5042,4.4361,4.2057,0.0,3.9156,3.8935,3.8908,3.8974,3.8334,3.8084,3.9035,3.8687,3.9131,4.1693,4.342,4.5984,5.0321,5.6633,5.9377,5.6012,5.9353,6.046,5.7488,0.0,0.0,5.5239,5.6347,5.696,5.6834,5.8397,5.8447,5.6701,5.5954,5.525,5.463,5.5498,5.6008,5.6126,5.7118,0.0,0.0,0.0,0.0,0.0,5.5018,5.4496,5.3428,5.3446,5.3061,5.2701,5.4228,5.4448,5.4047,5.4319,5.4464,5.4397,5.3653,5.3382,5.3179,5.2134,5.2592,5.345,5.3416,5.3416,5.3518,5.3518,5.3518,5.3518,5.3518,5.3518,5.3484,5.3382,5.345,5.3484,5.3314,5.2167,5.1185,5.112,4.9936,4.8781,4.8075,4.7906,4.7665,4.6955,4.6819,4.6515,4.5771,4.5771,4.5466,4.4682,4.4615,4.4615,4.4615,4.391,4.3504,4.3504,4.2828,4.2794,4.3443,4.2794,4.2794,4.3477,4.2726,4.2388,4.2455,4.2354,4.232,3.7549,0.0,4.1132,4.0552,4.0492,4.0437,0.0,4.0165,4.0062,3.9876,3.9342,3.9045,3.9578,3.863,3.8789,4.1789,4.264,4.309,4.352,4.9192,5.4158,5.6515,6.1072,6.302,6.0437,5.9448,5.8899,0.0,0.0,5.5897,5.5239,5.6347,5.6344,5.4896,5.5627,5.629,5.6701,5.5172,5.4447,5.4589,5.3999,5.4137,5.497,5.4705,0.0,0.0,0.0,0.0,5.3839,5.3922,5.3528,5.2781,5.2204,5.2236,5.2501,5.1797,5.2243,5.3214,5.2702,5.3069,5.3619,5.2624,5.2277,5.2098,5.1043,5.2026,5.3348,5.2522,5.287,5.3518,5.3518,5.3518,5.3518,5.3518,5.3518,5.328,5.2418,5.2904,5.3041,5.1447,5.1153,5.0956,5.0191,4.9453,4.8951,4.8781,4.8244,4.7838,4.7665,4.7158,4.6515,4.5771,4.621,4.6007,4.4716,4.4615,4.4615,4.4615,4.4445,4.4316,4.4316,4.4175,4.4141,4.4316,4.4175,4.4141,4.4316,4.3538,4.347,4.4039,4.2828,4.2591,3.5686,3.666,3.7766,3.7358,3.8104,3.8908,3.8908,3.9532,3.9978,3.9636,3.9209,3.9013,3.9347,3.8248,3.825,4.1242,4.1768,4.278,4.5667,5.0871,5.5669,5.9037,6.1477,6.2491,0.0,5.9684,5.8339,0.0,0.0,5.5568,5.5209,5.5516,5.5232,5.4221,5.388,5.4006,5.4617,5.3376,5.2823,5.3033,5.2945,5.3065,5.3397,5.356,5.3359,0.0,0.0,0.0,5.1639,5.1842,5.156,5.1036,5.032,5.0289,5.0622,5.025,5.0556,5.107,5.1172,5.1594,5.199,5.141,5.1192,5.1005,4.997,5.0779,5.2062,5.1921,5.2662,5.3382,5.2904,5.3144,5.328,5.231,5.2451,5.2487,5.1447,5.2026,5.2277,5.0703,5.0713,5.0825,5.0276,4.9725,4.9353,4.9497,4.9187,4.8781,4.8477,4.8071,4.753,4.6786,4.709,4.6853,4.5732,4.5602,4.5326,4.4649,4.4615,4.4615,4.4615,4.4615,4.4615,4.4615,4.4615,4.4615,4.4615,4.4147,4.4181,4.4581,4.3768,4.3572,3.612,3.6531,3.7002,3.6538,3.7592,3.865,3.8553,3.9262,3.9688,3.8881,3.8827,3.8887,3.8876,3.7875,3.7805,4.0046,4.029,4.2395,4.8747,5.1638,5.4873,5.9594,6.0315,0.0,6.0687,5.9556,0.0,0.0,0.0,5.5029,5.5029,5.4401,5.4012,5.3892,5.2785,5.2157,5.2067,5.1498,5.1169,5.1079,5.2047,5.214,5.1536,5.2408,5.201,0.0,0.0,0.0,4.9164,4.9518,4.9408,4.897,4.8356,4.8147,4.8249,4.9108,4.9171,4.8932,5.0009,5.0397,5.0358,5.0204,5.0165,4.997,4.8882,4.9296,5.032,5.1192,5.2312,5.3076,5.2134,5.2697,5.3007,5.1112,5.1266,5.1561,5.0397,5.0968,5.1303,5.0165,5.0273,5.0517,5.0373,4.9962,4.9788,4.9984,5.0141,4.9999,4.9255,4.9187,4.8849,4.7973,4.7973,4.7733,4.6853,4.6887,4.638,4.5021,4.4953,4.4953,4.4953,4.4852,4.4818,4.4953,4.4953,4.4953,4.4953,4.4953,4.4953,4.4953,4.4953,4.4953,3.8024,3.88,3.8865,3.6302,3.6751,3.7622,3.7089,3.8044,3.8854,3.8104,3.8469,3.8887,3.8853,3.8999,3.9942,4.2395,4.5391,4.9244,5.4607,5.6443,5.7948,5.9692,0.0,6.0947,5.8566,0.0,0.0,0.0,0.0,5.4371,5.4371,5.3713,5.3084,5.2516,5.2306,5.1947,5.1379,5.1259,5.093,5.0345,5.0545,5.0276,4.9689,4.9293,4.9263,0.0,0.0,4.8769,4.8461,4.8517,4.8173,4.7608,4.7489,4.7459,4.7459,4.7602,4.8164,4.8932,5.0009,5.0397,5.0242,4.9336,4.9054,4.8882,4.7849,4.821,4.9054,4.9215,5.0633,5.2101,5.1957,5.2697,5.3179,5.1957,5.1813,5.1377,4.9456,4.9891,5.0048,4.8157,4.8724,4.9266,4.831,4.9029,4.9714,4.9752,5.0492,5.0777,5.0033,4.9932,4.939,4.8041,4.8477,4.8274,4.6921,4.7361,4.7394,4.6515,4.6447,4.6447,4.6447,4.5872,4.5805,4.6447,4.6447,4.6447,4.6447,4.6447,4.6447,4.6447,4.6447,4.6447,3.8082,3.8435,3.8588,3.806,3.9,3.9503,3.7561,3.8009,3.884,3.8878,3.8856,3.9037,3.9713,4.0285,4.1744,4.4923,4.8419,5.1676,5.437,5.5804,5.745,0.0,0.0,5.9012,5.908,0.0,0.0,0.0,0.0,0.0,5.3683,5.3025,5.2516,5.2217,5.1858,5.1349,5.0644,5.0644,5.0495,5.0196,4.9883,4.9374,4.876,4.8416,4.8267,4.8177,0.0,4.7758,4.7758,4.7758,4.7578,4.7309,4.7309,4.7309,4.7309,4.7309,4.7624,4.8072,4.8543,4.8749,4.8625,4.8157,4.7988,4.7904,4.7452,4.7593,4.7988,4.7988,4.9496,5.0968,5.0365,5.1005,5.141,4.9813,4.9852,4.9781,4.8293,4.88,4.9085,4.7581,4.8255,4.8866,4.8385,4.882,4.9277,4.9479,5.034,5.0593,4.9459,4.9326,4.912,4.8551,4.8344,4.8149,4.8007,4.784,4.7445,4.6824,4.6786,4.6786,4.6786,4.6481,4.6447,4.6786,4.6786,4.6786,4.6786,4.6786,4.6786,4.6786,4.6786,4.6786,3.8235,3.8364,3.8623,3.9467,4.0511,4.0959,3.9534,3.9344,3.9749,4.061,4.0451,4.0324,4.0831,4.2103,4.4216,4.7662,5.1072,5.3555,5.4451,5.5448,5.7079,5.9635,5.8001,5.732,0.0,0.0,0.0,0.0,0.0,0.0,5.2965,5.2336,5.1977,5.1977,5.1319,5.0704,5.0196,4.9897,4.9747,4.9717,4.9284,4.8686,4.8057,4.8057,4.7788,4.7309,4.7309,4.7309,4.7309,4.7309,4.7309,4.7309,4.7309,4.7309,4.7309,4.7309,4.7309,4.7309,4.7309,4.7309,4.7309,4.7309,4.7309,4.7309,4.7309,4.7309,4.7309,4.7309,4.8418,4.9536,4.8932,4.9575,4.9931,4.8072,4.8252,4.8512,4.7538,4.7904,4.821,4.7452,4.7904,4.846,4.846,4.8636,4.8867,4.9124,5.0052,5.0249,4.8938,4.8982,4.9127,4.8946,4.8264,4.8001,4.8322,4.7868,4.734,4.6686,4.6746,4.6955,4.7293,4.7158,4.7124,4.7293,4.7327,4.7327,4.7327,4.7327,4.7327,4.7327,4.7327,4.7327,3.951,4.0223,4.0513,3.9058,3.8873,3.9902,4.3234,4.2685,4.1909,4.338,4.4004,4.37,4.1845,4.4845,4.8271,5.0516,5.3979,5.6922,5.8481,0.0,5.8913,5.9171,5.8464,5.7596,0.0,0.0,0.0,0.0,0.0,0.0,5.2276,5.1648,5.1289,5.1289,5.0614,5.0255,5.0196,4.9045,4.8416,4.8416,4.8386,4.8027,4.7369,4.7369,4.7369,4.7309,4.7309,4.7309,4.7309,4.7309,4.7309,4.7309,4.7309,4.7309,4.7309,4.7309,4.7309,4.7309,4.7309,4.7309,4.7309,4.7309,4.7309,4.7309,4.7309,4.7309,4.7309,4.7309,4.7439,4.7722,4.8553,4.9575,5.0126,4.8932,4.8759,4.8512,4.7538,4.7352,4.7366,4.7309,4.7352,4.7409,4.7409,4.8168,4.881,4.8829,4.9718,5.0121,4.9352,5.0066,5.0142,4.8759,4.8627,4.8026,4.6518,4.7138,4.7207,4.6325,4.657,4.7394,4.8781,4.8206,4.8142,4.8849,4.8849,4.8849,4.8849,4.8849,4.8849,4.8849,4.8849,4.8849,3.9764,4.0922,4.1678,4.1045,4.1256,4.1874,4.2974,4.3032,4.3206,4.4517,4.5614,4.6072,4.5304,4.7494,4.9887,5.1533,5.5049,5.7622,5.7835,5.856,5.88,5.7962,5.7304,0.0,0.0,0.0,0.0,0.0,0.0,0.0,5.099,5.0361,5.0002,5.0002,4.9763,4.9434,4.9015,4.8536,4.8087,4.7668,4.7668,4.7549,4.7309,4.7309,4.7309,4.7309,4.7309,4.7309,4.7309,4.7309,4.7309,4.7309,4.7309,4.7309,4.7309,4.7309,4.7309,4.7309,4.7309,4.7309,4.7309,4.7309,4.7309,4.7309,4.7309,4.7309,4.7309,4.7309,4.7309,4.7366,4.7764,4.8157,4.8366,4.7946,4.7892,4.7764,4.7366,4.7309,4.7309,4.7309,4.7309,4.7309,4.7309,4.7624,4.7892,4.7892,4.8759,4.9125,4.8396,4.866,4.8647,4.7816,4.7376,4.667,4.5447,4.6173,4.6314,4.5379,4.6005,4.6683,4.724,4.6977,4.7243,4.8129,4.8561,4.8853,4.9018,4.9458,4.9458,4.9018,4.9018,4.9018,3.9584,4.0276,4.0976,4.1399,4.1976,4.2815,4.4049,4.4572,4.5471,4.7843,4.8109,4.7938,4.7938,4.8865,5.0182,5.1917,5.5179,5.7483,5.7423,5.8231,5.8291,5.6944,5.6436,0.0,0.0,0.0,0.0,0.0,0.0,0.0,0.0,4.9494,4.9299,4.9299,4.912,4.8745,4.8297,4.8087,4.7758,4.7309,4.7309,4.7309,4.7309,4.7309,4.7309,4.7309,4.7309,4.7309,4.7309,4.7309,4.7309,4.7309,4.7309,4.7309,4.7309,4.7309,4.7309,4.7309,4.7309,4.7309,4.7309,4.7309,4.7309,4.7309,4.7309,4.7309,4.7309,4.7309,4.7309,4.7309,4.7309,4.7309,4.7309,4.7309,4.7309,4.7309,4.7309,4.7309,4.7309,4.7309,4.7309,4.7309,4.7309,4.7309,4.7309,4.7309,4.7892,4.811,4.765,4.7916,4.7839,4.7188,4.6725,4.5986,4.4742,4.5509,4.5714,4.4972,4.5552,4.6097,4.649,4.6525,4.6904,4.7756,4.7856,4.8163,4.8729,4.8827,4.8827,4.8729,4.8296,4.8228,3.8908,3.8358,3.8144,3.9491,4.029,4.2096,4.7256,4.7978,4.8912,5.388,5.1957,4.9329,4.9329,4.882,4.9164,5.1768,5.4431,5.6615,5.7902,5.8112,5.7633,5.6316,0.0,0.0,0.0,0.0,0.0,0.0,0.0,0.0,0.0,4.9299,4.9299,4.9299,4.8626,4.8267,4.8267,4.7638,4.7309,4.7309,4.7309,4.7309,4.7309,4.7309,4.7309,4.7309,4.7309,4.7309,4.7309,4.7309,4.7309,4.7309,4.7309,4.7309,4.7309,4.7309,4.7309,4.7309,4.7309,4.7309,4.7309,4.7309,4.7309,4.7309,4.7309,4.7309,4.7309,4.7309,4.7309,4.7309,4.7309,4.7309,4.7309,4.7309,4.7309,4.7309,4.7309,4.7309,4.7309,4.7309,4.7309,4.7309,4.7309,4.7309,4.7309,4.7309,4.7309,4.7309,4.7309,4.8168,4.8314,4.7029,4.7081,4.6379,4.4479,4.5144,4.5577,4.5327,4.5304,4.5877,4.7112,4.7153,4.7472,4.8073,4.6873,4.6841,4.8105,4.6841,4.6873,4.8073,4.6809,4.6589,3.9175,3.9916,4.0877,4.054,4.3071,4.6343,4.9061,4.8898,4.9457,5.4135,5.3086,5.1319,5.1319,5.1169,5.1139,5.1468,5.3743,5.5628,5.6017,5.6466,5.6436,5.5598,0.0,0.0,0.0,0.0,0.0,0.0,0.0,0.0,0.0,4.8147,4.7878,4.7878,4.7698,4.7608,4.7608,4.7399,4.7309,4.7309,4.7309,4.7309,4.7309,4.7309,4.7309,4.7309,4.7309,4.7309,4.7309,4.7309,4.7309,4.7309,4.7309,4.7309,4.7309,4.7309,4.7309,4.7309,4.7309,4.7309,4.7309,4.7309,4.7309,4.7309,4.7309,4.7309,4.7309,4.7309,4.7309,4.7309,4.7309,4.7309,4.7309,4.7309,4.7309,4.7309,4.7309,4.7309,4.7309,4.7309,4.7309,4.7309,4.7309,4.7309,4.7309,4.7309,4.7309,4.7309,4.7309,4.7159,4.6917,4.6524,4.6103,4.5637,4.5046,4.5262,4.5393,4.5316,4.5753,4.5733,4.5166,4.5633,4.5865,4.5778,4.6785,4.7379,4.744,4.8088,4.8275,4.8105,4.7727,4.7444,4.0188,4.1034,4.2045,4.281,4.5617,4.8653,5.0247,5.1463,5.2994,5.5771,5.4551,5.2995,5.2995,5.2336,5.1947,5.2336,5.3982,5.5269,5.5538,5.5927,5.5837,0.0,0.0,0.0,0.0,0.0,0.0,0.0,0.0,0.0,0.0,4.7519,4.7309,4.7309,4.7309,4.7309,4.7309,4.7309,4.7189,4.692,4.692,4.677,4.6501,4.68,4.677,4.6531,4.68,4.707,4.7309,4.7309,4.7309,4.7309,4.7309,4.7309,4.7309,4.7309,4.7309,4.7309,4.7309,4.7309,4.7309,4.7309,4.7309,4.7309,4.7309,4.7309,4.7309,4.7309,4.7309,4.7309,4.7309,4.7309,4.7309,4.7309,4.7309,4.7309,4.7309,4.7309,4.7309,4.7309,4.7309,4.7309,4.7309,4.7309,4.7309,4.7309,4.7309,4.7309,4.7309,4.695,4.6621,4.6309,4.5963,4.5693,4.5693,4.5693,4.5813,4.6082,4.6471,4.6232,4.5155,4.5484,4.5714,4.5816,4.6467,4.6933,4.7247,4.7536,4.7754,4.7768,4.7247,4.6936,4.1338,4.1643,4.2038,4.5537,4.7906,4.981,5.1425,5.4844,5.7697,5.7745,5.5927,5.4311,5.4311,5.2695,5.1977,5.3832,5.461,5.5209,5.5858,5.5948,5.5448,0.0,0.0,0.0,0.0,0.0,0.0,0.0,0.0,0.0,0.0,4.7309,4.7309,4.7309,4.7309,4.7309,4.7309,4.7249,4.692,0.0,4.6262,4.5873,4.5214,4.5903,4.5903,4.5334,4.6022,4.6621,4.713,4.7249,4.7249,4.713,4.7249,4.7279,4.7219,4.7279,4.7309,4.7309,4.7309,4.7309,4.7309,4.7309,4.7309,4.7309,4.7309,4.7309,4.7309,4.7309,4.7309,4.7309,4.7309,4.7309,4.7309,4.7309,4.7309,4.7309,4.7309,4.7309,4.7309,4.7309,4.7309,4.7309,4.7309,4.7309,4.7309,4.7309,4.7309,4.7309,4.7309,4.7309,4.707,4.6471,4.6369,4.6369,4.6369,4.6369,4.6681,4.7279,4.7309,4.704,4.6441,4.6369,4.6621,4.713,4.6052,4.6052,4.7219,4.6052,4.6112,4.7279,4.6052,4.5783,4.038,4.0884,4.1939,4.51,4.9045,5.2852,5.5676,5.5948,5.5546,5.51,5.5029,5.497,5.497,5.3773,5.2905,5.3324,5.3533,5.3653,5.3803,5.3832,5.3713,0.0,0.0,0.0,0.0,0.0,0.0,0.0,0.0,0.0,4.7309,4.7309,4.7309,4.7309,4.7309,4.7309,4.7309,4.68,4.6471,0.0,4.5783,4.5155,4.4556,4.5214,4.5424,4.5334,4.6022,4.6082,4.5813,4.686,4.6681,4.5813,4.689,4.698,4.6591,4.713,4.7309,4.7309,4.7309,4.7309,4.7309,4.7309,4.7309,4.7309,4.7309,4.7309,4.7309,4.7309,4.7309,4.7309,4.7309,4.7309,4.7309,4.7309,4.7309,4.7309,4.7309,4.7309,4.7309,4.7309,4.7309,4.7309,4.7309,4.7309,4.7309,4.7309,4.7309,4.7309,4.7309,4.7309,4.7249,4.71,4.71,4.71,4.71,4.71,4.716,4.7309,4.7309,4.7249,4.71,4.71,4.6651,4.5753,4.6471,4.677,4.6531,4.677,4.701,4.7309,4.701,4.6681,4.0447,4.1602,4.3487,4.7215,5.1215,5.4498,5.56,5.5402,5.4792,5.4152,5.4183,5.4221,5.4221,5.3653,5.3174,5.3174,5.3174,5.3174,5.3174,5.2905,5.2606,0.0,0.0,0.0,0.0,0.0,0.0,0.0,0.0,4.716,4.686,4.683,4.6681,4.6352,4.6352,4.6352,4.6352,4.5992,4.5663,4.5364,4.5005,4.4496,4.3828,4.4197,4.4526,4.4855,4.5214,4.5334,4.5334,4.6052,4.5933,4.5364,4.6052,4.6352,4.6309,4.6711,4.704,4.7309,4.7309,4.7309,4.7309,4.7309,4.7309,4.7309,4.7309,4.7309,4.7309,4.7309,4.7309,4.7309,4.7309,4.7309,4.7309,4.7309,4.7309,4.7309,4.7309,4.7309,4.7309,4.7309,4.7309,4.7309,4.7309,4.7309,4.7309,4.7309,4.7309,4.7309,4.7309,4.7309,4.7309,4.7309,4.7309,4.7309,4.7309,4.7309,4.7309,4.7309,4.7309,4.7309,4.7309,4.7309,4.698,4.6262,4.695,4.713,4.68,4.713,4.7309,4.7309,4.7309,4.713,4.046,4.2456,4.5206,4.9385,5.2387,5.4218,5.3733,5.3816,5.3836,5.3431,5.3067,5.2845,5.2845,5.2665,5.2576,5.2815,5.2755,5.2665,5.2665,5.2187,0.0,0.0,0.0,0.0,0.0,0.0,0.0,0.0,0.0,4.689,4.6309,4.6202,4.5873,4.5304,4.5304,4.5304,4.5304,4.5185,4.4855,4.4317,4.4197,4.3828,4.329,4.329,4.3589,4.4137,4.4257,4.4556,4.4975,4.5185,4.5155,4.4975,4.5214,4.5633,4.613,4.6249,4.6741,4.7309,4.7309,4.7309,4.7309,4.7309,4.7309,4.7309,4.7309,4.7309,4.7309,4.7309,4.7309,4.7309,4.7309,4.7309,4.7309,4.7309,4.7309,4.7309,4.7309,4.7309,4.7309,4.7309,4.7309,4.7309,4.7309,4.7309,4.7309,4.7309,4.7309,4.7309,4.7309,4.7309,4.7309,4.7309,4.7309,4.7309,4.7309,4.7309,4.7309,4.7309,4.7309,4.7309,4.7309,4.7309,4.7309,4.7309,4.7309,4.7309,4.7309,4.7309,4.7309,4.7309,4.7309,4.7309,3.9073,4.1957,4.5362,4.812,4.9035,4.9878,5.2153,5.1308,5.0245,5.103,5.1364,5.1468,5.1468,5.0571,5.0152,5.1289,5.099,5.0584,5.0584,5.0495,0.0,0.0,0.0,0.0,0.0,0.0,0.0,0.0,4.677,4.6369,4.6279,4.5753,4.5394,4.5304,4.5304,4.5304,4.5304,4.4736,4.4407,4.4317,4.3708,4.3379,4.329,4.329,4.3349,4.3469,4.4077,4.4007,4.3648,4.4825,4.4616,4.3678,4.4855,4.5334,4.5514,4.6112,4.6741,4.7309,4.7309,4.7309,4.7309,4.7309,4.7309,4.7309,4.7309,4.7309,4.7309,4.7309,4.7309,4.7309,4.7309,4.7309,4.7309,4.7309,4.7309,4.7309,4.7309,4.7309,4.7309,4.7309,4.7309,4.7309,4.7309,4.7309,4.7309,4.7309,4.7309,4.7309,4.7309,4.7309,4.7309,4.7309,4.7309,4.7309,4.7309,4.7309,4.7309,4.7309,4.7309,4.7309,4.7309,4.7309,4.7309,4.7309,4.7309,4.7309,4.7309,4.7309,4.7309,4.7309,4.7309,4.7309,4.0234,4.1841,4.3846,4.6917,4.8198,4.9197,5.0929,5.0757,5.0235,5.0275,4.9917,4.9673,5.0062,4.9689,4.9509,5.0032,4.9883,4.9703,4.9703,4.9374,0.0,0.0,0.0,0.0,0.0,0.0,0.0,0.0,4.6501,4.595,4.5244,4.4915,4.4586,4.4197,4.4197,4.4197,4.4197,4.3858,4.3738,4.3738,4.3439,4.329,4.329,4.329,4.329,4.3319,4.3589,4.3559,4.3349,4.3958,4.3828,4.3349,4.3917,4.4646,4.5334,4.5633,4.6411,4.7309,4.7309,4.7309,4.7309,4.7309,4.7309,4.7309,4.7309,4.7309,4.7309,4.7309,4.7309,4.7309,4.7309,4.7309,4.7309,4.7309,4.7309,4.7399,4.7788,4.7578,4.7429,4.7788,4.8147,4.8416,4.8416,4.8416,4.8267,4.7908,4.8177,4.8267,4.7908,4.7848,4.7848,4.7848,4.7519,4.7309,4.7309,4.7309,4.7309,4.7309,4.7309,4.7309,4.7309,4.7309,4.7309,4.7309,4.7309,4.7309,4.7309,4.7309,4.7309,4.7309,4.7309,4.7309,3.9962,4.0664,4.1699,4.4411,4.6438,4.811,4.9378,4.9608,4.9595,4.9819,4.8591,4.7755,4.8468,4.8727,4.888,4.903,4.906,4.906,4.906,4.864,0.0,0.0,0.0,0.0,0.0,0.0,0.0,0.0,4.5903,4.5364,4.4377,4.4167,4.3838,4.3319,4.329,4.323,4.309,4.2871,4.2851,4.2851,4.2851,4.294,4.309,4.309,4.314,4.329,4.329,4.329,4.329,4.329,4.329,4.329,4.329,4.4137,4.5304,4.5304,4.6052,4.707,4.7249,4.7189,4.707,4.7249,4.7309,4.7309,4.7309,4.7309,4.7309,4.7309,4.7309,4.7309,4.7309,4.7309,4.7309,4.7309,4.7429,4.7698,4.8177,4.8027,4.7938,4.8446,4.897,4.9299,4.9299,4.9299,4.9149,4.864,4.9,4.9149,4.864,4.8536,4.8536,4.8536,4.8087,4.7818,4.7818,4.7818,4.7818,4.7818,4.7818,4.7818,4.7818,4.7818,4.7818,4.7818,4.7638,4.7489,4.7309,4.7309,4.7309,4.7309,4.7309,4.7309,3.6109,3.7373,3.9056,3.9809,4.2041,4.4701,4.7074,4.6721,4.6629,4.9183,4.7425,4.5714,4.6656,4.7145,4.7608,4.8237,4.8327,4.8327,4.8327,4.8297,0.0,0.0,0.0,0.0,0.0,0.0,0.0,0.0,4.4766,4.4377,4.4317,4.3678,4.3319,4.329,4.329,4.303,4.244,4.1841,4.1474,4.1474,4.1474,4.1841,4.244,4.244,4.2761,4.329,4.329,4.329,4.329,4.329,4.329,4.329,4.329,4.4137,4.5304,4.5304,4.5753,4.6471,4.71,4.689,4.6429,4.71,4.7309,4.7309,4.7309,4.7309,4.7309,4.7309,4.7309,4.7309,4.7309,4.7309,4.7309,4.7309,4.7788,4.8237,4.8267,4.8745,4.9209,4.9239,4.9299,4.9299,4.9299,4.9299,4.9299,4.9269,4.9299,4.9299,4.9269,4.9269,4.9269,4.9269,4.9239,4.9209,4.9209,4.9209,4.9209,4.9209,4.9209,4.9209,4.9209,4.9209,4.9209,4.9209,4.8566,4.7938,4.7309,4.7309,4.7309,4.7309,4.7309,4.7309,3.7733,3.761,3.8003,4.0105,4.1249,4.2354,4.4163,4.487,4.5376,4.6346,4.5978,4.5786,4.673,4.6404,4.6082,4.6322,4.6352,4.6352,4.6352,4.6352,0.0,0.0,0.0,0.0,0.0,0.0,0.0,0.0,0.0,4.4137,4.3678,4.306,4.2701,4.2701,4.2312,4.1983,4.1782,4.1542,4.1422,4.1422,4.1841,4.2171,4.241,4.2791,4.312,4.329,4.329,4.329,4.329,4.329,4.329,4.329,4.329,4.3858,4.4706,4.5125,4.5723,4.6369,4.707,4.716,4.698,4.7219,4.7309,4.7309,4.7309,4.7309,4.7309,4.7309,4.7309,4.7309,4.7309,4.7309,4.7429,4.7848,4.8745,4.9553,4.9553,4.9733,4.9883,4.9883,5.0242,5.0511,5.0511,5.0511,5.0361,4.9942,5.0242,5.0361,4.9942,4.9883,4.9883,4.9883,4.9523,4.9299,4.9299,4.9299,4.9299,4.9299,4.9299,4.9299,4.9299,4.9299,4.9299,4.9299,4.909,4.8805,4.8566,4.8147,4.8147,4.8566,4.8566,4.8566,3.8565,3.7922,3.7753,4.0223,4.0521,4.0652,4.2369,4.3127,4.3652,4.4204,4.4325,4.4678,4.5862,4.5005,4.4437,4.5597,4.5522,4.5304,4.5304,4.5304,0.0,0.0,0.0,0.0,0.0,0.0,0.0,0.0,0.0,0.0,4.303,4.265,4.2291,4.2081,4.1384,4.1055,4.1055,4.0816,4.0726,4.0726,4.1175,4.1542,4.1752,4.2372,4.2791,4.303,4.32,4.329,4.329,4.329,4.329,4.329,4.329,4.3708,4.4377,4.5035,4.5574,4.6112,4.701,4.716,4.701,4.7249,4.7309,4.7309,4.7309,4.7309,4.7309,4.7309,4.7309,4.7369,4.7578,4.7788,4.8117,4.8775,4.9568,5.0255,5.0465,5.0524,5.0524,5.0524,5.0883,5.1229,5.1229,5.1229,5.1079,5.0584,5.0883,5.105,5.0584,5.0524,5.0524,5.0524,5.0182,4.9912,4.9912,4.9912,4.9912,4.9912,4.9912,4.9912,4.9912,4.9912,4.9912,4.9912,4.9703,4.9703,4.9912,4.9045,4.888,4.9299,4.9299,4.9179,0.0,0.0,0.0,3.9656,3.9478,3.9512,4.1644,4.1494,4.13,4.2941,4.2425,4.2206,4.3963,4.2774,4.2659,4.6044,4.5789,4.5185,4.5185,4.5185,0.0,0.0,0.0,0.0,0.0,0.0,0.0,0.0,4.323,4.3,4.241,4.2351,4.2051,4.1354,4.0696,4.0367,4.0367,3.9738,3.9373,3.9373,3.9403,3.9798,4.0427,4.1085,4.1782,4.244,4.306,4.329,4.329,4.329,4.329,4.329,4.329,4.3708,4.4377,4.5035,4.5304,4.5514,4.683,4.689,4.6471,4.71,4.7309,4.7309,4.7309,4.7309,4.7309,4.7309,4.7309,4.7459,4.8117,4.882,4.9464,5.0046,5.0196,5.0405,5.1079,5.1229,5.1229,5.1229,5.1229,5.1229,5.1229,5.1229,5.1229,5.1229,5.1229,5.1229,5.1229,5.1229,5.1229,5.1229,5.1229,5.1229,5.1229,5.1229,5.1229,5.1229,5.1229,5.1229,5.1229,5.1229,5.1229,5.1229,5.0554,5.0524,5.1229,4.9912,4.9359,4.9359,4.9359,4.903,3.8734,0.0,0.0,0.0,0.0,0.0,3.8319,3.8933,3.9807,4.0814,4.1077,4.1642,4.3337,4.2141,4.1383,4.3042,4.283,4.2462,4.2462,4.292,0.0,0.0,0.0,0.0,0.0,0.0,0.0,0.0,4.1923,4.1833,4.1692,4.1205,4.0636,3.9978,3.9798,3.9679,3.9679,3.9499,3.9373,3.9439,3.9888,4.0217,4.0427,4.1602,4.2231,4.244,4.306,4.329,4.329,4.329,4.329,4.329,4.329,4.3708,4.4377,4.5035,4.5603,4.6172,4.701,4.7189,4.707,4.7249,4.7309,4.7309,4.7309,4.7309,4.7309,4.7309,4.7309,4.7459,4.8117,4.9134,5.0002,5.0136,5.0554,5.0943,5.1169,5.1229,5.1229,5.1229,5.1229,5.1229,5.1229,5.1229,5.1229,5.1229,5.1229,5.1229,5.1229,5.1229,5.1229,5.1229,5.1229,5.1229,5.1229,5.1229,5.1229,5.1229,5.1229,5.1229,5.1229,5.1229,5.1229,5.1229,5.105,5.0973,5.1229,5.0361,5.0212,5.069,5.069,5.0331,3.9469,3.8903,3.8396,3.8565,0.0,0.0,3.7753,3.8125,3.8565,0.0,3.9209,4.0027,4.1336,4.0344,3.9783,4.0942,4.0634,4.0436,4.0928,4.1572,0.0,0.0,0.0,0.0,0.0,4.1991,4.1841,4.1452,4.1422,4.1265,4.0995,4.0337,3.9798,3.9403,3.914,3.914,3.9373,3.914,3.914,3.9373,3.9798,3.9978,4.0038,4.1055,4.1572,4.1632,4.2521,4.291,4.294,4.32,4.329,4.329,4.329,4.3529,4.4018,4.4945,4.5544,4.6022,4.698,4.7309,4.7309,4.7309,4.7309,4.7309,4.7309,4.7309,4.7309,4.7309,4.7698,4.8207,4.864,4.9673,5.0614,5.0614,5.093,5.1229,5.1229,5.1229,5.1229,5.1229,5.1229,5.1319,5.1588,5.1618,5.1708,5.2007,5.2037,5.2037,5.2037,5.2037,5.2037,5.2037,5.2037,5.1917,5.1648,5.1618,5.1618,5.1618,5.1618,5.1738,5.2037,5.1768,5.1618,5.1618,5.1349,5.1229,5.1229,5.0794,5.084,5.1229,5.1229,5.0823,4.0113,3.9639,3.9411,4.0663,3.9546,0.0,3.8768,3.8362,3.7719,0.0,3.7381,3.799,3.8734,3.8169,3.8011,3.932,3.894,3.8874,4.0039,4.0785,0.0,0.0,0.0,0.0,4.1175,4.1175,4.1175,4.1175,4.1085,4.0786,4.0217,3.9559,3.9194,3.932,3.8631,3.8601,3.929,3.8691,3.8691,3.932,3.9343,3.9373,3.9403,4.0098,4.0397,4.0457,4.1841,4.241,4.244,4.306,4.329,4.329,4.329,4.3349,4.3559,4.4825,4.5334,4.5574,4.686,4.7309,4.7309,4.7309,4.7309,4.7309,4.7309,4.7309,4.7309,4.7399,4.8297,4.9329,4.9389,5.0301,5.1229,5.1229,5.1229,5.1229,5.1229,5.1289,5.1319,5.1229,5.1289,5.1498,5.2097,5.2247,5.2516,5.3084,5.3174,5.3174,5.3174,5.3174,5.3174,5.3174,5.3174,5.2935,5.2366,5.2306,5.2306,5.2306,5.2306,5.2576,5.3144,5.2606,5.2306,5.2306,5.1648,5.1319,5.1319,5.1259,5.1229,5.1229,5.1229,5.09,4.0282,4.0011,3.9808,3.9512,3.9546,0.0,3.8362,3.8024,3.7855,0.0,3.7313,3.7246,3.799,3.7461,3.6986,3.7275,3.764,3.8142,3.8851,3.9514,0.0,0.0,0.0,0.0,3.9798,3.9798,3.9798,3.9798,3.929,3.8931,3.8781,3.8153,3.8033,3.8571,3.7943,3.7913,3.8571,3.8452,3.8452,3.8601,3.914,3.9373,3.9403,4.0098,4.0397,4.0457,4.1841,4.241,4.244,4.306,4.329,4.329,4.329,4.3618,4.4227,4.5005,4.5633,4.6232,4.704,4.7309,4.7309,4.7309,4.7309,4.7309,4.7309,4.7309,4.7429,4.7938,4.8656,4.9419,4.9912,5.0631,5.1229,5.1229,5.1229,5.1229,5.1229,5.1618,5.1858,5.1319,5.1648,5.2067,5.2187,5.2636,5.3025,5.3144,5.3174,5.3174,5.3174,5.3174,5.3174,5.3174,5.3174,5.3144,5.2995,5.2995,5.2995,5.2995,5.2995,5.3054,5.3174,5.3054,5.2995,5.2995,5.2336,5.2007,5.2007,5.1468,5.1229,5.1229,5.1229,5.1139,4.1297,4.1196,0.0,4.073,0.0,0.0,0.0,3.87,3.8328,3.799,3.7313,3.6931,3.728,3.6693,3.6386,3.7177,3.725,3.7367,3.767,3.8247,3.8317,0.0,0.0,0.0,3.7943,3.8242,3.8422,3.8422,3.8093,3.7913,3.7913,3.7584,3.7554,3.7883,3.7285,3.7255,3.7913,3.7913,3.8063,3.8392,3.908,3.9373,3.9403,3.9768,3.9918,3.9978,4.0965,4.1602,4.1961,4.2581,4.303,4.329,4.329,4.3499,4.3858,4.4556,4.5244,4.5903,4.6591,4.704,4.7309,4.7309,4.7309,4.7309,4.7309,4.7549,4.7878,4.8207,4.8985,4.9823,5.0106,5.0674,5.1229,5.1229,5.1229,5.1319,5.1648,5.1977,5.2187,5.2187,5.2755,5.3084,5.2755,5.3234,5.3803,5.4132,5.4192,5.4192,5.4192,5.4192,5.4192,5.4192,5.4192,5.4042,5.3713,5.3683,5.3683,5.3683,5.3683,5.3832,5.4162,5.3862,5.3533,5.3204,5.2845,5.2695,5.2695,5.2037,5.1528,5.1229,5.1229,5.1379,0.0,0.0,0.0,0.0,0.0,4.1407,0.0,0.0,0.0,3.8261,0.0,0.0,0.0,0.0,0.0,0.0,0.0,0.0,0.0,3.6643,0.0,0.0,0.0,0.0,0.0,3.7045,3.7404,3.7404,3.7285,3.7225,3.7225,3.7105,3.7105,3.7225,3.6626,3.6656,3.7404,3.7404,3.7734,3.8392,3.908,3.9373,3.9373,3.9373,3.9373,3.9433,4.0247,4.0876,4.1482,4.2261,4.2851,4.329,4.329,4.329,4.3379,4.4227,4.4855,4.5394,4.6232,4.686,4.7309,4.7309,4.7309,4.7339,4.7459,4.7878,4.8327,4.8596,4.9434,5.0226,5.0345,5.0764,5.1259,5.1379,5.1409,5.1588,5.2247,5.2486,5.2695,5.3114,5.3832,5.4192,5.3503,5.3952,5.4581,5.5119,5.5179,5.5179,5.5179,5.5179,5.5179,5.5179,5.5179,5.497,5.4431,5.4401,5.4401,5.4401,5.4401,5.464,5.5179,5.467,5.4132,5.3593,5.3443,5.3384,5.3384,5.2725,5.2127,5.1588,5.1468,5.1768,0.0,0.0,0.0,0.0,4.2726,0.0,0.0,0.0,3.9783,3.9039,0.0,0.0,0.0,0.0,0.0,0.0,0.0,0.0,3.4926,3.4435,3.4289,3.4688,0.0,0.0,0.0,3.7045,3.7404,3.7404,3.6896,3.6596,3.6596,3.6028,3.5998,3.6567,3.5968,3.6207,3.7404,3.7404,3.7734,3.8392,3.908,3.9373,3.9373,3.9373,3.9373,3.9463,4.0726,4.1362,4.1474,4.2701,4.323,4.329,4.329,4.329,4.3439,4.4736,4.5214,4.5484,4.6741,4.7249,4.7309,4.7309,4.7309,4.7429,4.7997,4.8237,4.8536,4.9703,5.0076,5.0315,5.0913,5.1169,5.1379,5.1947,5.2097,5.2276,5.2935,5.3533,5.3832,5.3294,5.4221,5.488,5.4192,5.464,5.5089,5.5179,5.5179,5.5179,5.5179,5.5179,5.5179,5.5179,5.5179,5.5149,5.5089,5.5089,5.5089,5.5089,5.5089,5.5119,5.5179,5.5119,5.5029,5.497,5.4401,5.4102,5.4102,5.3414,5.3025,5.2935,5.2366,5.2456,0.0,0.0,0.0,0.0,0.0,0.0,4.2185,0.0,4.0527,0.0,0.0,0.0,0.0,0.0,0.0,0.0,3.6519,0.0,0.0,0.0,3.3124,0.0,0.0,0.0,0.0,0.0,0.0,0.0,3.5699,3.5489,3.5908,3.5639,3.5639,3.5908,3.6028,3.6327,3.6866,3.7614,3.8123,3.8392,3.908,3.9373,3.9373,3.9373,3.9619,4.0008,4.0576,4.1235,4.2021,4.2551,4.3,4.329,4.329,4.329,4.3409,4.4377,4.4975,4.5424,4.6411,4.698,4.7309,4.7309,4.7309,4.7369,4.7638,4.8237,4.9,4.9523,5.0212,5.0913,5.1618,5.1798,5.1947,5.2606,5.2755,5.2965,5.3623,5.4012,5.4251,5.4341,5.482,5.5089,5.482,5.4999,5.5179,5.5179,5.5179,5.5179,5.5179,5.5179,5.5179,5.5179,5.5179,5.5179,5.5179,5.5179,5.5179,5.5179,5.5179,5.5179,5.5179,5.5179,5.5179,5.5179,5.491,5.479,5.479,5.4102,5.3982,5.4311,5.3264,5.3144,4.4155,0.0,0.0,0.0,0.0,0.0,0.0,0.0,0.0,0.0,0.0,0.0,0.0,0.0,3.8091,3.8599,0.0,3.544,0.0,3.3642,0.0,0.0,0.0,0.0,0.0,0.0,0.0,0.0,0.0,3.4771,3.5459,3.5669,3.5759,3.5759,3.6237,3.6656,3.7015,3.7764,3.8302,3.8691,3.917,3.9373,3.9373,3.9373,3.9768,4.0397,4.0576,4.1362,4.241,4.259,4.291,4.329,4.329,4.3409,4.3648,4.4347,4.4885,4.5424,4.6292,4.689,4.7309,4.7309,4.7429,4.7608,4.7788,4.8626,4.9583,4.9763,5.0481,5.1379,5.2037,5.2187,5.2426,5.3264,5.3473,5.3653,5.4341,5.4491,5.461,5.5089,5.5179,5.5179,5.5179,5.5179,5.5179,5.5179,5.5179,5.5179,5.5179,5.5179,5.5179,5.5179,5.5179,5.5179,5.5179,5.5179,5.5179,5.5179,5.5359,5.5388,5.5209,5.5359,5.5388,5.5179,5.5179,5.5179,5.5179,5.47,5.473,5.5149,5.4012,5.3832,0.0,0.0,0.0,4.5395,0.0,0.0,0.0,0.0,4.2726,0.0,0.0,0.0,0.0,3.8396,3.7922,3.7922,3.6131,0.0,0.0,0.0,0.0,0.0,0.0,0.0,0.0,0.0,0.0,0.0,0.0,0.0,3.5459,3.6118,3.6447,3.6447,3.6477,3.7075,3.8332,3.7734,3.8093,3.9379,3.9373,3.9373,3.9373,3.9373,3.9768,4.0427,4.1085,4.1782,4.244,4.303,4.326,4.329,4.329,4.3678,4.4377,4.5035,4.5274,4.5484,4.68,4.7279,4.7309,4.7309,4.7728,4.8386,4.906,4.9673,5.0285,5.099,5.1199,5.1379,5.2037,5.2187,5.2546,5.3862,5.4192,5.4371,5.5029,5.5149,5.5149,5.5179,5.5179,5.5179,5.5179,5.5179,5.5179,5.5179,5.5179,5.5179,5.5179,5.5179,5.5179,5.5179,5.5179,5.5179,5.5179,5.5179,5.5179,5.5179,5.5777,5.5867,5.5209,5.5807,5.5837,5.5209,5.5179,5.5179,5.5179,5.5179,5.5179,5.5179,5.4491,5.4521,0.0,0.0,4.4594,4.4743,0.0,0.0,0.0,0.0,0.0,0.0,0.0,0.0,0.0,3.9512,3.9368,3.9368,3.7512,3.5952,0.0,0.0,0.0,0.0,0.0,0.0,0.0,0.0,0.0,0.0,0.0,0.0,0.0,3.5729,3.5848,3.5848,3.6656,3.7315,3.7734,3.8392,3.8925,3.9373,3.9373,3.9373,3.9373,3.9373,4.0008,4.1055,4.1294,4.2013,4.303,4.32,4.3559,4.3947,4.3947,4.4377,4.4975,4.5214,4.5574,4.6112,4.701,4.7309,4.7309,4.7309,4.7758,4.8327,4.8566,4.9374,5.0255,5.0465,5.1199,5.2007,5.2665,5.3174,5.3743,5.464,5.485,5.491,5.5149,5.5179,5.5179,5.5179,5.5538,5.55,5.4475,5.4667,5.5014,5.5147,5.5897,5.6137,5.5299,5.5568,5.5658,5.5239,5.5179,5.5179,5.5179,5.5179,5.5179,5.5179,5.5388,5.5418,5.5209,5.5418,5.5418,5.5179,5.5179,5.5179,5.5179,5.5179,5.5179,5.5179,5.497,5.497,4.5699,4.4922,0.0,4.5306,4.5598,0.0,4.4096,0.0,0.0,0.0,0.0,0.0,0.0,0.0,3.9662,3.9662,3.7823,3.6055,0.0,3.3385,0.0,0.0,0.0,0.0,0.0,0.0,0.0,0.0,0.0,0.0,0.0,0.0,3.5938,3.6178,3.6985,3.7644,3.8123,3.8751,3.917,3.9373,3.9373,3.9373,3.9403,3.9679,4.0367,4.1384,4.1662,4.2342,4.3319,4.3559,4.3888,4.4347,4.4556,4.5065,4.5663,4.5663,4.6082,4.6741,4.716,4.7309,4.7339,4.7578,4.8087,4.8686,4.8895,4.9733,5.0554,5.0554,5.1379,5.2336,5.3025,5.3683,5.4371,5.5029,5.5179,5.5179,5.5179,5.5179,5.5269,5.5508,5.5688,5.567,5.506,5.5362,5.5469,5.51,5.5795,5.61,5.5607,5.5664,5.547,5.4768,5.4234,5.413,5.468,5.5253,5.5628,5.5867,5.6107,5.6107,5.5867,5.6107,5.6226,5.6226,5.5987,5.5867,5.5867,5.5658,5.5418,5.5179,5.5179,5.5179]}]]